[[{"header":{"parameterUnit":"m.s-1","parameterCategory":1,"la1":31.0,"la2":29.5877,"lo1":-88.7671,"lo2":-86.6584,"dy":0.0162,"dx":0.0185,"nx":115,"ny":88,"refTime":"2024-05-23T18:00:00:Z","depth":0,"parameterNumber":2,"parameterNumberName":"U-component_of_WINDS"},"data":[0.0,0.0,0.0,0.0,0.0,0.0,0.0,0.0,0.0,0.0,0.0,0.0,0.0,0.0,0.0,0.0,0.0,0.0,0.0,0.0,0.0,0.0,0.0,0.0,0.0,0.0,0.0,0.0,0.0,0.0,0.0,0.0,0.0,0.0,0.0,0.0,0.0,0.0,0.0,0.0,0.0,0.0,0.0,0.0,0.0,0.0,0.0,0.0,0.0,0.0,0.0,0.0,0.0,0.0,0.0,0.0,0.0,0.0,0.0,0.0,0.0,0.0,0.0,0.0,0.0,0.0,0.0,0.0,0.0,0.0,0.0,0.0,0.0,0.0,0.0,0.0,0.0,0.0,0.0,0.0,0.0,0.0,0.0,0.0,0.0,0.0,0.0,0.0,0.0,0.0,0.0,0.0,0.0,0.0,0.0,0.0,0.0,0.0,0.0,0.0,0.0,0.0,0.0,0.0,0.0,0.0,0.0,0.0,0.0,0.0,0.0,0.0,0.0,0.0,0.0,0.0,0.0,0.0,0.0,0.0,0.0,0.0,0.0,0.0,0.0,0.0,0.0,0.0,0.0,0.0,0.0,0.0,0.0,0.0,0.0,0.0,0.0,0.0,0.0,0.0,0.0,0.0,0.0,0.0,0.0,0.0,0.0,0.0,0.0,0.0,0.0,0.0,0.0,0.0,0.0,0.0,0.0,0.0,0.0,0.0,0.0,0.0,0.0,0.0,0.0,0.0,0.0,0.0,0.0,0.0,0.0,0.0,0.0,0.0,0.0,0.0,0.0,0.0,0.0,0.0,0.0,0.0,0.0,0.0,0.0,0.0,0.0,0.0,0.0,0.0,0.0,0.0,0.0,0.0,0.0,0.0,0.0,0.0,0.0,0.0,0.0,0.0,0.0,0.0,0.0,0.0,0.0,0.0,0.0,0.0,0.0,0.0,0.0,0.0,0.0,0.0,0.0,0.0,0.0,0.0,0.0,0.0,0.0,0.0,0.0,0.0,0.0,0.0,0.0,0.0,0.0,0.0,0.0,0.0,0.0,0.0,0.0,0.0,0.0,0.0,0.0,0.0,0.0,0.0,0.0,0.0,0.0,0.0,0.0,0.0,0.0,0.0,0.0,0.0,0.0,0.0,0.0,0.0,0.0,0.0,0.0,0.0,0.0,0.0,0.0,0.0,0.0,0.0,0.0,0.0,0.0,0.0,0.0,0.0,0.0,0.0,0.0,0.0,0.0,0.0,0.0,0.0,0.0,0.0,0.0,0.0,0.0,0.0,0.0,0.0,0.0,0.0,0.0,0.0,0.0,0.0,0.0,0.0,0.0,0.0,0.0,0.0,0.0,0.0,0.0,0.0,0.0,0.0,0.0,0.0,0.0,0.0,0.0,0.0,0.0,0.0,0.0,0.0,0.0,0.0,0.0,0.0,0.0,0.0,0.0,0.0,0.0,0.0,0.0,0.0,0.0,0.0,0.0,0.0,0.0,0.0,0.0,0.0,0.0,0.0,0.0,0.0,0.0,0.0,0.0,0.0,0.0,0.0,0.0,0.0,0.0,0.0,0.0,0.0,0.0,0.0,0.0,0.0,0.0,0.0,0.0,0.0,0.0,0.0,0.0,0.0,0.0,0.0,0.0,0.0,0.0,0.0,0.0,0.0,0.0,0.0,0.0,0.0,0.0,0.0,0.0,0.0,0.0,0.0,0.0,0.0,0.0,0.0,0.0,0.0,0.0,0.0,0.0,0.0,0.0,0.0,0.0,0.0,0.0,0.0,0.0,0.0,0.0,0.0,0.0,0.0,0.0,0.0,0.0,0.0,0.0,0.0,0.0,0.0,0.0,0.0,0.0,0.0,0.0,0.0,0.0,0.0,0.0,0.0,0.0,0.0,0.0,0.0,0.0,0.0,0.0,0.0,0.0,0.0,0.0,0.0,0.0,0.0,0.0,0.0,0.0,0.0,0.0,0.0,0.0,0.0,0.0,0.0,0.0,0.0,0.0,0.0,0.0,0.0,0.0,0.0,0.0,0.0,0.0,0.0,0.0,0.0,0.0,0.0,0.0,0.0,0.0,0.0,0.0,0.0,0.0,0.0,0.0,0.0,0.0,0.0,0.0,0.0,0.0,0.0,0.0,0.0,0.0,0.0,0.0,0.0,0.0,0.0,0.0,0.0,0.0,0.0,0.0,0.0,0.0,0.0,0.0,0.0,0.0,0.0,0.0,0.0,0.0,0.0,0.0,0.0,0.0,0.0,0.0,0.0,0.0,0.0,0.0,0.0,0.0,0.0,0.0,0.0,0.0,0.0,0.0,0.0,0.0,0.0,0.0,0.0,0.0,0.0,0.0,0.0,0.0,0.0,0.0,0.0,0.0,0.0,0.0,0.0,0.0,0.0,0.0,0.0,0.0,0.0,0.0,0.0,0.0,0.0,0.0,0.0,0.0,0.0,0.0,0.0,0.0,0.0,0.0,0.0,0.0,0.0,0.0,0.0,0.0,0.0,0.0,0.0,0.0,0.0,0.0,0.0,0.0,0.0,0.0,0.0,0.0,0.0,0.0,0.0,0.0,0.0,0.0,0.0,0.0,0.0,0.0,0.0,0.0,0.0,0.0,0.0,0.0,0.0,0.0,0.0,0.0,0.0,0.0,0.0,0.0,0.0,0.0,0.0,0.0,0.0,0.0,0.0,0.0,0.0,0.0,0.0,0.0,0.0,0.0,0.0,0.0,0.0,0.0,0.0,0.0,0.0,0.0,0.0,0.0,0.0,0.0,0.0,0.0,0.0,0.0,0.0,0.0,0.0,0.0,0.0,0.0,0.0,0.0,0.0,0.0,0.0,0.0,0.0,0.0,0.0,0.0,0.0,0.0,0.0,0.0,0.0,0.0,0.0,0.0,0.0,0.0,0.0,0.0,0.0,0.0,0.0,0.0,0.0,0.0,0.0,0.0,0.0,0.0,0.0,0.0,0.0,0.0,0.0,0.0,0.0,0.0,0.0,0.0,0.0,0.0,0.0,0.0,0.0,0.0,0.0,0.0,0.0,0.0,0.0,0.0,0.0,0.0,0.0,0.0,0.0,0.0,0.0,0.0,0.0,0.0,0.0,0.0,0.0,0.0,0.0,0.0,0.0,0.0,0.0,0.0,0.0,0.0,0.0,0.0,0.0,0.0,0.0,0.0,0.0,0.0,0.0,0.0,0.0,0.0,0.0,0.0,0.0,0.0,0.0,0.0,0.0,0.0,0.0,0.0,0.0,0.0,0.0,0.0,0.0,0.0,0.0,0.0,0.0,0.0,0.0,0.0,0.0,0.0,0.0,0.0,0.0,0.0,0.0,0.0,0.0,0.0,0.0,0.0,0.0,0.0,0.0,0.0,0.0,0.0,0.0,0.0,0.0,0.0,0.0,0.0,0.0,0.0,0.0,0.0,0.0,0.0,0.0,0.0,0.0,0.0,0.0,0.0,0.0,0.0,0.0,0.0,0.0,0.0,0.0,0.0,0.0,0.0,0.0,0.0,0.0,0.0,0.0,0.0,0.0,0.0,0.0,0.0,0.0,0.0,0.0,0.0,0.0,0.0,0.0,0.0,0.0,0.0,0.0,0.0,0.0,0.0,0.0,0.0,0.0,0.0,0.0,0.0,0.0,0.0,0.0,0.0,0.0,0.0,0.0,0.0,0.0,0.0,0.0,0.0,0.0,0.0,0.0,0.0,0.0,0.0,0.0,0.0,0.0,0.0,0.0,0.0,0.0,0.0,0.0,0.0,0.0,0.0,0.0,0.0,0.0,0.0,0.0,0.0,0.0,0.0,0.0,0.0,0.0,0.0,0.0,0.0,0.0,0.0,0.0,0.0,0.0,0.0,0.0,0.0,0.0,0.0,0.0,0.0,0.0,0.0,0.0,0.0,0.0,0.0,0.0,0.0,0.0,0.0,0.0,0.0,0.0,0.0,0.0,0.0,0.0,0.0,0.0,0.0,0.0,0.0,0.0,0.0,0.0,0.0,0.0,0.0,0.0,0.0,0.0,0.0,0.0,0.0,0.0,0.0,0.0,0.0,0.0,0.0,0.0,0.0,0.0,0.0,0.0,0.0,0.0,0.0,0.0,0.0,0.0,0.0,0.0,0.0,0.0,0.0,0.0,0.0,0.0,0.0,0.0,0.0,0.0,0.0,0.0,0.0,0.0,0.0,0.0,0.0,0.0,0.0,0.0,0.0,0.0,0.0,0.0,0.0,0.0,0.0,0.0,0.0,0.0,0.0,0.0,0.0,0.0,0.0,0.0,-1.3405,0.0,0.0,0.0,0.0,0.0,0.0,0.0,0.0,0.0,0.0,0.0,0.0,0.0,0.0,0.0,0.0,0.0,0.0,0.0,0.0,0.0,0.0,0.0,0.0,0.0,0.0,0.0,0.0,0.0,0.0,0.0,0.0,0.0,0.0,0.0,0.0,0.0,0.0,0.0,0.0,0.0,0.0,0.0,0.0,0.0,0.0,0.0,0.0,0.0,0.0,0.0,0.0,0.0,0.0,0.0,0.0,0.0,0.0,0.0,0.0,0.0,0.0,0.0,0.0,0.0,0.0,0.0,0.0,0.0,0.0,0.0,0.0,0.0,0.0,0.0,0.0,0.0,0.0,0.0,0.0,0.0,0.0,0.0,0.0,0.0,0.0,0.0,0.0,0.0,0.0,0.0,0.0,0.0,0.0,0.0,0.0,0.0,0.0,0.0,0.0,0.0,0.0,0.0,0.0,0.0,0.0,0.0,0.0,0.0,0.0,-1.4814,-1.5583,-1.4344,-1.374,-1.3913,0.0,0.0,0.0,0.0,0.0,0.0,0.0,0.0,0.0,0.0,0.0,0.0,0.0,0.0,0.0,0.0,0.0,0.0,0.0,0.0,0.0,0.0,0.0,0.0,0.0,0.0,0.0,0.0,0.0,0.0,0.0,0.0,0.0,0.0,0.0,0.0,0.0,0.0,0.0,0.0,0.0,0.0,0.0,0.0,0.0,0.0,0.0,0.0,0.0,0.0,0.0,0.0,0.0,0.0,0.0,0.0,0.0,0.0,0.0,0.0,0.0,0.0,0.0,0.0,0.0,0.0,0.0,0.0,0.0,0.0,0.0,0.0,0.0,0.0,0.0,0.0,0.0,0.0,0.0,0.0,0.0,0.0,0.0,0.0,0.0,0.0,0.0,0.0,0.0,0.0,0.0,0.0,0.0,0.0,0.0,0.0,0.0,0.0,0.0,0.0,0.0,0.0,0.0,0.0,0.0,0.0,0.0,0.0,0.0,0.0,0.0,0.0,-1.4392,-1.4139,-1.4342,0.0,0.0,0.0,0.0,0.0,0.0,0.0,0.0,0.0,0.0,0.0,0.0,0.0,0.0,0.0,0.0,0.0,0.0,0.0,0.0,0.0,0.0,0.0,0.0,0.0,0.0,0.0,0.0,0.0,0.0,0.0,0.0,0.0,0.0,0.0,0.0,0.0,0.0,0.0,0.0,0.0,0.0,0.0,0.0,0.0,0.0,0.0,0.0,0.0,0.0,0.0,0.0,0.0,0.0,0.0,0.0,0.0,0.0,0.0,0.0,0.0,0.0,0.0,0.0,0.0,0.0,0.0,0.0,0.0,0.0,0.0,0.0,0.0,0.0,0.0,0.0,0.0,0.0,0.0,0.0,0.0,0.0,0.0,0.0,0.0,0.0,0.0,0.0,0.0,0.0,0.0,0.0,0.0,0.0,0.0,0.0,0.0,0.0,0.0,0.0,0.0,0.0,0.0,0.0,0.0,0.0,0.0,0.0,0.0,0.0,-1.4613,-1.5402,-1.4967,0.0,-1.4599,0.0,0.0,0.0,0.0,0.0,0.0,0.0,0.0,0.0,0.0,0.0,0.0,0.0,0.0,0.0,0.0,0.0,0.0,0.0,0.0,0.0,0.0,0.0,0.0,0.0,0.0,0.0,0.0,0.0,0.0,0.0,0.0,0.0,0.0,0.0,0.0,0.0,0.0,0.0,0.0,0.0,0.0,0.0,0.0,0.0,0.0,0.0,0.0,0.0,0.0,0.0,0.0,0.0,0.0,0.0,0.0,0.0,0.0,0.0,0.0,0.0,0.0,0.0,0.0,0.0,0.0,0.0,0.0,0.0,0.0,0.0,0.0,0.0,0.0,0.0,0.0,0.0,0.0,0.0,0.0,0.0,0.0,0.0,0.0,0.0,0.0,0.0,0.0,0.0,0.0,0.0,0.0,0.0,0.0,0.0,0.0,0.0,0.0,0.0,0.0,0.0,0.0,0.0,0.0,0.0,0.0,0.0,0.0,0.0,0.0,-1.4656,-1.5254,-1.4971,-1.4765,0.0,0.0,0.0,0.0,0.0,0.0,0.0,0.0,0.0,0.0,0.0,0.0,0.0,0.0,0.0,0.0,0.0,0.0,0.0,0.0,0.0,0.0,0.0,0.0,0.0,0.0,0.0,0.0,0.0,0.0,0.0,0.0,0.0,0.0,0.0,0.0,0.0,0.0,0.0,0.0,0.0,0.0,0.0,0.0,0.0,0.0,0.0,0.0,0.0,0.0,0.0,0.0,0.0,0.0,0.0,0.0,0.0,0.0,0.0,0.0,0.0,0.0,0.0,0.0,0.0,0.0,0.0,0.0,0.0,0.0,0.0,0.0,0.0,0.0,0.0,0.0,0.0,0.0,0.0,0.0,0.0,0.0,0.0,0.0,0.0,0.0,0.0,0.0,0.0,0.0,0.0,0.0,0.0,0.0,0.0,0.0,0.0,0.0,0.0,0.0,0.0,0.0,0.0,0.0,0.0,0.0,0.0,0.0,0.0,0.0,-1.486,-1.4869,-1.5269,-1.5154,-1.4924,-1.4572,0.0,0.0,0.0,0.0,0.0,0.0,0.0,0.0,0.0,0.0,0.0,0.0,0.0,0.0,0.0,0.0,0.0,0.0,0.0,0.0,0.0,0.0,0.0,0.0,0.0,0.0,0.0,0.0,0.0,0.0,0.0,0.0,0.0,0.0,0.0,0.0,0.0,0.0,0.0,0.0,0.0,0.0,0.0,0.0,0.0,0.0,0.0,0.0,0.0,0.0,0.0,0.0,0.0,0.0,0.0,0.0,0.0,0.0,0.0,0.0,0.0,0.0,0.0,0.0,0.0,0.0,0.0,0.0,0.0,0.0,0.0,0.0,0.0,0.0,0.0,0.0,0.0,0.0,0.0,0.0,0.0,0.0,0.0,0.0,0.0,0.0,0.0,0.0,0.0,0.0,0.0,0.0,0.0,0.0,0.0,0.0,0.0,0.0,0.0,0.0,0.0,0.0,0.0,0.0,0.0,0.0,0.0,0.0,0.0,-1.5486,-1.5317,-1.5755,-1.5758,-1.518,0.0,0.0,0.0,0.0,0.0,0.0,0.0,0.0,0.0,0.0,0.0,0.0,0.0,0.0,0.0,0.0,0.0,0.0,0.0,0.0,0.0,0.0,0.0,0.0,0.0,0.0,0.0,0.0,0.0,0.0,0.0,0.0,0.0,0.0,0.0,0.0,0.0,0.0,0.0,0.0,0.0,0.0,0.0,0.0,0.0,0.0,0.0,0.0,0.0,0.0,0.0,0.0,0.0,0.0,0.0,0.0,0.0,0.0,0.0,0.0,0.0,0.0,0.0,0.0,0.0,0.0,0.0,0.0,0.0,0.0,0.0,0.0,0.0,0.0,0.0,0.0,0.0,0.0,0.0,0.0,0.0,0.0,0.0,0.0,0.0,0.0,0.0,0.0,0.0,0.0,0.0,0.0,0.0,0.0,0.0,0.0,0.0,0.0,0.0,0.0,0.0,0.0,0.0,0.0,0.0,0.0,0.0,0.0,0.0,-1.4486,-1.4931,-1.5635,-1.6499,-1.5693,-1.5039,0.0,0.0,0.0,0.0,0.0,0.0,0.0,0.0,0.0,0.0,0.0,0.0,0.0,0.0,0.0,0.0,0.0,0.0,0.0,0.0,0.0,0.0,0.0,0.0,0.0,0.0,0.0,0.0,0.0,0.0,0.0,0.0,0.0,0.0,0.0,0.0,0.0,0.0,0.0,0.0,0.0,0.0,0.0,0.0,0.0,0.0,0.0,0.0,0.0,0.0,0.0,0.0,0.0,0.0,0.0,0.0,0.0,0.0,0.0,0.0,0.0,0.0,0.0,0.0,0.0,0.0,0.0,0.0,0.0,0.0,0.0,0.0,0.0,0.0,0.0,0.0,0.0,0.0,0.0,0.0,0.0,0.0,0.0,0.0,0.0,0.0,0.0,0.0,0.0,0.0,0.0,0.0,0.0,0.0,0.0,0.0,0.0,0.0,0.0,0.0,0.0,0.0,0.0,0.0,0.0,0.0,0.0,0.0,0.0,-1.4303,0.0,-1.6096,0.0,-1.5721,-1.4949,0.0,0.0,0.0,0.0,0.0,0.0,0.0,0.0,0.0,0.0,0.0,0.0,0.0,0.0,0.0,0.0,0.0,0.0,0.0,0.0,0.0,0.0,0.0,0.0,0.0,0.0,0.0,0.0,0.0,0.0,0.0,0.0,0.0,0.0,0.0,0.0,0.0,0.0,0.0,0.0,0.0,0.0,0.0,0.0,0.0,0.0,0.0,0.0,0.0,0.0,0.0,0.0,0.0,0.0,0.0,0.0,0.0,0.0,0.0,0.0,0.0,0.0,0.0,0.0,0.0,0.0,0.0,0.0,0.0,0.0,0.0,0.0,0.0,0.0,0.0,0.0,0.0,0.0,0.0,0.0,0.0,0.0,0.0,0.0,0.0,0.0,0.0,0.0,0.0,0.0,0.0,0.0,0.0,0.0,0.0,0.0,0.0,0.0,0.0,0.0,0.0,0.0,0.0,0.0,0.0,0.0,0.0,0.0,-1.5216,-1.601,-1.662,-1.6702,-1.6154,-1.5895,-1.4994,0.0,0.0,0.0,0.0,0.0,0.0,0.0,0.0,0.0,0.0,0.0,0.0,0.0,0.0,0.0,0.0,0.0,0.0,0.0,0.0,0.0,0.0,0.0,0.0,0.0,0.0,0.0,0.0,0.0,0.0,0.0,0.0,0.0,0.0,0.0,0.0,0.0,0.0,0.0,0.0,0.0,0.0,0.0,0.0,0.0,0.0,0.0,0.0,0.0,0.0,0.0,0.0,0.0,0.0,0.0,0.0,0.0,0.0,0.0,0.0,0.0,0.0,0.0,0.0,0.0,0.0,0.0,0.0,0.0,0.0,0.0,0.0,0.0,0.0,0.0,0.0,0.0,0.0,0.0,0.0,0.0,0.0,0.0,0.0,0.0,0.0,0.0,0.0,0.0,0.0,0.0,0.0,0.0,0.0,0.0,0.0,0.0,0.0,0.0,0.0,0.0,0.0,0.0,0.0,0.0,0.0,0.0,0.0,0.0,-1.4911,-1.6267,-1.7128,-1.7285,-1.5935,-1.5149,0.0,0.0,0.0,0.0,0.0,0.0,0.0,0.0,0.0,0.0,0.0,0.0,0.0,0.0,0.0,0.0,0.0,0.0,0.0,0.0,0.0,0.0,0.0,0.0,0.0,0.0,0.0,0.0,0.0,0.0,0.0,0.0,0.0,0.0,0.0,0.0,0.0,0.0,0.0,0.0,0.0,0.0,0.0,0.0,0.0,0.0,0.0,0.0,0.0,0.0,0.0,0.0,0.0,0.0,0.0,0.0,0.0,0.0,0.0,0.0,0.0,0.0,0.0,0.0,0.0,0.0,0.0,0.0,0.0,0.0,0.0,0.0,0.0,0.0,0.0,0.0,0.0,0.0,0.0,0.0,0.0,0.0,0.0,0.0,0.0,0.0,0.0,0.0,0.0,0.0,0.0,0.0,0.0,0.0,0.0,0.0,0.0,0.0,0.0,0.0,0.0,0.0,0.0,0.0,0.0,0.0,0.0,0.0,0.0,-1.6082,-1.7285,-1.7984,-1.7902,-1.6612,-1.5883,-1.584,0.0,0.0,0.0,0.0,0.0,0.0,0.0,0.0,0.0,0.0,0.0,0.0,0.0,0.0,0.0,0.0,0.0,0.0,0.0,0.0,0.0,0.0,0.0,0.0,0.0,0.0,0.0,0.0,0.0,0.0,0.0,0.0,0.0,0.0,0.0,0.0,0.0,0.0,0.0,0.0,0.0,0.0,0.0,0.0,0.0,0.0,0.0,0.0,0.0,0.0,0.0,0.0,0.0,0.0,0.0,0.0,0.0,0.0,0.0,0.0,0.0,0.0,0.0,0.0,0.0,0.0,0.0,0.0,0.0,0.0,0.0,0.0,0.0,0.0,0.0,0.0,0.0,0.0,0.0,0.0,0.0,0.0,0.0,0.0,0.0,0.0,0.0,0.0,0.0,0.0,0.0,0.0,0.0,0.0,0.0,0.0,0.0,0.0,0.0,0.0,0.0,0.0,0.0,0.0,0.0,0.0,0.0,0.0,-1.8934,-1.9551,-1.9334,-1.8187,-1.782,-1.7097,0.0,0.0,0.0,0.0,0.0,0.0,0.0,0.0,0.0,0.0,0.0,0.0,0.0,0.0,0.0,0.0,0.0,0.0,0.0,0.0,0.0,0.0,0.0,0.0,0.0,0.0,0.0,0.0,0.0,0.0,0.0,0.0,0.0,0.0,0.0,0.0,0.0,0.0,0.0,0.0,0.0,0.0,0.0,0.0,0.0,0.0,0.0,0.0,0.0,0.0,0.0,0.0,0.0,0.0,0.0,0.0,0.0,0.0,0.0,0.0,0.0,0.0,0.0,0.0,0.0,0.0,0.0,0.0,0.0,0.0,0.0,0.0,0.0,0.0,0.0,0.0,0.0,0.0,0.0,0.0,0.0,0.0,0.0,0.0,0.0,0.0,0.0,0.0,0.0,0.0,0.0,0.0,0.0,0.0,0.0,0.0,0.0,0.0,0.0,0.0,0.0,0.0,0.0,0.0,0.0,0.0,0.0,0.0,0.0,-2.0718,-2.1738,-2.1711,-2.0504,-1.9051,-1.8112,0.0,0.0,0.0,0.0,0.0,0.0,0.0,0.0,0.0,0.0,0.0,0.0,0.0,0.0,0.0,0.0,0.0,0.0,0.0,0.0,0.0,0.0,0.0,0.0,0.0,0.0,0.0,0.0,0.0,0.0,0.0,0.0,0.0,0.0,0.0,0.0,0.0,0.0,0.0,0.0,0.0,0.0,0.0,0.0,0.0,0.0,0.0,0.0,0.0,0.0,0.0,0.0,0.0,0.0,0.0,0.0,0.0,0.0,0.0,0.0,0.0,0.0,0.0,0.0,0.0,0.0,0.0,0.0,0.0,0.0,0.0,0.0,0.0,0.0,0.0,0.0,0.0,0.0,0.0,0.0,0.0,0.0,0.0,0.0,0.0,0.0,0.0,0.0,0.0,0.0,0.0,0.0,0.0,0.0,0.0,0.0,0.0,0.0,0.0,0.0,0.0,0.0,0.0,0.0,0.0,0.0,0.0,0.0,-2.0721,-2.2131,-2.3607,-2.3865,-2.2943,-2.1062,-1.9789,0.0,0.0,0.0,0.0,0.0,0.0,0.0,0.0,0.0,0.0,0.0,0.0,0.0,0.0,0.0,0.0,0.0,0.0,0.0,0.0,0.0,0.0,0.0,0.0,0.0,0.0,0.0,0.0,0.0,0.0,0.0,0.0,0.0,0.0,0.0,0.0,0.0,0.0,0.0,0.0,0.0,0.0,0.0,0.0,0.0,0.0,0.0,0.0,0.0,0.0,0.0,0.0,0.0,0.0,0.0,0.0,0.0,0.0,0.0,0.0,0.0,0.0,0.0,0.0,0.0,0.0,0.0,0.0,0.0,0.0,0.0,0.0,0.0,0.0,0.0,0.0,0.0,0.0,0.0,0.0,0.0,0.0,0.0,0.0,0.0,0.0,0.0,0.0,0.0,0.0,0.0,0.0,0.0,0.0,0.0,0.0,0.0,0.0,0.0,0.0,0.0,0.0,0.0,0.0,0.0,0.0,0.0,0.0,-2.1551,-2.3337,-2.5046,-2.5629,-2.5073,-2.3244,-2.1621,0.0,0.0,0.0,0.0,0.0,0.0,0.0,0.0,0.0,0.0,0.0,0.0,0.0,0.0,0.0,0.0,0.0,0.0,0.0,0.0,0.0,0.0,0.0,0.0,0.0,0.0,0.0,0.0,0.0,0.0,0.0,0.0,0.0,0.0,0.0,0.0,0.0,0.0,0.0,0.0,0.0,0.0,0.0,0.0,0.0,0.0,0.0,0.0,0.0,0.0,0.0,0.0,0.0,0.0,0.0,0.0,0.0,0.0,0.0,0.0,0.0,0.0,0.0,0.0,0.0,0.0,0.0,0.0,0.0,0.0,0.0,0.0,0.0,0.0,0.0,0.0,0.0,0.0,0.0,0.0,0.0,0.0,0.0,0.0,0.0,0.0,0.0,0.0,0.0,0.0,0.0,0.0,0.0,0.0,0.0,0.0,0.0,0.0,0.0,0.0,0.0,0.0,0.0,0.0,0.0,0.0,0.0,0.0,-2.2807,-2.4557,-2.5453,-2.5833,-2.571,-2.3797,-2.1961,0.0,0.0,0.0,0.0,0.0,0.0,0.0,0.0,0.0,0.0,0.0,0.0,0.0,0.0,0.0,0.0,0.0,0.0,0.0,0.0,0.0,0.0,0.0,0.0,0.0,0.0,0.0,0.0,0.0,0.0,0.0,0.0,0.0,0.0,0.0,0.0,0.0,0.0,0.0,0.0,0.0,0.0,0.0,0.0,0.0,0.0,0.0,0.0,-1.3322,0.0,0.0,0.0,0.0,0.0,0.0,0.0,0.0,0.0,0.0,0.0,0.0,0.0,0.0,0.0,0.0,0.0,0.0,0.0,0.0,0.0,0.0,0.0,0.0,0.0,0.0,0.0,0.0,0.0,0.0,0.0,0.0,0.0,0.0,0.0,0.0,0.0,0.0,0.0,0.0,0.0,0.0,0.0,0.0,0.0,0.0,0.0,0.0,0.0,0.0,0.0,0.0,0.0,0.0,0.0,0.0,0.0,0.0,0.0,-2.3607,-2.5371,-2.628,-2.6619,-2.6307,-2.4912,-2.3258,0.0,0.0,0.0,0.0,0.0,0.0,0.0,0.0,0.0,0.0,0.0,0.0,0.0,0.0,0.0,0.0,0.0,0.0,0.0,0.0,0.0,0.0,0.0,0.0,0.0,0.0,0.0,0.0,0.0,0.0,0.0,0.0,0.0,0.0,0.0,0.0,0.0,0.0,0.0,0.0,0.0,0.0,0.0,0.0,0.0,0.0,0.0,0.0,0.0,0.0,0.0,0.0,0.0,0.0,0.0,0.0,0.0,0.0,0.0,0.0,0.0,0.0,0.0,0.0,0.0,0.0,0.0,0.0,0.0,0.0,0.0,0.0,0.0,0.0,0.0,0.0,0.0,0.0,0.0,0.0,0.0,0.0,0.0,0.0,0.0,0.0,0.0,0.0,0.0,0.0,0.0,0.0,0.0,0.0,0.0,0.0,0.0,0.0,0.0,0.0,0.0,0.0,0.0,0.0,0.0,0.0,0.0,-2.2144,-2.4123,-2.5968,-2.7135,-2.743,-2.6911,-2.6062,-2.4765,-2.2977,0.0,0.0,0.0,0.0,0.0,0.0,0.0,0.0,0.0,0.0,0.0,0.0,0.0,0.0,0.0,0.0,0.0,0.0,0.0,0.0,0.0,0.0,0.0,0.0,0.0,0.0,0.0,0.0,0.0,0.0,0.0,0.0,0.0,0.0,0.0,0.0,0.0,0.0,-1.2438,-1.3905,0.0,0.0,0.0,0.0,0.0,0.0,0.0,0.0,-1.4694,0.0,0.0,0.0,0.0,0.0,0.0,0.0,0.0,0.0,0.0,0.0,0.0,0.0,0.0,0.0,0.0,0.0,0.0,0.0,0.0,0.0,0.0,0.0,0.0,0.0,0.0,0.0,0.0,0.0,0.0,0.0,0.0,0.0,0.0,0.0,0.0,0.0,0.0,0.0,0.0,0.0,0.0,0.0,0.0,0.0,0.0,0.0,0.0,0.0,0.0,0.0,0.0,0.0,0.0,0.0,0.0,-2.183,-2.2754,-2.4326,-2.6576,-2.7339,-2.7588,-2.7297,-2.6547,-2.5276,-2.3384,0.0,0.0,0.0,0.0,0.0,0.0,0.0,0.0,0.0,0.0,0.0,0.0,0.0,0.0,0.0,0.0,0.0,0.0,0.0,0.0,0.0,0.0,0.0,0.0,0.0,0.0,0.0,0.0,0.0,0.0,0.0,0.0,0.0,0.0,0.0,0.0,0.0,0.0,0.0,-1.5604,-1.6186,0.0,0.0,0.0,0.0,0.0,0.0,0.0,0.0,-1.504,0.0,0.0,0.0,0.0,0.0,0.0,0.0,0.0,0.0,0.0,0.0,0.0,0.0,0.0,0.0,0.0,0.0,0.0,0.0,0.0,0.0,0.0,0.0,0.0,0.0,0.0,0.0,0.0,0.0,0.0,0.0,0.0,0.0,0.0,0.0,0.0,0.0,0.0,0.0,0.0,0.0,0.0,0.0,0.0,0.0,0.0,0.0,0.0,0.0,0.0,0.0,0.0,0.0,0.0,0.0,-2.1776,-2.3662,-2.5302,-2.6752,-2.7597,-2.7799,-2.7368,-2.6307,-2.5041,0.0,0.0,0.0,0.0,0.0,0.0,0.0,0.0,0.0,0.0,0.0,0.0,0.0,0.0,0.0,0.0,0.0,0.0,0.0,0.0,0.0,0.0,0.0,0.0,0.0,0.0,0.0,0.0,0.0,0.0,0.0,0.0,0.0,0.0,0.0,0.0,0.0,0.0,0.0,0.0,-1.5927,-1.654,-1.6779,0.0,0.0,0.0,0.0,0.0,0.0,-1.567,-1.5278,0.0,0.0,0.0,0.0,0.0,0.0,0.0,0.0,0.0,0.0,0.0,0.0,0.0,0.0,0.0,0.0,0.0,0.0,0.0,0.0,0.0,0.0,0.0,0.0,0.0,0.0,0.0,0.0,0.0,0.0,0.0,0.0,0.0,0.0,0.0,0.0,0.0,0.0,0.0,0.0,0.0,0.0,0.0,0.0,0.0,0.0,0.0,0.0,0.0,0.0,0.0,0.0,0.0,0.0,0.0,-2.1765,-2.4381,-2.6102,-2.6925,-2.7826,-2.7972,-2.73,-2.6056,-2.4728,0.0,0.0,0.0,0.0,0.0,0.0,0.0,0.0,0.0,0.0,0.0,0.0,0.0,0.0,0.0,0.0,0.0,0.0,0.0,0.0,0.0,0.0,0.0,0.0,0.0,0.0,0.0,0.0,0.0,0.0,0.0,0.0,0.0,0.0,0.0,0.0,0.0,0.0,0.0,0.0,0.0,-1.6963,-1.7331,-1.6876,0.0,0.0,0.0,0.0,-1.6389,-1.6166,0.0,0.0,0.0,0.0,0.0,0.0,0.0,0.0,0.0,0.0,0.0,0.0,0.0,0.0,0.0,0.0,0.0,0.0,0.0,0.0,0.0,0.0,0.0,0.0,0.0,0.0,0.0,0.0,0.0,0.0,0.0,0.0,0.0,0.0,0.0,0.0,0.0,0.0,0.0,0.0,0.0,0.0,0.0,0.0,0.0,0.0,0.0,0.0,0.0,0.0,0.0,0.0,0.0,0.0,0.0,0.0,-2.2903,-2.4394,-2.5812,-2.7283,-2.7951,-2.7889,-2.6995,-2.6329,-2.4896,0.0,0.0,0.0,0.0,0.0,0.0,0.0,0.0,0.0,0.0,0.0,0.0,0.0,0.0,0.0,0.0,0.0,0.0,0.0,0.0,0.0,0.0,0.0,0.0,0.0,0.0,0.0,0.0,0.0,0.0,0.0,0.0,0.0,0.0,0.0,0.0,0.0,0.0,0.0,0.0,0.0,-1.7918,-1.7996,-1.7118,-1.6988,0.0,0.0,-1.7102,-1.8996,-1.803,0.0,0.0,0.0,0.0,0.0,0.0,0.0,0.0,0.0,0.0,0.0,0.0,0.0,0.0,0.0,0.0,0.0,0.0,0.0,0.0,0.0,0.0,0.0,0.0,0.0,0.0,0.0,0.0,0.0,0.0,0.0,0.0,0.0,0.0,0.0,0.0,0.0,0.0,0.0,0.0,0.0,0.0,0.0,0.0,0.0,0.0,0.0,0.0,0.0,0.0,0.0,0.0,0.0,0.0,0.0,-2.009,-2.3029,-2.4832,-2.628,-2.7355,-2.7798,-2.7675,-2.6899,-2.5638,-2.4173,0.0,0.0,0.0,0.0,0.0,0.0,0.0,0.0,0.0,0.0,0.0,0.0,0.0,0.0,0.0,0.0,0.0,0.0,0.0,0.0,0.0,0.0,0.0,0.0,0.0,0.0,0.0,0.0,0.0,0.0,0.0,0.0,0.0,0.0,0.0,0.0,0.0,0.0,0.0,0.0,0.0,0.0,-1.8516,-1.8211,0.0,0.0,0.0,-1.791,-1.7922,0.0,0.0,0.0,0.0,0.0,0.0,0.0,0.0,0.0,0.0,0.0,0.0,0.0,0.0,0.0,0.0,0.0,0.0,0.0,0.0,0.0,0.0,0.0,0.0,0.0,0.0,0.0,0.0,0.0,0.0,0.0,0.0,0.0,0.0,0.0,0.0,0.0,0.0,0.0,0.0,0.0,0.0,0.0,0.0,0.0,0.0,0.0,0.0,0.0,0.0,0.0,0.0,0.0,0.0,0.0,0.0,0.0,-2.3339,-2.533,-2.6734,-2.7488,-2.7682,-2.7446,-2.6611,-2.514,0.0,0.0,0.0,0.0,0.0,0.0,0.0,0.0,0.0,0.0,0.0,0.0,0.0,0.0,0.0,0.0,0.0,0.0,0.0,0.0,0.0,0.0,0.0,0.0,0.0,0.0,0.0,-0.8544,0.0,0.0,0.0,0.0,0.0,0.0,0.0,0.0,0.0,0.0,0.0,0.0,0.0,0.0,-1.8784,-1.9272,-1.945,-1.9446,0.0,0.0,-1.9049,-1.7933,-1.7902,-1.7451,0.0,0.0,0.0,0.0,0.0,0.0,0.0,0.0,0.0,0.0,0.0,0.0,0.0,0.0,0.0,0.0,0.0,0.0,0.0,0.0,0.0,0.0,0.0,0.0,0.0,0.0,0.0,0.0,0.0,0.0,0.0,0.0,0.0,0.0,0.0,0.0,0.0,0.0,0.0,0.0,0.0,0.0,0.0,0.0,0.0,0.0,0.0,0.0,0.0,0.0,0.0,0.0,0.0,0.0,-2.1115,-2.4406,-2.5818,-2.6903,-2.7736,-2.7796,-2.7183,-2.5916,-2.5249,-2.3644,0.0,0.0,0.0,0.0,0.0,0.0,0.0,0.0,0.0,0.0,0.0,0.0,0.0,0.0,0.0,0.0,0.0,0.0,0.0,0.0,0.0,0.0,0.0,0.0,0.0,0.0,0.0,0.0,0.0,0.0,0.0,0.0,0.0,0.0,0.0,0.0,0.0,0.0,0.0,0.0,0.0,-1.9902,-2.0495,-2.063,-2.0998,0.0,-2.1309,-2.0805,-2.1095,-2.0277,-1.9122,-1.7544,0.0,0.0,0.0,0.0,0.0,0.0,0.0,0.0,0.0,0.0,0.0,0.0,0.0,0.0,0.0,0.0,0.0,0.0,0.0,0.0,0.0,0.0,0.0,0.0,0.0,0.0,0.0,0.0,0.0,0.0,0.0,0.0,0.0,0.0,0.0,0.0,0.0,0.0,0.0,0.0,0.0,0.0,0.0,0.0,0.0,0.0,0.0,0.0,0.0,0.0,0.0,0.0,0.0,-2.0896,-2.441,-2.5527,-2.6614,-2.7756,-2.7689,-2.7197,-2.636,-2.5476,-2.3814,0.0,0.0,0.0,0.0,0.0,0.0,0.0,0.0,0.0,0.0,0.0,0.0,0.0,0.0,0.0,0.0,0.0,0.0,0.0,0.0,0.0,0.0,0.0,0.0,0.0,0.0,0.0,0.0,-0.9517,-0.9469,-0.9325,0.0,0.0,0.0,0.0,0.0,0.0,0.0,0.0,0.0,0.0,-2.0694,-2.1603,-2.1771,0.0,0.0,-2.1724,-2.1266,-2.0129,-1.9359,-1.83,-1.6607,-1.5653,0.0,0.0,0.0,0.0,0.0,0.0,0.0,0.0,0.0,0.0,0.0,0.0,0.0,0.0,0.0,0.0,0.0,0.0,0.0,0.0,0.0,0.0,0.0,0.0,0.0,0.0,0.0,0.0,0.0,0.0,0.0,0.0,0.0,0.0,0.0,0.0,0.0,0.0,0.0,0.0,0.0,0.0,0.0,0.0,0.0,0.0,0.0,0.0,0.0,0.0,0.0,0.0,-2.0668,-2.4,-2.5236,-2.6469,-2.7696,-2.7556,-2.7229,-2.6693,-2.5594,-2.3997,0.0,0.0,0.0,0.0,0.0,0.0,0.0,0.0,0.0,0.0,0.0,0.0,0.0,0.0,0.0,0.0,0.0,0.0,0.0,0.0,0.0,0.0,0.0,0.0,0.0,0.0,0.0,0.0,-1.0091,-0.9939,-0.9522,0.0,0.0,0.0,0.0,0.0,0.0,0.0,0.0,0.0,0.0,-2.1354,-2.248,-2.2792,-2.2702,-2.2059,-2.2259,-2.1745,-1.9769,-1.9118,-1.8253,-1.6548,0.0,0.0,0.0,0.0,0.0,0.0,0.0,0.0,0.0,0.0,0.0,0.0,0.0,0.0,0.0,0.0,0.0,0.0,0.0,0.0,0.0,0.0,0.0,0.0,0.0,0.0,0.0,-1.6511,0.0,0.0,-1.4634,0.0,0.0,0.0,0.0,0.0,0.0,0.0,0.0,0.0,0.0,0.0,0.0,0.0,0.0,0.0,0.0,0.0,0.0,0.0,0.0,0.0,0.0,-2.0547,-2.321,-2.5039,-2.6501,-2.7484,-2.7503,-2.7262,-2.6732,-2.5594,-2.4181,-2.24,0.0,0.0,0.0,0.0,0.0,0.0,0.0,0.0,0.0,0.0,0.0,0.0,0.0,0.0,0.0,0.0,0.0,0.0,0.0,0.0,0.0,0.0,0.0,0.0,0.0,0.0,-1.0135,-1.0113,-1.0064,0.0,0.0,0.0,0.0,0.0,0.0,0.0,0.0,0.0,-1.9024,-2.0501,-2.1917,-2.3041,-2.3694,-2.3774,-2.3144,-2.3067,-2.2466,-2.0728,-2.0191,-1.9523,0.0,0.0,0.0,0.0,0.0,0.0,0.0,0.0,0.0,0.0,0.0,0.0,0.0,0.0,0.0,0.0,0.0,0.0,0.0,0.0,0.0,0.0,0.0,0.0,0.0,0.0,0.0,-2.037,-1.9572,0.0,0.0,0.0,0.0,0.0,0.0,0.0,0.0,0.0,0.0,0.0,-2.2454,-2.3355,0.0,0.0,0.0,0.0,0.0,0.0,0.0,0.0,0.0,0.0,0.0,0.0,-2.0987,-2.3733,-2.5162,-2.6405,-2.7451,-2.7503,-2.7411,-2.7249,-2.6138,-2.4178,-2.1367,0.0,0.0,0.0,0.0,0.0,0.0,0.0,0.0,0.0,0.0,0.0,0.0,0.0,0.0,0.0,0.0,0.0,0.0,0.0,0.0,0.0,0.0,0.0,0.0,0.0,-1.1031,0.0,0.0,0.0,0.0,0.0,0.0,0.0,0.0,0.0,0.0,0.0,-1.9374,-2.1108,-2.2084,-2.2908,-2.3665,-2.3952,-2.3995,0.0,0.0,0.0,0.0,0.0,0.0,0.0,0.0,0.0,0.0,0.0,0.0,0.0,0.0,-1.7129,-1.5328,-1.4723,-1.4531,-1.4531,0.0,0.0,0.0,0.0,0.0,0.0,0.0,0.0,0.0,0.0,0.0,0.0,0.0,0.0,-2.2712,-2.2596,-2.1632,0.0,0.0,0.0,0.0,0.0,0.0,0.0,0.0,-2.3889,-2.4995,-2.4709,-2.5497,-2.5354,-2.4413,-2.3835,-2.2399,0.0,0.0,0.0,0.0,0.0,0.0,0.0,0.0,-2.1433,-2.4005,-2.5432,-2.655,-2.7451,-2.7503,-2.7503,-2.7477,-2.6229,-2.4269,-2.1655,-1.9549,-1.7887,0.0,0.0,0.0,0.0,0.0,0.0,0.0,0.0,0.0,0.0,0.0,0.0,0.0,0.0,0.0,0.0,0.0,0.0,0.0,0.0,0.0,0.0,0.0,-1.1725,0.0,0.0,0.0,0.0,0.0,0.0,0.0,0.0,0.0,-1.8019,-1.9416,-2.1041,-2.2779,-2.3091,-2.3498,-2.4308,0.0,0.0,0.0,0.0,0.0,0.0,0.0,-1.9042,-1.8353,-1.826,-1.828,-1.8195,-1.894,-1.9367,-1.8766,0.0,0.0,-1.6798,-1.6156,-1.5991,-1.6146,-1.6177,-1.6115,-1.598,-1.6187,-1.6312,0.0,0.0,0.0,0.0,-2.4095,0.0,0.0,0.0,-2.4139,-2.4533,0.0,-2.3378,0.0,0.0,0.0,0.0,-2.0061,-2.2204,0.0,0.0,-2.6687,-2.7562,-2.7555,-2.7555,-2.7281,-2.6876,-2.7249,-2.6315,-2.4164,-2.1394,0.0,0.0,0.0,0.0,0.0,0.0,-2.1891,-2.4135,-2.5855,-2.6961,-2.7477,-2.7503,-2.749,-2.7425,-2.589,-2.4452,-2.325,-2.1603,-1.9679,-1.7434,-1.7238,0.0,0.0,0.0,0.0,0.0,0.0,0.0,0.0,0.0,0.0,0.0,0.0,0.0,0.0,0.0,0.0,0.0,0.0,0.0,0.0,-1.1675,0.0,0.0,0.0,0.0,0.0,0.0,0.0,0.0,0.0,0.0,-1.9195,-2.0643,-2.2217,-2.3874,0.0,0.0,0.0,0.0,-2.4775,-2.4134,-2.3676,-2.2989,-2.1906,-2.1109,-2.0495,-2.0072,0.0,0.0,-1.9347,-1.9872,-2.0162,-1.9336,-1.9831,-2.0151,-1.9264,-1.8319,-1.7874,-1.8216,-1.7657,-1.7275,-1.7616,-1.7698,-1.7699,-3.0546,0.0,0.0,0.0,0.0,-2.689,-2.7501,-2.8893,-2.8252,-2.7641,-2.704,-2.6424,0.0,0.0,0.0,0.0,0.0,0.0,-2.5092,-2.6261,-2.7536,-2.8582,-2.9343,-2.9356,-2.9265,-2.9095,-2.8451,-2.7798,-2.7105,-2.5511,-2.2884,-1.9394,0.0,0.0,0.0,0.0,-2.342,-2.5262,-2.6216,-2.6948,-2.749,-2.7503,-2.7327,-2.6935,-2.6046,-2.5027,-2.389,-2.2596,-2.125,-1.9745,-1.8506,0.0,0.0,0.0,0.0,0.0,0.0,0.0,0.0,0.0,0.0,0.0,0.0,0.0,0.0,0.0,0.0,0.0,0.0,0.0,-1.2191,-1.2164,-1.2311,0.0,0.0,0.0,0.0,0.0,0.0,0.0,0.0,0.0,-2.0676,-2.227,-2.3707,0.0,0.0,-2.4814,-2.4775,-2.5037,-2.5095,-2.4747,-2.3769,0.0,-2.2409,-2.1042,-2.0122,-2.0274,-2.0617,-2.0928,-2.101,-2.0969,-2.0798,-2.0565,-2.0472,-2.0327,-2.0079,-1.9582,-1.9127,-1.8953,-1.8651,-1.8537,-1.8651,-1.8692,-1.8682,-3.486,-3.2816,-3.051,-2.9796,-3.0129,-2.9434,-2.9863,-3.093,-3.0246,-2.9774,-2.9445,-2.8691,-2.7209,-2.5206,-2.4221,0.0,0.0,0.0,-2.6726,-2.8072,-2.8765,-2.9575,-3.0401,-3.0464,-3.0477,-3.0438,-2.9523,-2.9091,-2.9065,-2.815,-2.5986,-2.2635,0.0,-2.2374,-2.21,-2.3276,-2.4648,-2.6112,-2.6726,-2.7183,-2.749,-2.7503,-2.7333,-2.7013,-2.6211,-2.5454,-2.4775,-2.343,-2.2296,-2.138,-1.9941,-1.824,0.0,0.0,0.0,0.0,0.0,0.0,0.0,0.0,0.0,0.0,0.0,-1.0751,-0.9735,0.0,0.0,0.0,-1.1253,-1.24,-1.3552,-1.3518,0.0,0.0,0.0,0.0,0.0,0.0,0.0,-1.8262,-1.9496,-2.072,-2.1876,-2.3174,-2.411,-2.4455,-2.4496,-2.4469,-2.4382,0.0,-2.4678,-2.4558,-2.366,-2.2981,-2.284,-2.156,-2.0669,-2.0928,-2.1197,-2.1455,-2.1735,-2.1559,-2.1404,-2.1362,-2.1118,-2.0907,-2.0731,-2.0472,-2.0187,-1.9706,-1.9502,-1.9378,-1.9378,-1.9243,-1.9098,-3.8385,-3.8043,-3.3623,-3.1976,-3.2251,-3.1524,-3.1314,-3.1405,-3.0793,-3.109,-3.1895,-3.014,-2.9152,-2.8619,-2.6383,0.0,-2.7712,-2.7699,-2.8573,-3.0166,-3.0166,-3.044,-3.0973,-3.1024,-3.1024,-3.096,-3.0414,-3.0166,-3.014,-2.9653,-2.8616,-2.6981,-2.5367,-2.4475,-2.436,-2.4936,-2.5816,-2.6902,-2.7353,-2.7542,-2.7503,-2.7503,-2.7477,-2.7398,-2.6367,-2.5767,-2.5707,-2.4135,-2.3001,-2.2388,-2.1367,-1.9719,-1.7486,0.0,0.0,0.0,0.0,0.0,0.0,0.0,0.0,0.0,0.0,0.0,0.0,0.0,0.0,0.0,-1.2879,0.0,-1.4832,-1.5307,0.0,0.0,0.0,-1.6138,-1.6244,-1.7294,-1.8457,-1.9587,0.0,0.0,-2.2695,-2.3306,-2.3642,-2.3653,-2.335,-2.3279,-2.3711,-2.3816,-2.3828,-2.3909,-2.3453,-2.3209,-2.3095,-2.2302,-2.1694,-2.1714,-2.1807,-2.1787,-2.1797,-2.1797,-2.1797,-2.1776,-2.1797,-2.1673,-2.1238,-2.1155,-2.1005,-2.0571,-2.0141,-1.9844,-1.9761,-1.9461,-1.9181,-3.7277,-3.7629,-3.6218,-3.5452,-3.5059,-3.4291,-3.325,-3.2171,-3.1836,-3.1311,-3.0591,-3.0111,-2.964,-2.9108,-2.8541,-2.8712,-2.9474,-2.9487,-2.998,-3.0764,-3.079,-3.0856,-3.1024,-3.1024,-3.1024,-3.0973,-3.0843,-3.079,-3.0777,-3.0634,-3.015,-2.9291,-2.8873,-2.779,-2.6177,-2.7099,-2.7962,-2.8682,-2.8368,-2.7968,-2.7516,-2.7503,-2.7281,-2.6883,-2.619,-2.5615,-2.5184,-2.436,-2.342,-2.244,-2.1694,-2.044,-1.8584,-1.6708,0.0,0.0,0.0,0.0,0.0,0.0,0.0,0.0,0.0,-1.2781,-1.0376,0.0,-1.2532,0.0,-1.3278,-1.4385,-1.5674,-1.5437,0.0,0.0,-1.7074,-1.7287,-1.828,-1.8709,-1.9183,-1.9712,-2.0541,-2.1176,-2.1488,-2.1987,-2.2286,-2.2323,-2.3304,-2.3944,-2.3665,-2.3826,-2.4044,-2.3948,-2.3433,-2.3065,-2.2979,-2.2354,-2.1807,-2.1807,-2.1807,-2.1807,-2.1807,-2.1807,-2.1807,-2.1807,-2.1807,-2.1756,-2.1652,-2.1642,-2.16,-2.1445,-2.0834,-2.0162,-1.9876,-1.9699,-1.9523,-3.7892,-3.7921,-3.7741,-3.7481,-3.7077,-3.6063,-3.4679,-3.3179,-3.2759,-3.1802,-3.0516,-3.0516,-3.0333,-3.0045,-3.0032,-3.0215,-3.0503,-3.0516,-3.0686,-3.0973,-3.1024,-3.1024,-3.1024,-3.1024,-3.1024,-3.1024,-3.1024,-3.1024,-3.1024,-3.1024,-3.0817,-3.0516,-3.0516,-2.9876,-2.866,-2.876,-2.8983,-2.9274,-2.8686,-2.8111,-2.7529,-2.7503,-2.7262,-2.6719,-2.6112,-2.5432,-2.4622,-2.3992,-2.3184,-2.2074,-2.1433,-2.057,-1.9355,-1.763,-1.6506,0.0,0.0,0.0,0.0,0.0,0.0,0.0,0.0,0.0,0.0,0.0,-1.3717,-1.4049,-1.52,-1.6303,-1.7246,-1.7292,-1.7675,-1.8645,-1.8687,-1.8892,-1.9603,-1.9931,-2.0267,-2.0653,-2.1114,-2.1414,-2.1424,-2.1818,-2.2108,-2.2118,-2.3101,-2.3665,-2.3165,-2.3106,-2.3135,-2.3317,-2.2859,-2.2478,-2.244,-2.2101,-2.1807,-2.1807,-2.1807,-2.1807,-2.1807,-2.1807,-2.1807,-2.1807,-2.1807,-2.1807,-2.1807,-2.1807,-2.1807,-2.1745,-2.1404,-2.0824,-2.0193,-1.9938,-1.9658,-3.8954,-3.8508,-3.835,-3.8365,-3.833,-3.7138,-3.5825,-3.4512,-3.3762,-3.2568,-3.1091,-3.1026,-3.1024,-3.1024,-3.1024,-3.1024,-3.1024,-3.1024,-3.1024,-3.1024,-3.1024,-3.1024,-3.1024,-3.1024,-3.1024,-3.1024,-3.1024,-3.1024,-3.1024,-3.1024,-3.1024,-3.1024,-3.1024,-3.1024,-3.0985,-3.003,-2.9493,-2.9379,-2.8839,-2.8216,-2.762,-2.7542,-2.719,-2.6582,-2.602,-2.514,-2.4018,-2.3485,-2.2727,-2.1681,-2.125,-2.0713,-2.0035,-1.8914,-1.8244,0.0,-1.7539,0.0,0.0,0.0,0.0,0.0,0.0,0.0,0.0,-1.4755,-1.5238,-1.6087,-1.7578,-1.8677,-1.9094,-1.9739,-2.0154,-2.026,-2.0583,-2.0774,-2.074,-2.1105,-2.1495,-2.1838,-2.189,-2.1911,-2.2004,-2.2346,-2.2584,-2.2644,-2.2964,-2.3137,-2.2758,-2.2421,-2.2296,-2.2542,-2.2201,-2.2029,-2.2008,-2.1949,-2.1901,-2.1838,-2.189,-2.1869,-2.1818,-2.1807,-2.1807,-2.1807,-2.1807,-2.1807,-2.1807,-2.1807,-2.1807,-2.1807,-2.1756,-2.1428,-2.0648,-2.022,-1.9799,-3.8123,-3.8429,-3.7613,-3.7572,-3.8044,-3.747,-3.6936,-3.6321,-3.5209,-3.3581,-3.164,-3.1196,-3.1024,-3.1024,-3.1024,-3.1024,-3.1024,-3.1024,-3.1024,-3.1024,-3.1024,-3.1024,-3.1024,-3.1024,-3.1024,-3.1024,-3.1024,-3.1024,-3.1024,-3.1024,-3.1024,-3.1024,-3.1024,-3.1024,-3.1011,0.0,0.0,0.0,-2.9392,-2.8852,-2.8229,-2.7758,-2.6994,-2.5989,-2.5419,0.0,-2.3459,-2.3248,-2.2895,-2.2296,-2.2557,0.0,0.0,0.0,0.0,0.0,0.0,0.0,0.0,0.0,0.0,0.0,-1.7269,-1.6539,-1.517,-1.6509,-1.7629,-1.8048,-1.8627,-1.9388,-2.0411,-2.063,-2.1259,-2.2556,-2.2829,-2.2795,-2.2552,-2.2594,-2.2606,-2.2382,-2.2366,-2.2511,-2.2832,-2.3008,-2.306,-2.306,-2.3132,-2.3349,-2.3588,-2.3184,-2.2956,-2.3008,-2.2646,-2.2377,-2.2366,-2.2366,-2.2232,-2.1973,-2.2139,-2.219,-2.189,-2.1807,-2.1807,-2.1807,-2.1807,-2.1807,-2.1807,-2.1807,-2.1807,-2.1769,-2.1769,-2.1566,-2.0882,-2.0661,-2.0477,-3.7993,-3.7332,-3.7121,-3.7188,0.0,-3.7538,-3.7633,-3.7694,-3.628,-3.4641,-3.2808,-3.2133,-3.1666,-3.1405,-3.1405,-3.1248,-3.1024,-3.1024,-3.1024,-3.1024,-3.1024,-3.1024,-3.1024,-3.1024,-3.1024,-3.1024,-3.1024,-3.1024,-3.1024,-3.1024,-3.1024,-3.1024,-3.1024,-3.1024,-3.1024,-3.1024,-3.0712,-3.01,-2.9813,-2.9274,-2.8446,-2.8098,-2.7406,-2.6282,-2.5694,0.0,0.0,0.0,0.0,0.0,0.0,0.0,0.0,0.0,0.0,-2.0244,-1.9917,-1.9366,-1.853,-1.8914,-1.9058,-1.8723,-1.9053,-1.8705,-1.7316,-1.8552,-1.9425,-1.9594,-1.9983,-2.0652,-2.162,-2.1851,-2.2428,-2.3589,-2.3777,-2.3804,-2.3939,-2.3977,-2.3867,-2.3573,-2.3513,-2.3472,-2.3234,-2.3401,-2.3525,-2.3546,-2.3732,-2.3929,-2.4084,-2.3619,-2.3194,-2.3184,-2.3018,-2.2853,-2.2842,-2.2832,-2.2677,-2.2315,-2.2346,-2.2283,-2.188,-2.1807,-2.1807,-2.1807,-2.1807,-2.1807,-2.1807,-2.1807,-2.1759,-2.1693,-2.1655,-2.1489,-2.0969,-2.0842,-2.0659,-3.8308,-3.6776,-3.6799,-3.6793,-3.6806,-3.7303,-3.7835,-3.8372,-3.6892,0.0,0.0,-3.3106,-3.2424,-3.1967,-3.1941,-3.1641,-3.1143,-3.1143,-3.1078,-3.1024,-3.1024,-3.1024,-3.1024,-3.1024,-3.1024,-3.1024,-3.1024,-3.1024,-3.1024,-3.1024,-3.1024,-3.1024,-3.1024,-3.1024,-3.1024,-3.1024,-3.0751,-3.027,-3.0153,-2.9614,-2.8616,-2.8472,-2.7837,-2.6732,-2.6112,-2.5297,-2.4308,-2.3799,-2.3093,-2.2191,-2.2217,-2.2217,-2.2126,-2.2126,-2.2296,-2.2675,-2.2715,-2.2189,-2.1005,-2.132,-2.1074,-1.9932,-2.0419,-2.0504,-1.9846,-2.0385,-2.0767,-2.0818,-2.1201,-2.1817,-2.2592,-2.2996,-2.3519,-2.4355,-2.4584,-2.4866,-2.5271,-2.5326,-2.521,-2.4943,-2.4847,-2.4585,-2.3881,-2.4218,-2.4315,-2.4116,-2.4419,-2.4668,-2.4447,-2.3929,-2.3515,-2.3505,-2.3412,-2.3298,-2.3298,-2.3194,-2.3039,-2.2687,-2.2553,-2.2356,-2.2035,-2.1859,-2.1807,-2.1807,-2.1769,-2.1731,-2.1731,-2.1693,-2.1655,-2.1474,-2.1425,-2.1359,-2.0982,-2.0837,-2.0646,-3.9235,-3.8702,-3.689,-3.6031,-3.5916,-3.646,-3.7019,-3.75,-3.6539,-3.5565,-3.4572,-3.3291,-3.2646,-3.2568,-3.2581,-3.2254,-3.1693,-3.1693,-3.1457,-3.1037,-3.1024,-3.1024,-3.1024,-3.1024,-3.1024,-3.1024,-3.1024,-3.1024,-3.1024,-3.1024,-3.1024,-3.1024,-3.1024,-3.1024,-3.1024,-3.1024,-3.0947,-3.0856,-3.0372,-2.9823,-2.9157,-2.8682,-2.7871,-2.6758,-2.6138,-2.5524,-2.4913,-2.4796,-2.4678,-2.4534,-2.4949,-2.4988,-2.4547,-2.4468,-2.4295,-2.3916,-2.3877,-2.3458,-2.2522,-2.2559,-2.2294,-2.1697,-2.1578,-2.147,-2.14,-2.1316,-2.1387,-2.1616,-2.1697,-2.2081,-2.2855,-2.3585,-2.4459,-2.5647,-2.6418,-2.6819,-2.6671,-2.6656,-2.6531,-2.6272,-2.6222,-2.6023,-2.5522,-2.6016,-2.5906,-2.4925,-2.4957,-2.5306,-2.468,-2.4404,-2.4321,-2.4259,-2.4022,-2.3857,-2.3753,-2.3432,-2.3246,-2.3111,-2.276,-2.2511,-2.2366,-2.2076,-2.1831,-2.1807,-2.1686,-2.1609,-2.1561,-2.1397,-2.132,-2.1244,-2.1244,-2.1167,-2.0906,-2.0855,-2.0834,-4.0151,-3.8672,-3.7545,-3.6561,-3.5748,-3.6277,-3.6641,-3.6899,-3.6758,-3.6222,-3.5306,-3.4113,-3.3456,-3.3195,-3.3182,-3.2855,-3.2293,-3.1954,-3.1667,-3.1406,-3.113,-3.1024,-3.1024,-3.1024,-3.1024,-3.1024,-3.1024,-3.1024,-3.1024,-3.1024,-3.1024,-3.1024,-3.1024,-3.1024,-3.1024,-3.1024,-3.1024,-3.1024,-3.0725,-3.032,-2.9758,-2.947,-2.8778,-2.7674,-2.702,-2.6478,-2.5947,-2.5602,-2.5432,-2.5432,-2.5636,-2.5675,-2.5458,-2.5432,-2.5315,-2.5036,-2.504,-2.4504,-2.3381,-2.2704,-2.238,-2.2377,-2.2073,-2.1935,-2.1924,-2.186,-2.1832,-2.1939,-2.2102,-2.2698,-2.3947,-2.4599,-2.5524,-2.7054,-2.7552,-2.7801,-2.7953,-2.7977,-2.7907,-2.764,-2.7577,-2.73,-2.6584,-2.6864,-2.6648,-2.5474,-2.5263,-2.4946,-2.454,-2.4507,-2.4507,-2.4487,-2.4311,-2.426,-2.4219,-2.4084,-2.3836,-2.3619,-2.3174,-2.2801,-2.2573,-2.2283,-2.2059,-2.1727,-2.1714,-2.1708,-2.143,-2.1282,-2.1177,-2.1061,-2.1022,-2.0945,-2.078,-2.0731,-2.0731,-4.1066,-3.8981,-3.8495,-3.7382,-3.5974,-3.6205,-3.6301,-3.6335,-3.6731,-3.6603,-3.5944,-3.5236,-3.4752,-3.4379,-3.4353,-3.39,-3.3186,-3.2685,-3.2239,-3.1758,-3.1378,-3.1104,-3.0999,-3.1024,-3.1024,-3.1024,-3.1024,-3.1024,-3.1024,-3.1024,-3.1024,-3.1024,-3.1024,-3.1024,-3.1024,-3.1024,-3.1024,-3.1024,-3.1024,-3.0699,-3.0127,-3.01,-2.9604,-2.8669,-2.802,-2.751,-2.7085,-2.6517,-2.6171,-2.6171,-2.6171,-2.6184,-2.6171,-2.6171,-2.6171,-2.6184,-2.6171,-2.5569,-2.414,-2.2835,-2.223,-2.2585,-2.244,-2.2289,-2.2338,-2.2611,-2.2654,-2.2556,-2.2689,-2.3376,-2.4581,-2.5295,-2.6168,-2.7557,-2.7891,-2.8276,-2.8938,-2.9076,-2.9035,-2.8848,-2.8791,-2.8371,-2.7435,-2.7313,-2.6976,-2.5955,-2.5062,-2.454,-2.4507,-2.4507,-2.4507,-2.4507,-2.4507,-2.4476,-2.4497,-2.4363,-2.425,-2.4012,-2.3536,-2.3153,-2.2863,-2.2668,-2.228,-2.1816,-2.1712,-2.1634,-2.1237,-2.1089,-2.0974,-2.0858,-2.0819,-2.078,-2.0644,-2.0605,-2.0537,-4.1971,-4.0908,-3.9681,-3.8165,-3.6625,-3.6034,-3.5771,-3.5723,-3.6087,-3.6273,-3.6223,-3.6527,-3.6618,-3.6615,-3.6523,-3.58,-3.4601,-3.452,-3.3538,-3.1914,-3.1758,-3.1445,-3.105,-3.1024,-3.1024,-3.1024,-3.1024,-3.1024,-3.1024,-3.1024,-3.1024,-3.1024,-3.1024,-3.1024,-3.1024,-3.1024,-3.1024,-3.1024,-3.1024,-3.0712,-3.014,-3.01,-2.98,-2.9209,-2.8621,-2.8315,-2.8224,-2.7667,-2.7333,-2.7346,-2.7307,-2.732,-2.7307,-2.732,-2.7333,-2.732,-2.732,-2.6718,-2.5214,-2.3396,-2.2376,-2.2429,-2.274,-2.29,-2.3008,-2.4022,-2.4408,-2.3924,-2.3706,-2.4034,-2.4503,-2.5299,-2.6093,-2.6851,-2.7469,-2.8187,-2.9336,-2.9716,-2.9703,-2.9702,-2.9585,-2.9052,-2.773,-2.781,-2.7557,-2.5986,-2.5062,-2.4507,-2.4507,-2.4507,-2.4507,-2.4507,-2.4507,-2.4507,-2.4466,-2.4188,-2.4178,-2.4322,-2.3753,-2.3422,-2.335,-2.2857,-2.2195,-2.1925,-2.1517,-2.1172,-2.0956,-2.078,-2.0693,-2.0693,-2.0654,-2.0615,-2.0605,-2.0615,-2.0488,-4.2873,-4.1449,-4.0881,-3.9486,-3.7682,-3.6806,-3.6356,-3.6265,-3.6831,-3.701,-3.7068,-3.7938,-3.7843,-3.6933,-3.6894,-3.6325,-3.5329,-3.4976,-3.3924,-3.2372,-3.198,-3.1535,-3.1026,-3.1024,-3.1024,-3.1024,-3.1024,-3.1024,-3.1024,-3.1024,-3.1024,-3.1024,-3.1024,-3.1024,-3.1024,-3.1024,-3.1024,-3.1024,-3.1024,-3.0869,-3.0673,-3.0634,-3.0359,-2.9836,-2.9536,-2.9248,-2.893,-2.8347,-2.8033,-2.8007,-2.7673,-2.7503,-2.7503,-2.7503,-2.7503,-2.7469,-2.6654,-2.5965,-2.53,-2.3497,-2.2617,-2.3075,-2.3038,-2.3334,-2.4134,-2.4711,-2.5269,-2.5977,-2.5695,-2.5654,-2.6345,-2.6976,-2.7427,-2.7735,-2.8385,-2.8963,-2.8964,-2.9507,-2.9779,-2.9779,-2.9779,-2.9585,-2.8752,-2.8091,-2.718,-2.5944,-2.5062,-2.454,-2.4507,-2.4507,-2.4507,-2.4507,-2.4507,-2.4507,-2.4487,-2.4373,-2.4374,-2.4342,-2.4022,-2.3732,-2.3546,-2.3176,-2.2482,-2.1939,-2.1501,-2.1105,-2.0771,-2.0702,-2.0615,-2.0615,-2.0615,-2.0615,-2.0615,-2.0615,-2.0419,-4.3525,-4.1909,-4.1278,-4.0082,-3.8537,-3.7717,-3.7127,-3.6917,-3.7669,-3.7839,-3.7623,-3.8897,-3.8819,-3.7701,-3.7601,-3.7011,-3.6067,-3.5564,-3.447,-3.3053,-3.2502,-3.194,-3.1274,-3.1222,-3.113,-3.1037,-3.1024,-3.1024,-3.1024,-3.1024,-3.1024,-3.1024,-3.1024,-3.1024,-3.1024,-3.1024,-3.1024,-3.1024,-3.1024,-3.1024,-3.1011,-3.1024,-3.079,-3.0361,-3.0179,-2.9905,-2.9536,-2.8983,-2.8543,-2.8386,-2.7981,-2.7646,-2.7503,-2.7503,-2.7503,-2.739,-2.6117,-2.5312,-2.5264,-2.3497,-2.274,-2.3494,-2.3509,-2.4029,-2.5089,-2.5753,-2.6651,-2.773,-2.7696,-2.7639,-2.7894,-2.8313,-2.849,-2.8542,-2.9131,-2.9209,-2.9013,-2.9456,-2.9779,-2.9792,-2.9546,-2.9221,-2.8593,-2.7313,-2.6049,-2.5421,-2.4861,-2.4507,-2.4507,-2.4507,-2.454,-2.4775,-2.4861,-2.4743,-2.4583,-2.4476,-2.4507,-2.4456,-2.4219,-2.3969,-2.3718,-2.3329,-2.2737,-2.2119,-2.1769,-2.1313,-2.0801,-2.0615,-2.0615,-2.0615,-2.0615,-2.0615,-2.0615,-2.0615,-2.0488,-4.3787,-4.234,-4.0432,-3.9545,-3.921,-3.8537,-3.7781,-3.716,-3.8311,-3.8436,-3.7918,-3.9043,-3.9538,-3.9192,-3.9068,-3.836,-3.6958,-3.6707,-3.5512,-3.363,-3.3456,-3.2881,-3.181,-3.1771,-3.1471,-3.1013,-3.1024,-3.1024,-3.1024,-3.1024,-3.1024,-3.1024,-3.1024,-3.1024,-3.1024,-3.1024,-3.1024,-3.1024,-3.1024,-3.1024,-3.1024,-3.1024,-3.0973,-3.0869,-3.0388,-3.0113,-3.0009,-2.9549,-2.9035,-2.8459,-2.842,-2.8111,-2.7594,-2.7516,-2.7503,-2.7356,-2.6151,-2.5336,-2.5159,-2.3711,-2.2965,-2.3682,-2.4537,-2.5273,-2.6164,-2.752,-2.845,-2.8825,-2.9185,-2.9201,-2.8615,-2.86,-2.8593,-2.8502,-2.8581,-2.9,-2.9585,-2.9624,-2.9779,-2.9663,-2.9157,-2.8131,-2.64,-2.5189,-2.4914,-2.47,-2.454,-2.454,-2.4625,-2.4583,-2.4903,-2.5505,-2.5704,-2.5453,-2.4743,-2.47,-2.4668,-2.4476,-2.4392,-2.4329,-2.4045,-2.3639,-2.2922,-2.2266,-2.1697,-2.1193,-2.0772,-2.0615,-2.0615,-2.0615,-2.0615,-2.0615,-2.0615,-2.0615,-2.0537,-4.3802,-4.2479,-4.0812,-4.0101,-3.999,-3.9346,-3.8604,-3.7887,-3.8284,-3.8272,-3.8073,-3.8741,-3.9254,-3.9553,-3.8907,-3.8008,-3.6972,-3.6894,-3.5727,-3.3789,-3.3587,-3.296,-3.1889,-3.1797,-3.151,-3.1052,-3.1024,-3.1024,-3.1024,-3.1024,-3.1024,-3.1024,-3.1024,-3.1024,-3.1024,-3.1024,-3.1024,-3.1024,-3.1024,-3.1024,-3.1024,-3.1024,-3.1024,-3.0973,-3.079,-3.0686,-3.0686,-3.0137,-2.9719,-2.9474,-2.9157,-2.8721,-2.8124,-2.7719,-2.7503,-2.7462,-2.6927,-2.659,-2.6437,-2.558,-2.5284,-2.6039,-2.617,-2.6681,-2.773,-2.8512,-2.9076,-2.9428,-2.9628,-2.9624,-2.9456,-2.9326,-2.9091,-2.8673,-2.8961,-2.917,-2.9118,-2.9417,-2.9779,-2.9663,-2.904,-2.781,-2.6235,-2.5495,-2.5094,-2.4625,-2.4507,-2.4743,-2.5221,-2.5306,-2.5631,-2.637,-2.6607,-2.6524,-2.6299,-2.5631,-2.5221,-2.4647,-2.4391,-2.4166,-2.3922,-2.3466,-2.2834,-2.2192,-2.1574,-2.1133,-2.0801,-2.0615,-2.0615,-2.0615,-2.0615,-2.0615,-2.0615,-2.0615,-2.0615,-4.3602,-4.2509,-4.1355,-4.0705,-4.0443,-3.9997,-3.941,-3.8757,-3.8879,-3.873,-3.8546,-3.8975,-3.9415,-3.9565,-3.8965,-3.8008,-3.6919,-3.6607,-3.5558,-3.3957,-3.3849,-3.3339,-3.2502,-3.2359,-3.2097,-3.1575,-3.1326,-3.1182,-3.0999,-3.1024,-3.1024,-3.1024,-3.1024,-3.1024,-3.1024,-3.1024,-3.1024,-3.1024,-3.1024,-3.1024,-3.1024,-3.1024,-3.1024,-3.1024,-3.1024,-3.1024,-3.1024,-3.0607,-3.027,-3.0074,-2.9745,-2.9287,-2.8699,-2.8307,-2.8085,-2.8022,-2.7729,-2.753,-2.746,-2.6832,-2.675,-2.7471,-2.7382,-2.7713,-2.8737,-2.9063,-2.9402,-2.9691,-2.9779,-2.9779,-2.9779,-2.9779,-2.9417,-2.8752,-2.904,-2.9013,-2.8211,-2.8542,-2.8673,-2.8383,-2.7879,-2.6894,-2.5746,-2.5421,-2.5062,-2.4583,-2.47,-2.5179,-2.5663,-2.611,-2.6565,-2.7342,-2.7557,-2.7545,-2.7435,-2.7017,-2.611,-2.5463,-2.4572,-2.4272,-2.4006,-2.3476,-2.2849,-2.2156,-2.1623,-2.1212,-2.0899,-2.0674,-2.0615,-2.0615,-2.0615,-2.0615,-2.0615,-2.0615,-2.0615,-4.3217,-4.2602,-4.1878,-4.117,-4.0612,-4.0443,-4.0059,-3.9567,-4.0043,-3.9757,-3.9207,-3.9864,-3.9899,-3.9717,-3.9466,-3.859,-3.6996,-3.6281,-3.5427,-3.4513,-3.4444,-3.4142,-3.3565,-3.3445,-3.3091,-3.2502,-3.2032,-3.1497,-3.1091,-3.1026,-3.1024,-3.1024,-3.1024,-3.1024,-3.1024,-3.1024,-3.1024,-3.1024,-3.1024,-3.1024,-3.1024,-3.1024,-3.1024,-3.1024,-3.1024,-3.1024,-3.1024,-3.0985,-3.0699,-3.0218,-3.0127,-2.9862,-2.9379,-2.917,-2.9209,-2.906,-2.8554,-2.8205,-2.8059,-2.7297,-2.7194,-2.7729,-2.7797,-2.8243,-2.8925,-2.944,-2.9729,-2.9767,-2.9779,-2.9779,-2.9779,-2.9779,-2.9495,-2.8712,-2.8712,-2.8251,-2.7557,-2.7191,-2.6823,-2.6276,-2.611,-2.5516,-2.4828,-2.4668,-2.4615,-2.4818,-2.5221,-2.5819,-2.6193,-2.6771,-2.7476,-2.8211,-2.8502,-2.8462,-2.849,-2.8371,-2.7302,-2.6276,-2.5263,-2.4562,-2.4466,-2.4067,-2.338,-2.2677,-2.1791,-2.1329,-2.0801,-2.0615,-2.0615,-2.0615,-2.0615,-2.0605,-2.0615,-2.0615,-2.0615,-4.3485,-4.3125,-4.2063,-4.1494,-4.1201,-4.0705,-4.0105,-3.9521,-3.9736,-3.9625,-3.9468,-3.9486,-3.9649,-3.9677,-3.9169,-3.8115,-3.6933,-3.6582,-3.6082,-3.5426,-3.5318,-3.4969,-3.4393,-3.3858,-3.3287,-3.2685,-3.2071,-3.1719,-3.1484,-3.1182,-3.1024,-3.1024,-3.1024,-3.1024,-3.1024,-3.1024,-3.1024,-3.1024,-3.1024,-3.1024,-3.1024,-3.1024,-3.1024,-3.1024,-3.1024,-3.1024,-3.1024,-3.1024,-3.0908,-3.0712,-3.0725,-3.0464,-2.9905,-2.9497,-2.9287,-2.9327,-2.9437,-2.9387,-2.9292,-2.9201,-2.9088,-2.9252,-2.9211,-2.9272,-2.949,-2.9679,-2.9779,-2.9779,-2.9779,-2.9779,-2.9779,-2.9779,-2.9624,-2.9417,-2.8882,-2.8303,-2.7758,-2.7354,-2.6741,-2.5986,-2.5777,-2.5421,-2.4743,-2.4507,-2.4743,-2.5253,-2.5663,-2.6152,-2.7342,-2.7758,-2.8422,-2.9209,-2.9287,-2.9248,-2.9157,-2.891,-2.8159,-2.7221,-2.6205,-2.5263,-2.5041,-2.4649,-2.3967,-2.3026,-2.2185,-2.1398,-2.0869,-2.0683,-2.076,-2.0722,-2.0799,-2.0722,-2.0644,-2.0683,-2.0799,-4.384,-4.3485,-4.2432,-4.1832,-4.154,-4.0797,-4.0259,-3.989,-3.9859,-3.9859,-3.984,-3.9757,-3.9833,-3.992,-3.9328,-3.8428,-3.7548,-3.7715,-3.7424,-3.6649,-3.6241,-3.5783,-3.51,-3.4257,-3.3587,-3.3077,-3.2672,-3.2215,-3.1784,-3.1483,-3.1196,-3.1026,-3.1024,-3.1024,-3.1024,-3.1024,-3.1024,-3.1024,-3.1024,-3.1024,-3.1024,-3.1024,-3.1024,-3.1024,-3.1024,-3.1024,-3.1024,-3.1024,-3.1024,-3.1024,-3.1024,-3.0803,-3.0451,-3.0124,-2.9951,-2.998,-3.0179,-3.034,-3.018,-3.02,-3.0343,-3.0113,-2.9895,-2.9779,-2.9779,-2.9779,-2.9779,-2.9779,-2.9779,-2.9779,-2.9779,-2.9779,-2.9663,-2.9339,-2.8474,-2.773,-2.7191,-2.6494,-2.5966,-2.539,-2.5263,-2.502,-2.4658,-2.454,-2.4861,-2.5579,-2.6121,-2.6741,-2.8131,-2.8752,-2.9287,-2.9663,-2.9624,-2.9624,-2.9702,-2.9365,-2.8949,-2.8131,-2.7232,-2.6412,-2.5883,-2.54,-2.4788,-2.3421,-2.2441,-2.1516,-2.0928,-2.1121,-2.1203,-2.1126,-2.1205,-2.1395,-2.151,-2.1242,-2.1203,-4.424,-4.3608,-4.2925,-4.2294,-4.1663,-4.0955,-4.0551,-4.0443,-4.0443,-4.0428,-4.0443,-4.0397,-4.0339,-4.0261,-3.9945,-3.9277,-3.8649,-3.9002,-3.876,-3.8023,-3.741,-3.6707,-3.5601,-3.4844,-3.4237,-3.3666,-3.3522,-3.2934,-3.198,-3.1784,-3.1561,-3.1076,-3.1024,-3.1024,-3.1024,-3.1024,-3.1024,-3.1024,-3.1024,-3.1024,-3.1024,-3.1024,-3.1024,-3.1024,-3.1024,-3.1024,-3.1024,-3.1024,-3.1024,-3.1024,-3.1024,-3.0998,-3.0998,-3.0973,-3.0869,-3.083,-3.096,-3.0784,-3.0659,-3.0419,-3.0254,-3.0088,-2.9895,-2.9779,-2.9779,-2.9779,-2.9779,-2.9779,-2.9779,-2.9779,-2.9779,-2.9779,-2.9456,-2.8581,-2.7839,-2.6618,-2.4914,-2.4743,-2.4903,-2.47,-2.455,-2.4507,-2.4507,-2.4507,-2.4988,-2.583,-2.6618,-2.7395,-2.8462,-2.9197,-2.9663,-2.9779,-2.9779,-2.9779,-2.9779,-2.956,-2.9145,-2.8712,-2.8011,-2.7487,-2.6794,-2.6276,-2.5469,-2.4136,-2.3043,-2.2029,-2.161,-2.1986,-2.2088,-2.2105,-2.2265,-2.2424,-2.2247,-2.188,-2.1461,-4.4502,-4.4233,-4.3639,-4.294,-4.2279,-4.1601,-4.0986,-4.0536,-4.0505,-4.0489,-4.0489,-4.0489,-4.042,-4.0312,-4.0242,-3.9615,-3.9081,-3.9451,-3.9292,-3.8554,-3.8841,-3.7639,-3.6056,-3.5467,-3.4911,-3.4247,-3.3824,-3.3195,-3.2476,-3.2032,-3.1575,-3.1037,-3.1024,-3.1024,-3.1024,-3.1024,-3.1024,-3.1024,-3.1024,-3.1024,-3.1024,-3.1024,-3.1024,-3.1024,-3.1024,-3.1024,-3.1024,-3.1024,-3.1024,-3.1024,-3.1024,-3.1024,-3.1024,-3.1024,-3.1024,-3.0986,-3.0849,-3.0698,-3.0482,-3.0292,-3.0113,-2.9908,-2.9818,-2.9779,-2.9779,-2.9779,-2.9779,-2.9779,-2.9779,-2.9779,-2.9779,-2.9753,-2.9339,-2.8581,-2.7718,-2.6535,-2.52,-2.5062,-2.5263,-2.4658,-2.4583,-2.4625,-2.4583,-2.47,-2.5189,-2.6412,-2.711,-2.7689,-2.887,-2.9443,-2.9779,-2.9779,-2.9779,-2.9779,-2.974,-2.9599,-2.9353,-2.9091,-2.8724,-2.8435,-2.7822,-2.7325,-2.6277,-2.5093,-2.4399,-2.3489,-2.3361,-2.3533,-2.3399,-2.2944,-2.2843,-2.2767,-2.2596,-2.2285,-2.1832,-4.461,-4.451,-4.3886,-4.3393,-4.2894,-4.2017,-4.134,-4.0955,-4.0612,-4.0489,-4.0489,-4.0489,-4.047,-4.0416,-4.0296,-4.0001,-3.9493,-3.9788,-3.9646,-3.9292,-3.9451,-3.8531,-3.7,-3.6189,-3.5426,-3.4924,-3.4277,-3.347,-3.2777,-3.2346,-3.1784,-3.113,-3.1024,-3.1024,-3.1024,-3.1024,-3.1024,-3.1024,-3.1024,-3.1024,-3.1024,-3.1024,-3.1024,-3.1024,-3.1024,-3.1024,-3.1024,-3.1024,-3.1024,-3.1024,-3.1024,-3.1024,-3.1024,-3.1024,-3.1024,-3.0986,-3.0811,-3.0622,-3.0406,-3.0216,-3.0011,-2.9869,-2.9779,-2.9779,-2.9779,-2.9779,-2.9779,-2.9779,-2.9779,-2.9779,-2.9714,-2.9507,-2.904,-2.8542,-2.8011,-2.711,-2.5726,-2.6038,-2.5913,-2.5432,-2.5348,-2.539,-2.5147,-2.5316,-2.6257,-2.7284,-2.7718,-2.8502,-2.9417,-2.9663,-2.9779,-2.9779,-2.974,-2.974,-2.965,-2.947,-2.9236,-2.9013,-2.8855,-2.8724,-2.8447,-2.7955,-2.7146,-2.6154,-2.5599,-2.5205,-2.4962,-2.4509,-2.3733,-2.3362,-2.3213,-2.3001,-2.282,-2.236,-2.1983,-4.461,-4.4564,-4.3963,-4.3624,-4.3264,-4.2202,-4.1586,-4.1324,-4.0786,-4.0489,-4.0489,-4.0489,-4.0489,-4.0489,-4.0401,-4.0312,-4.0277,-4.0121,-4.0066,-3.9889,-3.9803,-3.9111,-3.83,-3.6897,-3.607,-3.5575,-3.4896,-3.3923,-3.308,-3.2712,-3.2109,-3.1323,-3.1024,-3.1024,-3.1024,-3.1024,-3.1024,-3.1024,-3.1024,-3.1024,-3.1024,-3.1024,-3.1024,-3.1024,-3.1024,-3.1024,-3.1024,-3.1024,-3.1024,-3.1024,-3.1024,-3.1024,-3.1024,-3.1024,-3.1024,-3.0949,-3.0773,-3.0571,-3.0406,-3.019,-3.0011,-2.9818,-2.9779,-2.9779,-2.9779,-2.9779,-2.9779,-2.9779,-2.9779,-2.9779,-2.9714,-2.9131,-2.8882,-2.8803,-2.8673,-2.8211,-2.7597,-2.7313,-2.6864,-2.6038,-2.6535,-2.6565,-2.6318,-2.6565,-2.7406,-2.7851,-2.8251,-2.8752,-2.9417,-2.9702,-2.9779,-2.9779,-2.974,-2.9689,-2.9521,-2.938,-2.9118,-2.8855,-2.8709,-2.855,-2.8471,-2.8099,-2.7684,-2.714,-2.6812,-2.641,-2.6079,-2.5369,-2.4442,-2.3895,-2.3873,-2.3442,-2.2957,-2.2322,-2.1794,-4.461,-4.4556,-4.4456,-4.3756,-4.2863,-4.2494,-4.1771,-4.0766,-4.0582,-4.0489,-4.0489,-4.0489,-4.0489,-4.0489,-4.047,-4.0455,-4.047,-4.0366,-4.0331,-4.0207,-4.0031,-3.9854,-3.9337,-3.8211,-3.6975,-3.6215,-3.6227,-3.5044,-3.3475,-3.3258,-3.2751,-3.1281,-3.1161,-3.1024,-3.1048,-3.1024,-3.1024,-3.1024,-3.1024,-3.1024,-3.1024,-3.1024,-3.1024,-3.1024,-3.1024,-3.1024,-3.1024,-3.1024,-3.1024,-3.1024,-3.1024,-3.1024,-3.1024,-3.1024,-3.1024,-3.0949,-3.0685,-3.0444,-3.0368,-3.0113,-2.9856,-2.983,-2.9779,-2.9779,-2.9779,-2.9779,-2.9779,-2.9779,-2.9779,-2.9779,-2.9753,-2.9624,-2.9456,-2.9417,-2.9417,-2.9378,-2.9131,-2.8581,-2.7597,-2.6577,-2.6659,-2.6823,-2.6069,-2.6823,-2.7609,-2.8303,-2.8712,-2.8949,-2.9326,-2.974,-2.9779,-2.9779,-2.9779,-2.9689,-2.9392,-2.9184,-2.8922,-2.8776,-2.8618,-2.851,-2.8431,-2.8431,-2.8099,-2.8047,-2.8131,-2.7686,-2.7082,-2.6385,-2.5471,-2.5013,-2.4299,-2.3466,-2.2665,-2.2128,-2.1804,-4.461,-4.461,-4.461,-4.4024,-4.3094,-4.2725,-4.2001,-4.1058,-4.0628,-4.0489,-4.0489,-4.0489,-4.0489,-4.0489,-4.0489,-4.0489,-4.0489,-4.0489,-4.047,-4.0366,-4.0242,-4.0137,-4.0031,-3.9394,-3.8345,-3.7242,-3.6972,-3.5784,-3.4585,-3.4125,-3.3641,-3.21,-3.17,-3.1566,-3.1394,-3.1198,-3.1024,-3.1024,-3.1024,-3.1024,-3.1024,-3.1024,-3.1024,-3.1024,-3.1024,-3.1024,-3.1024,-3.1024,-3.1024,-3.1024,-3.1024,-3.1024,-3.1024,-3.1024,-3.1024,-3.0949,-3.0723,-3.0482,-3.0368,-3.0126,-2.9908,-2.9792,-2.9779,-2.9779,-2.9779,-2.9779,-2.9779,-2.9779,-2.9779,-2.9779,-2.9779,-2.9779,-2.9779,-2.9779,-2.9779,-2.9779,-2.9714,-2.9378,-2.8633,-2.7597,-2.7931,-2.7851,-2.7718,-2.773,-2.8223,-2.9131,-2.9209,-2.9404,-2.9443,-2.9779,-2.9779,-2.9779,-2.9779,-2.965,-2.9275,-2.9,-2.8736,-2.8657,-2.8657,-2.859,-2.851,-2.855,-2.8578,-2.8498,-2.8419,-2.8419,-2.7862,-2.7155,-2.602,-2.4859,-2.387,-2.3096,-2.2305,-2.1617,-2.1548,-4.461,-4.4594,-4.4502,-4.4086,-4.3408,-4.2709,-4.2001,-4.134,-4.0801,-4.0489,-4.0489,-4.0489,-4.0489,-4.0489,-4.0489,-4.0489,-4.0489,-4.0489,-4.0505,-4.047,-4.0381,-4.0347,-4.0242,-3.998,-3.9631,-3.8921,-3.8242,-3.696,-3.5659,-3.5255,-3.4494,-3.3283,-3.2577,-3.216,-3.1955,-3.1542,-3.1161,-3.1061,-3.1024,-3.1024,-3.1024,-3.1024,-3.1024,-3.1024,-3.1024,-3.1024,-3.1024,-3.1024,-3.1024,-3.1024,-3.1024,-3.1024,-3.1024,-3.1024,-3.1024,-3.0986,-3.0761,-3.0533,-3.0368,-3.0152,-2.9934,-2.9779,-2.9779,-2.9779,-2.9779,-2.9779,-2.9779,-2.9779,-2.9779,-2.9779,-2.9779,-2.9779,-2.9779,-2.9779,-2.9779,-2.9779,-2.9779,-2.9779,-2.9248,-2.8661,-2.8712,-2.8791,-2.8752,-2.8764,-2.9339,-2.9779,-2.9779,-2.9779,-2.9779,-2.9779,-2.9779,-2.9779,-2.9779,-2.9689,-2.9353,-2.9,-2.8697,-2.8697,-2.8736,-2.8657,-2.859,-2.8538,-2.8578,-2.855,-2.851,-2.8471,-2.8008,-2.6918,-2.5746,-2.4469,-2.3384,-2.2499,-2.1765,-2.1091,-2.1223,-4.461,-4.4564,-4.4009,-4.3393,-4.2709,-4.2063,-4.1401,-4.072,-4.0566,-4.0489,-4.0489,-4.0489,-4.0489,-4.0489,-4.0489,-4.0489,-4.0489,-4.0489,-4.0489,-4.0489,-4.047,-4.047,-4.0436,-4.0401,-4.0246,-4.0176,-3.9535,-3.806,-3.6274,-3.5906,-3.5251,-3.3642,-3.3108,-3.2791,-3.2304,-3.1919,-3.1505,-3.1061,-3.1024,-3.1024,-3.1024,-3.1024,-3.1024,-3.1024,-3.1024,-3.1024,-3.1024,-3.1024,-3.1024,-3.1024,-3.1024,-3.1024,-3.1024,-3.1024,-3.1024,-3.0949,-3.0685,-3.0482,-3.0368,-3.0088,-2.9869,-2.9792,-2.9779,-2.9779,-2.9779,-2.9779,-2.9779,-2.9779,-2.9779,-2.9779,-2.9779,-2.9779,-2.9779,-2.9779,-2.9779,-2.9779,-2.9779,-2.974,-2.9507,-2.891,-2.9287,-2.9624,-2.9378,-2.9287,-2.9573,-2.9779,-2.9779,-2.9779,-2.9779,-2.9779,-2.9779,-2.9779,-2.9779,-2.965,-2.9431,-2.9067,-2.8803,-2.8855,-2.8855,-2.8776,-2.8697,-2.8578,-2.8538,-2.851,-2.8379,-2.8299,-2.7594,-2.6726,-2.5701,-2.4605,-2.3309,-2.2007,-2.147,-2.0987,-2.078,-4.4409,-4.4071,-4.3747,-4.2987,-4.2125,-4.174,-4.1186,-4.0551,-4.0489,-4.0489,-4.0489,-4.0489,-4.0489,-4.0489,-4.0489,-4.0489,-4.0489,-4.0489,-4.0489,-4.0489,-4.0489,-4.0489,-4.0489,-4.0489,-4.0489,-4.0436,-4.02,-3.9093,-3.6995,-3.701,-3.6065,-3.4733,-3.4022,-3.3422,-3.272,-3.2268,-3.1736,-3.1198,-3.1024,-3.1024,-3.1024,-3.1024,-3.1024,-3.1024,-3.1024,-3.1024,-3.1024,-3.1024,-3.1024,-3.1024,-3.1024,-3.1024,-3.1024,-3.1024,-3.1024,-3.0936,-3.071,-3.0482,-3.0368,-3.0126,-2.9946,-2.9792,-2.9779,-2.9779,-2.9779,-2.9779,-2.9779,-2.9779,-2.9779,-2.9779,-2.9779,-2.9779,-2.9779,-2.9779,-2.9779,-2.9779,-2.9779,-2.9779,-2.9495,-2.9157,-2.9495,-2.9663,-2.9534,-2.9534,-2.9702,-2.9779,-2.9779,-2.9779,-2.9779,-2.9779,-2.9779,-2.974,-2.974,-2.9599,-2.9431,-2.9197,-2.8949,-2.9,-2.8973,-2.8895,-2.8736,-2.8618,-2.8538,-2.8498,-2.8379,-2.8259,-2.7919,-2.733,-2.6057,-2.4785,-2.3633,-2.2552,-2.1571,-2.0957,-2.0742,-4.4225,-4.3593,-4.347,-4.2694,-4.1694,-4.1432,-4.1063,-4.0566,-4.0489,-4.0489,-4.0489,-4.0489,-4.0489,-4.0489,-4.0489,-4.0489,-4.0489,-4.0489,-4.0489,-4.0489,-4.0489,-4.0489,-4.0489,-4.0489,-4.0489,-4.0505,-4.0455,-3.9596,-3.8073,-3.7726,-3.6887,-3.5606,-3.4725,-3.4041,-3.3213,-3.2648,-3.1882,-3.1222,-3.1024,-3.1024,-3.1024,-3.1024,-3.1024,-3.1024,-3.1024,-3.1024,-3.1024,-3.1024,-3.1024,-3.1024,-3.1024,-3.1024,-3.1024,-3.1024,-3.1024,-3.0986,-3.0773,-3.0571,-3.0419,-3.0152,-2.9908,-2.9792,-2.9779,-2.9779,-2.9779,-2.9779,-2.9779,-2.9779,-2.9779,-2.9779,-2.9779,-2.9779,-2.9779,-2.9779,-2.9779,-2.9779,-2.9779,-2.9779,-2.9779,-2.9663,-2.9779,-2.974,-2.9611,-2.9611,-2.9779,-2.9779,-2.9779,-2.9779,-2.9779,-2.9779,-2.9779,-2.974,-2.965,-2.9548,-2.9431,-2.9353,-2.9157,-2.9106,-2.904,-2.8973,-2.8816,-2.8657,-2.8578,-2.8459,-2.851,-2.8339,-2.8139,-2.7539,-2.6046,-2.4834,-2.3977,-2.2981,-2.1918,-2.1162,-2.085,-4.4225,-4.3547,-4.294,-4.2279,-4.154,-4.0905,-4.0612,-4.052,-4.0489,-4.0489,-4.0489,-4.0489,-4.0489,-4.0489,-4.0489,-4.0489,-4.0489,-4.0489,-4.0489,-4.0489,-4.0489,-4.0489,-4.0489,-4.0489,-4.0489,-4.0489,-4.0489,-3.9535,-3.8412,-3.8038,-3.7126,-3.5804,-3.5225,-3.4654,-3.3283,-3.2897,-3.2354,-3.1272,-3.1024,-3.1024,-3.1024,-3.1024,-3.1024,-3.1024,-3.1024,-3.1024,-3.1024,-3.1024,-3.1024,-3.1024,-3.1024,-3.1024,-3.1024,-3.1024,-3.1024,-3.0898,-3.0672,-3.0444,-3.0368,-3.0126,-2.9908,-2.983,-2.9792,-2.9792,-2.9779,-2.9779,-2.9779,-2.9779,-2.9779,-2.9779,-2.9779,-2.9779,-2.9779,-2.9779,-2.9779,-2.9779,-2.9779,-2.9779,-2.9779,-2.9779,-2.9779,-2.9779,-2.974,-2.974,-2.9779,-2.9779,-2.9779,-2.9779,-2.9779,-2.9779,-2.9779,-2.974,-2.9702,-2.9599,-2.956,-2.9482,-2.9326,-2.9223,-2.9118,-2.8973,-2.8566,-2.8327,-2.8471,-2.8391,-2.8391,-2.8139,-2.7684,-2.6876,-2.5744,-2.4839,-2.4033,-2.3093,-2.2101,-2.1546,-2.0967,-4.3063,-4.2469,-4.2155,-4.1632,-4.0951,-4.0612,-4.0489,-4.0489,-4.0489,-4.0489,-4.0489,-4.0489,-4.0489,-4.0489,-4.0489,-4.0489,-4.0489,-4.0489,-4.0489,-4.0489,-4.0489,-4.0489,-4.0489,-4.0489,-4.0489,-4.0489,-4.0413,-3.9956,-3.8894,-3.8117,-3.7265,-3.6163,-3.5211,-3.4274,-3.3255,-3.2804,-3.1992,-3.1259,-3.1024,-3.1024,-3.1024,-3.1024,-3.1024,-3.1024,-3.1024,-3.1024,-3.1024,-3.1024,-3.1024,-3.1024,-3.1024,-3.1024,-3.1024,-3.1024,-3.1024,-3.0986,-3.0761,-3.0609,-3.052,-3.0164,-3.0011,-2.9934,-2.9856,-2.9779,-2.9779,-2.9779,-2.9779,-2.9779,-2.9779,-2.9779,-2.9779,-2.9779,-2.9779,-2.9779,-2.9779,-2.9779,-2.9779,-2.9779,-2.9779,-2.9779,-2.9779,-2.9779,-2.9779,-2.9779,-2.9779,-2.9779,-2.9779,-2.9779,-2.9779,-2.9779,-2.9779,-2.9779,-2.974,-2.9689,-2.9702,-2.9675,-2.9417,-2.9287,-2.9131,-2.8855,-2.8167,-2.7966,-2.8059,-2.7898,-2.7684,-2.7429,-2.7103,-2.6753,-2.6058,-2.5092,-2.4115,-2.3212,-2.23,-2.1574,-2.1064,-4.1786,-4.1355,-4.1524,-4.1186,-4.0505,-4.0489,-4.0489,-4.0489,-4.0489,-4.0489,-4.0489,-4.0489,-4.0489,-4.0489,-4.0489,-4.0489,-4.0489,-4.0489,-4.0489,-4.0489,-4.0489,-4.0489,-4.0489,-4.0489,-4.0489,-4.0489,-4.0489,-4.0144,-3.9531,-3.8735,-3.7895,-3.672,-3.5144,-3.416,-3.3396,-3.2638,-3.1773,-3.1086,-3.1024,-3.1024,-3.1024,-3.1024,-3.1024,-3.1024,-3.1024,-3.1024,-3.1024,-3.1024,-3.1024,-3.1024,-3.1024,-3.1024,-3.1024,-3.1024,-3.1024,-3.0986,-3.0836,-3.0798,-3.0647,-3.0394,-3.0113,-2.9998,-2.9934,-2.9779,-2.9779,-2.9779,-2.9779,-2.9779,-2.9779,-2.9779,-2.9779,-2.9779,-2.9779,-2.9779,-2.9779,-2.9779,-2.9779,-2.9779,-2.9779,-2.9779,-2.9779,-2.9779,-2.9779,-2.9779,-2.9779,-2.9779,-2.9779,-2.9779,-2.9779,-2.9779,-2.9779,-2.9779,-2.9779,-2.974,-2.974,-2.9714,-2.9468,-2.9182,-2.9064,-2.8566,-2.7753,-2.751,-2.7551,-2.7348,-2.6928,-2.6464,-2.6049,-2.6257,-2.6412,-2.5219,-2.4134,-2.3385,-2.2556,-2.1734,-2.1133,-4.0612,-4.0628,-4.1294,-4.1155,-4.0489,-4.0489,-4.0489,-4.0489,-4.0489,-4.0489,-4.0489,-4.0489,-4.0489,-4.0489,-4.0489,-4.0489,-4.0489,-4.0489,-4.0489,-4.0489,-4.0489,-4.0489,-4.0489,-4.0489,-4.0489,-4.0489,-4.0489,-4.0389,-4.0071,-3.9344,-3.8527,-3.7519,-3.5579,-3.4583,-3.3585,-3.254,-3.169,-3.1123,-3.1024,-3.1024,-3.1024,-3.1024,-3.1024,-3.1024,-3.1024,-3.1024,-3.1024,-3.1024,-3.1024,-3.1024,-3.1024,-3.1024,-3.1024,-3.1024,-3.1024,-3.0986,-3.0986,-3.0911,-3.0798,-3.0457,-3.0088,-2.9908,-2.9792,-2.9779,-2.9779,-2.9779,-2.9779,-2.9779,-2.9779,-2.9779,-2.9779,-2.9779,-2.9779,-2.9779,-2.9779,-2.9779,-2.9779,-2.9779,-2.9779,-2.9779,-2.9779,-2.9779,-2.9779,-2.9779,-2.9779,-2.9779,-2.9779,-2.9779,-2.9779,-2.9779,-2.9779,-2.9779,-2.9779,-2.9779,-2.9779,-2.9585,-2.9209,-2.8803,-2.8514,-2.7903,-2.7133,-2.7051,-2.6969,-2.6464,-2.5997,-2.5495,-2.5126,-2.5495,-2.5495,-2.4914,-2.413,-2.3335,-2.255,-2.1791,-2.1221,-3.949,-3.9905,-4.0216,-4.0366,-4.0489,-4.0489,-4.0489,-4.0489,-4.0489,-4.0489,-4.0489,-4.0489,-4.0489,-4.0489,-4.0489,-4.0489,-4.0489,-4.0489,-4.0489,-4.0489,-4.0489,-4.0489,-4.0489,-4.0489,-4.0489,-4.0489,-4.0489,-4.0489,-4.0328,-3.9719,-3.915,-3.7933,-3.6177,-3.4623,-3.3536,-3.23,-3.1447,-3.1161,-3.1024,-3.1024,-3.1024,-3.1024,-3.1024,-3.1024,-3.1024,-3.1024,-3.1024,-3.1024,-3.1024,-3.1024,-3.1024,-3.1024,-3.1024,-3.1024,-3.1024,-3.1024,-3.1024,-3.0949,-3.0836,-3.0495,-3.0152,-2.9856,-2.9779,-2.9779,-2.9779,-2.9779,-2.9779,-2.9779,-2.9779,-2.9779,-2.9779,-2.9779,-2.9779,-2.9779,-2.9779,-2.9779,-2.9779,-2.9779,-2.9779,-2.9779,-2.9779,-2.9779,-2.9779,-2.9779,-2.9779,-2.9779,-2.9779,-2.9779,-2.9779,-2.9779,-2.9779,-2.9779,-2.9779,-2.9779,-2.9779,-2.9365,-2.887,-2.8422,-2.8011,-2.711,-2.6329,-2.6287,-2.608,-2.5568,-2.5274,-2.5031,-2.4872,-2.4872,-2.4616,-2.4069,-2.3707,-2.3256,-2.2487,-2.1836,-2.1396,-3.8739,-3.9462,-3.9275,-3.9739,-4.0443,-4.0489,-4.0489,-4.0489,-4.0489,-4.0489,-4.0489,-4.0489,-4.0489,-4.0489,-4.0489,-4.0489,-4.0489,-4.0489,-4.0489,-4.0489,-4.0489,-4.0489,-4.0489,-4.0489,-4.0489,-4.0489,-4.0489,-4.0489,-4.0439,-3.9876,-3.92,-3.8266,-3.7058,-3.5432,-3.3528,-3.189,-3.1024,-3.1024,-3.1024,-3.1024,-3.1024,-3.1024,-3.1024,-3.1024,-3.1024,-3.1024,-3.1024,-3.1024,-3.1024,-3.1024,-3.1024,-3.1024,-3.1024,-3.1024,-3.1024,-3.1024,-3.0986,-3.0911,-3.0761,-3.0457,-3.019,-2.9972,-2.983,-2.983,-2.9779,-2.9779,-2.9779,-2.9779,-2.9779,-2.9779,-2.9779,-2.9779,-2.9779,-2.9779,-2.9779,-2.9779,-2.9779,-2.9779,-2.9779,-2.9779,-2.9779,-2.9779,-2.9779,-2.9779,-2.9779,-2.9779,-2.9779,-2.9779,-2.9779,-2.9779,-2.9779,-2.9779,-2.9779,-2.9779,-2.974,-2.9118,-2.849,-2.7999,-2.7383,-2.6141,-2.5526,-2.5442,-2.5115,-2.4435,-2.4274,-2.4531,-2.4402,-2.4145,-2.3734,-2.3309,-2.312,-2.3095,-2.2722,-2.21,-2.1639,-3.8323,-3.9351,-3.8846,-3.9321,-4.0443,-4.0489,-4.0489,-4.0489,-4.0489,-4.0489,-4.0489,-4.0489,-4.0489,-4.0489,-4.0489,-4.0489,-4.0489,-4.0489,-4.0489,-4.0489,-4.0489,-4.0489,-4.0489,-4.0489,-4.0489,-4.0489,-4.0397,-4.0336,-4.0489,-4.006,-3.9291,-3.8164,-3.6988,-3.5789,-3.4028,-3.2018,-3.1075,-3.1024,-3.1024,-3.1024,-3.1024,-3.1086,-3.1161,-3.1024,-3.1161,-3.1222,-3.1024,-3.1024,-3.1024,-3.1024,-3.1024,-3.1024,-3.1024,-3.1024,-3.1024,-3.1024,-3.1024,-3.0986,-3.0911,-3.0419,-3.0152,-3.0011,-2.9869,-2.9779,-2.9779,-2.9779,-2.9779,-2.9779,-2.9779,-2.9779,-2.9779,-2.9779,-2.9779,-2.9779,-2.9779,-2.9779,-2.9779,-2.9779,-2.9779,-2.9779,-2.9779,-2.9779,-2.9779,-2.9779,-2.9779,-2.9779,-2.9779,-2.9779,-2.9779,-2.9779,-2.9779,-2.9779,-2.9779,-2.9779,-2.9611,-2.874,-2.8068,-2.7585,-2.6842,-2.5683,-2.4904,-2.4734,-2.4198,-2.343,-2.3474,-2.3897,-2.3604,-2.3256,-2.3387,-2.356,-2.3178,-2.3027,-2.2695,-2.2393,-2.196,-3.8292,-3.9493,-3.9262,-3.9659,-4.0443,-4.0489,-4.0489,-4.0489,-4.0489,-4.0489,-4.0489,-4.0489,-4.0489,-4.0489,-4.0489,-4.0489,-4.0489,-4.0489,-4.0489,-4.0489,-4.0489,-4.0489,-4.0489,-4.0489,-4.0489,-4.0366,-4.0182,-4.0197,-4.0489,-3.9998,-3.9093,-3.7952,-3.6006,-3.438,-3.3274,-3.1913,-3.1024,-3.1024,-3.1024,-3.1024,-3.1061,-3.1431,-3.1542,-3.1123,-3.1505,-3.1468,-3.1086,-3.1086,-3.1024,-3.1024,-3.1024,-3.1024,-3.1024,-3.1024,-3.1024,-3.1024,-3.0986,-3.0911,-3.0798,-3.0444,-3.0177,-2.9998,-2.9856,-2.9792,-2.9779,-2.9779,-2.9779,-2.9779,-2.9779,-2.9779,-2.9779,-2.9779,-2.9779,-2.9779,-2.9779,-2.9779,-2.9779,-2.9779,-2.9779,-2.9779,-2.9779,-2.9779,-2.9779,-2.9779,-2.9779,-2.9779,-2.9779,-2.9779,-2.9779,-2.9779,-2.9779,-2.9779,-2.9779,-2.9779,-2.9495,-2.87,-2.8187,-2.7855,-2.676,-2.5368,-2.4744,-2.436,-2.3897,-2.3474,-2.3353,-2.3266,-2.3691,-2.4026,-2.4026,-2.3983,-2.3767,-2.3353,-2.2906,-2.2643,-2.2393,-3.8492,-3.9459,-3.949,-3.9874,-4.0443,-4.0489,-4.0489,-4.0489,-4.0489,-4.0489,-4.0489,-4.0489,-4.0489,-4.0489,-4.0489,-4.0489,-4.0489,-4.0489,-4.0489,-4.0489,-4.0489,-4.0489,-4.0489,-4.0489,-4.0489,-4.0336,-4.012,-4.0074,-4.0074,-3.9504,-3.8398,-3.6722,-3.4638,-3.3529,-3.2583,-3.1653,-3.1198,-3.1334,-3.1468,-3.164,-3.1896,-3.2173,-3.2282,-3.2028,-3.1955,-3.1869,-3.1468,-3.1198,-3.1024,-3.1024,-3.1024,-3.1024,-3.1024,-3.1024,-3.1024,-3.1024,-3.0986,-3.0874,-3.0723,-3.052,-3.0216,-2.996,-2.9869,-2.9792,-2.9779,-2.9779,-2.9779,-2.9779,-2.9779,-2.9779,-2.9779,-2.9779,-2.9779,-2.9779,-2.9779,-2.9779,-2.9779,-2.9779,-2.9779,-2.9779,-2.9779,-2.9779,-2.9779,-2.9779,-2.9779,-2.9779,-2.9779,-2.9779,-2.9779,-2.9779,-2.9779,-2.9779,-2.9779,-2.9779,-2.9443,-2.874,-2.8319,-2.8096,-2.683,-2.5358,-2.4861,-2.452,-2.4016,-2.3767,-2.4145,-2.4488,-2.4744,-2.4956,-2.4956,-2.4819,-2.4648,-2.4059,-2.3309,-2.3026,-2.2932,-3.8906,-3.9474,-3.9505,-3.9905,-4.0428,-4.0489,-4.0489,-4.0489,-4.0489,-4.0489,-4.0489,-4.0489,-4.0489,-4.0489,-4.0489,-4.0489,-4.0489,-4.0489,-4.0489,-4.0489,-4.0489,-4.0489,-4.0459,-4.0397,-4.029,-4.032,-4.0059,-3.9413,-3.9428,-3.8923,-3.7684,-3.5874,-3.4258,-3.3143,-3.2232,-3.17,-3.1529,-3.1773,-3.1919,-3.2196,-3.2627,-3.3087,-3.3038,-3.2826,-3.2648,-3.2434,-3.2015,-3.1603,-3.1259,-3.1123,-3.1048,-3.1024,-3.1024,-3.1024,-3.1024,-3.1024,-3.1024,-3.0874,-3.0698,-3.0495,-3.0292,-3.0037,-2.9895,-2.9818,-2.9779,-2.9779,-2.9779,-2.9779,-2.9779,-2.9779,-2.9779,-2.9779,-2.9779,-2.9779,-2.9779,-2.9779,-2.9779,-2.9779,-2.9779,-2.9779,-2.9779,-2.9779,-2.9779,-2.9779,-2.9779,-2.9779,-2.9779,-2.9779,-2.9779,-2.9779,-2.9779,-2.9779,-2.9779,-2.9779,-2.9365,-2.8897,-2.8779,-2.8676,-2.6982,-2.5599,-2.5136,-2.4978,-2.4648,-2.4734,-2.5368,-2.5746,-2.5841,-2.5883,-2.583,-2.5704,-2.5484,-2.4946,-2.4188,-2.3887,-2.3717,-3.9616,-4.0197,-4.0197,-4.032,-4.0474,-4.0489,-4.0489,-4.0489,-4.0489,-4.0489,-4.0489,-4.0489,-4.0489,-4.0489,-4.0489,-4.0489,-4.0489,-4.0489,-4.0489,-4.0489,-4.0489,-4.0489,-4.032,-4.0059,-3.9908,-3.9493,-3.9093,-3.8769,-3.858,-3.8218,-3.6892,-3.4949,-3.4088,-3.3094,-3.2398,-3.1869,-3.2015,-3.2182,-3.229,-3.2791,-3.3318,-3.3782,-3.3665,-3.3457,-3.3478,-3.3234,-3.2826,-3.2123,-3.1773,-3.17,-3.1222,-3.1024,-3.1024,-3.1024,-3.1024,-3.1024,-3.0986,-3.0911,-3.0736,-3.0533,-3.033,-3.0113,-2.9934,-2.9818,-2.9779,-2.9779,-2.9779,-2.9779,-2.9779,-2.9779,-2.9779,-2.9779,-2.9779,-2.9779,-2.9779,-2.9779,-2.9779,-2.9779,-2.9779,-2.9779,-2.9779,-2.9779,-2.9779,-2.9779,-2.9779,-2.9779,-2.9779,-2.9779,-2.9779,-2.9779,-2.9779,-2.9779,-2.9779,-2.9779,-2.9702,-2.9314,-2.9314,-2.9015,-2.7452,-2.6461,-2.6532,-2.6295,-2.5694,-2.5746,-2.64,-2.6659,-2.6805,-2.6805,-2.6753,-2.6505,-2.6246,-2.5704,-2.52,-2.4893,-2.4798,-4.012,-4.0474,-4.0489,-4.0489,-4.0489,-4.0489,-4.0489,-4.0489,-4.0489,-4.0489,-4.0489,-4.0489,-4.0489,-4.0489,-4.0489,-4.0489,-4.0489,-4.0489,-4.0489,-4.0489,-4.0459,-4.0259,-3.9997,-3.9659,-3.9382,-3.8877,-3.8446,-3.82,-3.7937,-3.7284,-3.6082,-3.4835,-3.4157,-3.3465,-3.2861,-3.2577,-3.2791,-3.2918,-3.3129,-3.3457,-3.3953,-3.4476,-3.4341,-3.4206,-3.4394,-3.3973,-3.3561,-3.2755,-3.2182,-3.2015,-3.1394,-3.1024,-3.1024,-3.1024,-3.1024,-3.1024,-3.0986,-3.0949,-3.0798,-3.0533,-3.0381,-3.019,-2.9972,-2.9818,-2.9779,-2.9779,-2.9779,-2.9779,-2.9779,-2.9779,-2.9779,-2.9779,-2.9779,-2.9779,-2.9779,-2.9779,-2.9779,-2.9779,-2.9779,-2.9779,-2.9779,-2.9779,-2.9779,-2.9779,-2.9779,-2.9779,-2.9779,-2.9779,-2.9779,-2.9779,-2.9779,-2.9779,-2.9779,-2.9779,-2.9702,-2.965,-2.9611,-2.9365,-2.845,-2.7747,-2.7896,-2.7654,-2.7017,-2.711,-2.7487,-2.758,-2.7551,-2.7684,-2.7632,-2.7348,-2.7214,-2.6999,-2.6494,-2.5872,-2.5861,-4.0489,-4.0489,-4.0489,-4.0489,-4.0489,-4.0489,-4.0489,-4.0489,-4.0489,-4.0489,-4.0489,-4.0489,-4.0489,-4.0489,-4.0489,-4.0489,-4.0489,-4.0489,-4.0366,-4.0413,-4.0274,-3.9997,-3.9505,-3.9308,-3.8785,-3.8523,-3.8169,-3.76,-3.7275,-3.6638,-3.5774,-3.489,-3.4658,-3.3973,-3.3143,-3.3234,-3.3561,-3.4124,-3.4259,-3.4524,-3.5067,-3.5424,-3.5457,-3.5279,-3.4872,-3.4394,-3.4041,-3.3234,-3.2182,-3.1942,-3.1505,-3.1048,-3.1024,-3.1024,-3.1024,-3.1024,-3.1024,-3.0986,-3.0874,-3.0647,-3.0495,-3.0305,-3.0088,-2.9934,-2.9895,-2.983,-2.9792,-2.9779,-2.9779,-2.9779,-2.9779,-2.9779,-2.9779,-2.9779,-2.9779,-2.9779,-2.9779,-2.9779,-2.9779,-2.9779,-2.9779,-2.9779,-2.9779,-2.9779,-2.9779,-2.9779,-2.9779,-2.9779,-2.9779,-2.9779,-2.9779,-2.9779,-2.9779,-2.9779,-2.9779,-2.974,-2.974,-2.9417,-2.8831,-2.8673,-2.8609,-2.849,-2.8343,-2.8223,-2.8103,-2.8247,-2.8299,-2.8259,-2.8219,-2.8179,-2.8099,-2.8339,-2.7886,-2.6958,-2.6917,-4.0489,-4.0489,-4.0489,-4.0489,-4.0489,-4.0489,-4.0474,-4.0489,-4.0489,-4.0443,-4.0489,-4.0474,-4.0489,-4.0489,-4.0489,-4.0489,-4.0489,-4.0351,-4.0151,-3.9905,-3.9767,-3.9351,-3.8754,-3.8385,-3.7984,-3.7631,-3.7292,-3.703,-3.6752,-3.6049,-3.519,-3.4197,-3.4211,-3.4022,-3.3422,-3.3699,-3.4409,-3.5019,-3.5085,-3.5166,-3.5424,-3.5489,-3.5457,-3.5457,-3.5166,-3.5052,-3.4591,-3.3748,-3.3108,-3.2791,-3.1603,-3.1123,-3.1024,-3.1024,-3.1024,-3.1024,-3.1024,-3.1024,-3.0949,-3.0761,-3.0609,-3.0533,-3.0394,-3.0203,-3.0049,-2.9908,-2.9792,-2.9792,-2.9779,-2.9779,-2.9779,-2.9779,-2.9779,-2.9779,-2.9779,-2.9779,-2.9779,-2.9779,-2.9779,-2.9779,-2.9779,-2.9779,-2.9779,-2.9779,-2.9779,-2.9779,-2.9779,-2.9779,-2.9779,-2.9779,-2.9779,-2.9779,-2.9779,-2.9779,-2.9779,-2.9779,-2.9779,-2.9585,-2.9079,-2.9079,-2.9236,-2.891,-2.8633,-2.8645,-2.8605,-2.859,-2.851,-2.8471,-2.8471,-2.851,-2.851,-2.851,-2.851,-2.7846,-2.7966,-4.0681,-4.0922,-4.0956,-4.0734,-4.0462,-4.0182,-4.0043,-3.9997,-3.9736,-3.9631,-3.9751,-4.0166,-4.0489,-4.0489,-4.0489,-4.0459,-4.0397,-4.0136,-3.9874,-3.9536,-3.9059,-3.8646,-3.8108,-3.7631,-3.7353,-3.703,-3.6753,-3.6507,-3.6414,-3.6148,-3.5417,-3.4432,-3.4394,-3.4361,-3.3905,-3.4409,-3.5019,-3.5457,-3.5489,-3.5489,-3.5489,-3.5489,-3.5489,-3.5489,-3.5457,-3.5344,-3.4658,-3.3782,-3.3192,-3.2591,-3.1542,-3.1123,-3.1024,-3.1024,-3.1024,-3.1024,-3.1024,-3.1024,-3.0949,-3.0836,-3.0736,-3.066,-3.0533,-3.0305,-3.0126,-2.9972,-2.9856,-2.9856,-2.9779,-2.9779,-2.9779,-2.9779,-2.9779,-2.9779,-2.9779,-2.9779,-2.9779,-2.9779,-2.9779,-2.9779,-2.9779,-2.9779,-2.9779,-2.9779,-2.9779,-2.9779,-2.9779,-2.9779,-2.9779,-2.9779,-2.9779,-2.9779,-2.9779,-2.9779,-2.9779,-2.9779,-2.9779,-2.9534,-2.9287,-2.9326,-2.9353,-2.9079,-2.8882,-2.8764,-2.8657,-2.855,-2.851,-2.851,-2.851,-2.851,-2.851,-2.851,-2.851,-2.851,-2.8431,-4.0559,-4.1075,-4.116,-4.0843,-4.022,-3.9613,-3.9351,-3.9308,-3.8752,-3.8569,-3.8739,-3.9721,-4.0197,-4.0366,-4.0366,-4.0366,-4.0213,-3.9844,-3.9551,-3.9,-3.86,-3.8,-3.76,-3.7277,-3.6969,-3.6738,-3.6538,-3.6492,-3.6492,-3.6116,-3.5672,-3.5187,-3.5187,-3.5302,-3.4843,-3.4971,-3.5489,-3.5489,-3.5489,-3.5489,-3.5489,-3.5489,-3.5489,-3.5489,-3.5424,-3.5052,-3.4327,-3.3581,-3.2861,-3.216,-3.1468,-3.1161,-3.1024,-3.1024,-3.1024,-3.1024,-3.1024,-3.1024,-3.0986,-3.0874,-3.0798,-3.0698,-3.052,-3.0368,-3.019,-3.0075,-2.996,-2.9895,-2.9818,-2.9779,-2.9779,-2.9779,-2.9779,-2.9779,-2.9779,-2.9779,-2.9779,-2.9779,-2.9779,-2.9779,-2.9779,-2.9779,-2.9779,-2.9779,-2.9779,-2.9779,-2.9779,-2.9779,-2.9779,-2.9779,-2.9779,-2.9779,-2.9779,-2.9779,-2.9779,-2.9779,-2.9779,-2.974,-2.9534,-2.9521,-2.9431,-2.9118,-2.8882,-2.8803,-2.8657,-2.855,-2.851,-2.851,-2.851,-2.851,-2.851,-2.851,-2.851,-2.851,-2.851,-3.9106,-3.9092,-3.9612,-3.9467,-3.8926,-3.8754,-3.8708,-3.8677,-3.8554,-3.8508,-3.8477,-3.8677,-3.9121,-3.9659,-3.9674,-3.9674,-3.9662,-3.9351,-3.8646,-3.7923,-3.7831,-3.7307,-3.6938,-3.6876,-3.6645,-3.6538,-3.6492,-3.6492,-3.646,-3.599,-3.5415,-3.4924,-3.4975,-3.4942,-3.4595,-3.4971,-3.5489,-3.5489,-3.5489,-3.5489,-3.5489,-3.5489,-3.5489,-3.5489,-3.5489,-3.4971,-3.4361,-3.3581,-3.2861,-3.2123,-3.1431,-3.1123,-3.1024,-3.1024,-3.1024,-3.1024,-3.1024,-3.1024,-3.0949,-3.0949,-3.0874,-3.0874,-3.0723,-3.0533,-3.0343,-3.0177,-3.0037,-2.9895,-2.9818,-2.9818,-2.9818,-2.9779,-2.9779,-2.9779,-2.9779,-2.9779,-2.9779,-2.9779,-2.9779,-2.9779,-2.9779,-2.9779,-2.9779,-2.9779,-2.9779,-2.9779,-2.9779,-2.9779,-2.9779,-2.9779,-2.9779,-2.9779,-2.9779,-2.9779,-2.9779,-2.9779,-2.9779,-2.9779,-2.9702,-2.9534,-2.9314,-2.9028,-2.8831,-2.8724,-2.8618,-2.851,-2.851,-2.851,-2.851,-2.851,-2.851,-2.851,-2.851,-2.851,-2.851]},{"header":{"parameterUnit":"m.s-1","parameterCategory":1,"la1":31.0,"la2":29.5877,"lo1":-88.7671,"lo2":-86.6584,"dy":0.0162,"dx":0.0185,"nx":115,"ny":88,"refTime":"2024-05-23T18:00:00:Z","depth":0,"parameterNumber":3,"parameterNumberName":"V-component_of_WINDS"},"data":[0.0,0.0,0.0,0.0,0.0,0.0,0.0,0.0,0.0,0.0,0.0,0.0,0.0,0.0,0.0,0.0,0.0,0.0,0.0,0.0,0.0,0.0,0.0,0.0,0.0,0.0,0.0,0.0,0.0,0.0,0.0,0.0,0.0,0.0,0.0,0.0,0.0,0.0,0.0,0.0,0.0,0.0,0.0,0.0,0.0,0.0,0.0,0.0,0.0,0.0,0.0,0.0,0.0,0.0,0.0,0.0,0.0,0.0,0.0,0.0,0.0,0.0,0.0,0.0,0.0,0.0,0.0,0.0,0.0,0.0,0.0,0.0,0.0,0.0,0.0,0.0,0.0,0.0,0.0,0.0,0.0,0.0,0.0,0.0,0.0,0.0,0.0,0.0,0.0,0.0,0.0,0.0,0.0,0.0,0.0,0.0,0.0,0.0,0.0,0.0,0.0,0.0,0.0,0.0,0.0,0.0,0.0,0.0,0.0,0.0,0.0,0.0,0.0,0.0,0.0,0.0,0.0,0.0,0.0,0.0,0.0,0.0,0.0,0.0,0.0,0.0,0.0,0.0,0.0,0.0,0.0,0.0,0.0,0.0,0.0,0.0,0.0,0.0,0.0,0.0,0.0,0.0,0.0,0.0,0.0,0.0,0.0,0.0,0.0,0.0,0.0,0.0,0.0,0.0,0.0,0.0,0.0,0.0,0.0,0.0,0.0,0.0,0.0,0.0,0.0,0.0,0.0,0.0,0.0,0.0,0.0,0.0,0.0,0.0,0.0,0.0,0.0,0.0,0.0,0.0,0.0,0.0,0.0,0.0,0.0,0.0,0.0,0.0,0.0,0.0,0.0,0.0,0.0,0.0,0.0,0.0,0.0,0.0,0.0,0.0,0.0,0.0,0.0,0.0,0.0,0.0,0.0,0.0,0.0,0.0,0.0,0.0,0.0,0.0,0.0,0.0,0.0,0.0,0.0,0.0,0.0,0.0,0.0,0.0,0.0,0.0,0.0,0.0,0.0,0.0,0.0,0.0,0.0,0.0,0.0,0.0,0.0,0.0,0.0,0.0,0.0,0.0,0.0,0.0,0.0,0.0,0.0,0.0,0.0,0.0,0.0,0.0,0.0,0.0,0.0,0.0,0.0,0.0,0.0,0.0,0.0,0.0,0.0,0.0,0.0,0.0,0.0,0.0,0.0,0.0,0.0,0.0,0.0,0.0,0.0,0.0,0.0,0.0,0.0,0.0,0.0,0.0,0.0,0.0,0.0,0.0,0.0,0.0,0.0,0.0,0.0,0.0,0.0,0.0,0.0,0.0,0.0,0.0,0.0,0.0,0.0,0.0,0.0,0.0,0.0,0.0,0.0,0.0,0.0,0.0,0.0,0.0,0.0,0.0,0.0,0.0,0.0,0.0,0.0,0.0,0.0,0.0,0.0,0.0,0.0,0.0,0.0,0.0,0.0,0.0,0.0,0.0,0.0,0.0,0.0,0.0,0.0,0.0,0.0,0.0,0.0,0.0,0.0,0.0,0.0,0.0,0.0,0.0,0.0,0.0,0.0,0.0,0.0,0.0,0.0,0.0,0.0,0.0,0.0,0.0,0.0,0.0,0.0,0.0,0.0,0.0,0.0,0.0,0.0,0.0,0.0,0.0,0.0,0.0,0.0,0.0,0.0,0.0,0.0,0.0,0.0,0.0,0.0,0.0,0.0,0.0,0.0,0.0,0.0,0.0,0.0,0.0,0.0,0.0,0.0,0.0,0.0,0.0,0.0,0.0,0.0,0.0,0.0,0.0,0.0,0.0,0.0,0.0,0.0,0.0,0.0,0.0,0.0,0.0,0.0,0.0,0.0,0.0,0.0,0.0,0.0,0.0,0.0,0.0,0.0,0.0,0.0,0.0,0.0,0.0,0.0,0.0,0.0,0.0,0.0,0.0,0.0,0.0,0.0,0.0,0.0,0.0,0.0,0.0,0.0,0.0,0.0,0.0,0.0,0.0,0.0,0.0,0.0,0.0,0.0,0.0,0.0,0.0,0.0,0.0,0.0,0.0,0.0,0.0,0.0,0.0,0.0,0.0,0.0,0.0,0.0,0.0,0.0,0.0,0.0,0.0,0.0,0.0,0.0,0.0,0.0,0.0,0.0,0.0,0.0,0.0,0.0,0.0,0.0,0.0,0.0,0.0,0.0,0.0,0.0,0.0,0.0,0.0,0.0,0.0,0.0,0.0,0.0,0.0,0.0,0.0,0.0,0.0,0.0,0.0,0.0,0.0,0.0,0.0,0.0,0.0,0.0,0.0,0.0,0.0,0.0,0.0,0.0,0.0,0.0,0.0,0.0,0.0,0.0,0.0,0.0,0.0,0.0,0.0,0.0,0.0,0.0,0.0,0.0,0.0,0.0,0.0,0.0,0.0,0.0,0.0,0.0,0.0,0.0,0.0,0.0,0.0,0.0,0.0,0.0,0.0,0.0,0.0,0.0,0.0,0.0,0.0,0.0,0.0,0.0,0.0,0.0,0.0,0.0,0.0,0.0,0.0,0.0,0.0,0.0,0.0,0.0,0.0,0.0,0.0,0.0,0.0,0.0,0.0,0.0,0.0,0.0,0.0,0.0,0.0,0.0,0.0,0.0,0.0,0.0,0.0,0.0,0.0,0.0,0.0,0.0,0.0,0.0,0.0,0.0,0.0,0.0,0.0,0.0,0.0,0.0,0.0,0.0,0.0,0.0,0.0,0.0,0.0,0.0,0.0,0.0,0.0,0.0,0.0,0.0,0.0,0.0,0.0,0.0,0.0,0.0,0.0,0.0,0.0,0.0,0.0,0.0,0.0,0.0,0.0,0.0,0.0,0.0,0.0,0.0,0.0,0.0,0.0,0.0,0.0,0.0,0.0,0.0,0.0,0.0,0.0,0.0,0.0,0.0,0.0,0.0,0.0,0.0,0.0,0.0,0.0,0.0,0.0,0.0,0.0,0.0,0.0,0.0,0.0,0.0,0.0,0.0,0.0,0.0,0.0,0.0,0.0,0.0,0.0,0.0,0.0,0.0,0.0,0.0,0.0,0.0,0.0,0.0,0.0,0.0,0.0,0.0,0.0,0.0,0.0,0.0,0.0,0.0,0.0,0.0,0.0,0.0,0.0,0.0,0.0,0.0,0.0,0.0,0.0,0.0,0.0,0.0,0.0,0.0,0.0,0.0,0.0,0.0,0.0,0.0,0.0,0.0,0.0,0.0,0.0,0.0,0.0,0.0,0.0,0.0,0.0,0.0,0.0,0.0,0.0,0.0,0.0,0.0,0.0,0.0,0.0,0.0,0.0,0.0,0.0,0.0,0.0,0.0,0.0,0.0,0.0,0.0,0.0,0.0,0.0,0.0,0.0,0.0,0.0,0.0,0.0,0.0,0.0,0.0,0.0,0.0,0.0,0.0,0.0,0.0,0.0,0.0,0.0,0.0,0.0,0.0,0.0,0.0,0.0,0.0,0.0,0.0,0.0,0.0,0.0,0.0,0.0,0.0,0.0,0.0,0.0,0.0,0.0,0.0,0.0,0.0,0.0,0.0,0.0,0.0,0.0,0.0,0.0,0.0,0.0,0.0,0.0,0.0,0.0,0.0,0.0,0.0,0.0,0.0,0.0,0.0,0.0,0.0,0.0,0.0,0.0,0.0,0.0,0.0,0.0,0.0,0.0,0.0,0.0,0.0,0.0,0.0,0.0,0.0,0.0,0.0,0.0,0.0,0.0,0.0,0.0,0.0,0.0,0.0,0.0,0.0,0.0,0.0,0.0,0.0,0.0,0.0,0.0,0.0,0.0,0.0,0.0,0.0,0.0,0.0,0.0,0.0,0.0,0.0,0.0,0.0,0.0,0.0,0.0,0.0,0.0,0.0,0.0,0.0,0.0,0.0,0.0,0.0,0.0,0.0,0.0,0.0,0.0,0.0,0.0,0.0,0.0,0.0,0.0,0.0,0.0,0.0,0.0,0.0,0.0,0.0,0.0,0.0,0.0,0.0,0.0,0.0,0.0,0.0,0.0,0.0,0.0,0.0,0.0,0.0,0.0,0.0,0.0,0.0,0.0,0.0,0.0,0.0,0.0,0.0,0.0,0.0,0.0,0.0,0.0,0.0,0.0,0.0,0.0,0.0,0.0,0.0,0.0,0.0,0.0,0.0,0.0,0.0,0.0,0.0,0.0,0.0,0.0,0.0,0.0,0.0,0.0,0.0,0.0,0.0,0.0,0.0,0.0,0.0,0.0,0.0,0.0,0.0,0.0,0.0,0.0,-1.3553,0.0,0.0,0.0,0.0,0.0,0.0,0.0,0.0,0.0,0.0,0.0,0.0,0.0,0.0,0.0,0.0,0.0,0.0,0.0,0.0,0.0,0.0,0.0,0.0,0.0,0.0,0.0,0.0,0.0,0.0,0.0,0.0,0.0,0.0,0.0,0.0,0.0,0.0,0.0,0.0,0.0,0.0,0.0,0.0,0.0,0.0,0.0,0.0,0.0,0.0,0.0,0.0,0.0,0.0,0.0,0.0,0.0,0.0,0.0,0.0,0.0,0.0,0.0,0.0,0.0,0.0,0.0,0.0,0.0,0.0,0.0,0.0,0.0,0.0,0.0,0.0,0.0,0.0,0.0,0.0,0.0,0.0,0.0,0.0,0.0,0.0,0.0,0.0,0.0,0.0,0.0,0.0,0.0,0.0,0.0,0.0,0.0,0.0,0.0,0.0,0.0,0.0,0.0,0.0,0.0,0.0,0.0,0.0,0.0,0.0,-1.4463,-1.4217,-1.4438,-1.4479,-1.4313,0.0,0.0,0.0,0.0,0.0,0.0,0.0,0.0,0.0,0.0,0.0,0.0,0.0,0.0,0.0,0.0,0.0,0.0,0.0,0.0,0.0,0.0,0.0,0.0,0.0,0.0,0.0,0.0,0.0,0.0,0.0,0.0,0.0,0.0,0.0,0.0,0.0,0.0,0.0,0.0,0.0,0.0,0.0,0.0,0.0,0.0,0.0,0.0,0.0,0.0,0.0,0.0,0.0,0.0,0.0,0.0,0.0,0.0,0.0,0.0,0.0,0.0,0.0,0.0,0.0,0.0,0.0,0.0,0.0,0.0,0.0,0.0,0.0,0.0,0.0,0.0,0.0,0.0,0.0,0.0,0.0,0.0,0.0,0.0,0.0,0.0,0.0,0.0,0.0,0.0,0.0,0.0,0.0,0.0,0.0,0.0,0.0,0.0,0.0,0.0,0.0,0.0,0.0,0.0,0.0,0.0,0.0,0.0,0.0,0.0,0.0,0.0,-1.5099,-1.5363,-1.5146,0.0,0.0,0.0,0.0,0.0,0.0,0.0,0.0,0.0,0.0,0.0,0.0,0.0,0.0,0.0,0.0,0.0,0.0,0.0,0.0,0.0,0.0,0.0,0.0,0.0,0.0,0.0,0.0,0.0,0.0,0.0,0.0,0.0,0.0,0.0,0.0,0.0,0.0,0.0,0.0,0.0,0.0,0.0,0.0,0.0,0.0,0.0,0.0,0.0,0.0,0.0,0.0,0.0,0.0,0.0,0.0,0.0,0.0,0.0,0.0,0.0,0.0,0.0,0.0,0.0,0.0,0.0,0.0,0.0,0.0,0.0,0.0,0.0,0.0,0.0,0.0,0.0,0.0,0.0,0.0,0.0,0.0,0.0,0.0,0.0,0.0,0.0,0.0,0.0,0.0,0.0,0.0,0.0,0.0,0.0,0.0,0.0,0.0,0.0,0.0,0.0,0.0,0.0,0.0,0.0,0.0,0.0,0.0,0.0,0.0,-1.4968,-1.5202,-1.5738,0.0,-1.6107,0.0,0.0,0.0,0.0,0.0,0.0,0.0,0.0,0.0,0.0,0.0,0.0,0.0,0.0,0.0,0.0,0.0,0.0,0.0,0.0,0.0,0.0,0.0,0.0,0.0,0.0,0.0,0.0,0.0,0.0,0.0,0.0,0.0,0.0,0.0,0.0,0.0,0.0,0.0,0.0,0.0,0.0,0.0,0.0,0.0,0.0,0.0,0.0,0.0,0.0,0.0,0.0,0.0,0.0,0.0,0.0,0.0,0.0,0.0,0.0,0.0,0.0,0.0,0.0,0.0,0.0,0.0,0.0,0.0,0.0,0.0,0.0,0.0,0.0,0.0,0.0,0.0,0.0,0.0,0.0,0.0,0.0,0.0,0.0,0.0,0.0,0.0,0.0,0.0,0.0,0.0,0.0,0.0,0.0,0.0,0.0,0.0,0.0,0.0,0.0,0.0,0.0,0.0,0.0,0.0,0.0,0.0,0.0,0.0,0.0,-1.498,-1.5624,-1.5949,-1.6114,0.0,0.0,0.0,0.0,0.0,0.0,0.0,0.0,0.0,0.0,0.0,0.0,0.0,0.0,0.0,0.0,0.0,0.0,0.0,0.0,0.0,0.0,0.0,0.0,0.0,0.0,0.0,0.0,0.0,0.0,0.0,0.0,0.0,0.0,0.0,0.0,0.0,0.0,0.0,0.0,0.0,0.0,0.0,0.0,0.0,0.0,0.0,0.0,0.0,0.0,0.0,0.0,0.0,0.0,0.0,0.0,0.0,0.0,0.0,0.0,0.0,0.0,0.0,0.0,0.0,0.0,0.0,0.0,0.0,0.0,0.0,0.0,0.0,0.0,0.0,0.0,0.0,0.0,0.0,0.0,0.0,0.0,0.0,0.0,0.0,0.0,0.0,0.0,0.0,0.0,0.0,0.0,0.0,0.0,0.0,0.0,0.0,0.0,0.0,0.0,0.0,0.0,0.0,0.0,0.0,0.0,0.0,0.0,0.0,0.0,-1.486,-1.5263,-1.6125,-1.6286,-1.618,-1.5867,0.0,0.0,0.0,0.0,0.0,0.0,0.0,0.0,0.0,0.0,0.0,0.0,0.0,0.0,0.0,0.0,0.0,0.0,0.0,0.0,0.0,0.0,0.0,0.0,0.0,0.0,0.0,0.0,0.0,0.0,0.0,0.0,0.0,0.0,0.0,0.0,0.0,0.0,0.0,0.0,0.0,0.0,0.0,0.0,0.0,0.0,0.0,0.0,0.0,0.0,0.0,0.0,0.0,0.0,0.0,0.0,0.0,0.0,0.0,0.0,0.0,0.0,0.0,0.0,0.0,0.0,0.0,0.0,0.0,0.0,0.0,0.0,0.0,0.0,0.0,0.0,0.0,0.0,0.0,0.0,0.0,0.0,0.0,0.0,0.0,0.0,0.0,0.0,0.0,0.0,0.0,0.0,0.0,0.0,0.0,0.0,0.0,0.0,0.0,0.0,0.0,0.0,0.0,0.0,0.0,0.0,0.0,0.0,0.0,-1.5862,-1.6106,-1.6821,-1.6898,-1.6422,0.0,0.0,0.0,0.0,0.0,0.0,0.0,0.0,0.0,0.0,0.0,0.0,0.0,0.0,0.0,0.0,0.0,0.0,0.0,0.0,0.0,0.0,0.0,0.0,0.0,0.0,0.0,0.0,0.0,0.0,0.0,0.0,0.0,0.0,0.0,0.0,0.0,0.0,0.0,0.0,0.0,0.0,0.0,0.0,0.0,0.0,0.0,0.0,0.0,0.0,0.0,0.0,0.0,0.0,0.0,0.0,0.0,0.0,0.0,0.0,0.0,0.0,0.0,0.0,0.0,0.0,0.0,0.0,0.0,0.0,0.0,0.0,0.0,0.0,0.0,0.0,0.0,0.0,0.0,0.0,0.0,0.0,0.0,0.0,0.0,0.0,0.0,0.0,0.0,0.0,0.0,0.0,0.0,0.0,0.0,0.0,0.0,0.0,0.0,0.0,0.0,0.0,0.0,0.0,0.0,0.0,0.0,0.0,0.0,-1.4709,-1.5394,-1.6261,-1.7273,-1.6718,-1.6127,0.0,0.0,0.0,0.0,0.0,0.0,0.0,0.0,0.0,0.0,0.0,0.0,0.0,0.0,0.0,0.0,0.0,0.0,0.0,0.0,0.0,0.0,0.0,0.0,0.0,0.0,0.0,0.0,0.0,0.0,0.0,0.0,0.0,0.0,0.0,0.0,0.0,0.0,0.0,0.0,0.0,0.0,0.0,0.0,0.0,0.0,0.0,0.0,0.0,0.0,0.0,0.0,0.0,0.0,0.0,0.0,0.0,0.0,0.0,0.0,0.0,0.0,0.0,0.0,0.0,0.0,0.0,0.0,0.0,0.0,0.0,0.0,0.0,0.0,0.0,0.0,0.0,0.0,0.0,0.0,0.0,0.0,0.0,0.0,0.0,0.0,0.0,0.0,0.0,0.0,0.0,0.0,0.0,0.0,0.0,0.0,0.0,0.0,0.0,0.0,0.0,0.0,0.0,0.0,0.0,0.0,0.0,0.0,0.0,-1.4779,0.0,-1.6631,0.0,-1.6639,-1.5996,0.0,0.0,0.0,0.0,0.0,0.0,0.0,0.0,0.0,0.0,0.0,0.0,0.0,0.0,0.0,0.0,0.0,0.0,0.0,0.0,0.0,0.0,0.0,0.0,0.0,0.0,0.0,0.0,0.0,0.0,0.0,0.0,0.0,0.0,0.0,0.0,0.0,0.0,0.0,0.0,0.0,0.0,0.0,0.0,0.0,0.0,0.0,0.0,0.0,0.0,0.0,0.0,0.0,0.0,0.0,0.0,0.0,0.0,0.0,0.0,0.0,0.0,0.0,0.0,0.0,0.0,0.0,0.0,0.0,0.0,0.0,0.0,0.0,0.0,0.0,0.0,0.0,0.0,0.0,0.0,0.0,0.0,0.0,0.0,0.0,0.0,0.0,0.0,0.0,0.0,0.0,0.0,0.0,0.0,0.0,0.0,0.0,0.0,0.0,0.0,0.0,0.0,0.0,0.0,0.0,0.0,0.0,0.0,-1.5084,-1.6578,-1.7211,-1.7295,-1.6765,-1.6823,-1.6009,0.0,0.0,0.0,0.0,0.0,0.0,0.0,0.0,0.0,0.0,0.0,0.0,0.0,0.0,0.0,0.0,0.0,0.0,0.0,0.0,0.0,0.0,0.0,0.0,0.0,0.0,0.0,0.0,0.0,0.0,0.0,0.0,0.0,0.0,0.0,0.0,0.0,0.0,0.0,0.0,0.0,0.0,0.0,0.0,0.0,0.0,0.0,0.0,0.0,0.0,0.0,0.0,0.0,0.0,0.0,0.0,0.0,0.0,0.0,0.0,0.0,0.0,0.0,0.0,0.0,0.0,0.0,0.0,0.0,0.0,0.0,0.0,0.0,0.0,0.0,0.0,0.0,0.0,0.0,0.0,0.0,0.0,0.0,0.0,0.0,0.0,0.0,0.0,0.0,0.0,0.0,0.0,0.0,0.0,0.0,0.0,0.0,0.0,0.0,0.0,0.0,0.0,0.0,0.0,0.0,0.0,0.0,0.0,0.0,-1.544,-1.6845,-1.7698,-1.7899,-1.6866,-1.621,0.0,0.0,0.0,0.0,0.0,0.0,0.0,0.0,0.0,0.0,0.0,0.0,0.0,0.0,0.0,0.0,0.0,0.0,0.0,0.0,0.0,0.0,0.0,0.0,0.0,0.0,0.0,0.0,0.0,0.0,0.0,0.0,0.0,0.0,0.0,0.0,0.0,0.0,0.0,0.0,0.0,0.0,0.0,0.0,0.0,0.0,0.0,0.0,0.0,0.0,0.0,0.0,0.0,0.0,0.0,0.0,0.0,0.0,0.0,0.0,0.0,0.0,0.0,0.0,0.0,0.0,0.0,0.0,0.0,0.0,0.0,0.0,0.0,0.0,0.0,0.0,0.0,0.0,0.0,0.0,0.0,0.0,0.0,0.0,0.0,0.0,0.0,0.0,0.0,0.0,0.0,0.0,0.0,0.0,0.0,0.0,0.0,0.0,0.0,0.0,0.0,0.0,0.0,0.0,0.0,0.0,0.0,0.0,0.0,-1.6617,-1.7899,-1.8582,-1.8498,-1.7543,-1.6995,-1.6875,0.0,0.0,0.0,0.0,0.0,0.0,0.0,0.0,0.0,0.0,0.0,0.0,0.0,0.0,0.0,0.0,0.0,0.0,0.0,0.0,0.0,0.0,0.0,0.0,0.0,0.0,0.0,0.0,0.0,0.0,0.0,0.0,0.0,0.0,0.0,0.0,0.0,0.0,0.0,0.0,0.0,0.0,0.0,0.0,0.0,0.0,0.0,0.0,0.0,0.0,0.0,0.0,0.0,0.0,0.0,0.0,0.0,0.0,0.0,0.0,0.0,0.0,0.0,0.0,0.0,0.0,0.0,0.0,0.0,0.0,0.0,0.0,0.0,0.0,0.0,0.0,0.0,0.0,0.0,0.0,0.0,0.0,0.0,0.0,0.0,0.0,0.0,0.0,0.0,0.0,0.0,0.0,0.0,0.0,0.0,0.0,0.0,0.0,0.0,0.0,0.0,0.0,0.0,0.0,0.0,0.0,0.0,0.0,-1.9564,-2.0245,-2.0021,-1.8793,-1.882,-1.8294,0.0,0.0,0.0,0.0,0.0,0.0,0.0,0.0,0.0,0.0,0.0,0.0,0.0,0.0,0.0,0.0,0.0,0.0,0.0,0.0,0.0,0.0,0.0,0.0,0.0,0.0,0.0,0.0,0.0,0.0,0.0,0.0,0.0,0.0,0.0,0.0,0.0,0.0,0.0,0.0,0.0,0.0,0.0,0.0,0.0,0.0,0.0,0.0,0.0,0.0,0.0,0.0,0.0,0.0,0.0,0.0,0.0,0.0,0.0,0.0,0.0,0.0,0.0,0.0,0.0,0.0,0.0,0.0,0.0,0.0,0.0,0.0,0.0,0.0,0.0,0.0,0.0,0.0,0.0,0.0,0.0,0.0,0.0,0.0,0.0,0.0,0.0,0.0,0.0,0.0,0.0,0.0,0.0,0.0,0.0,0.0,0.0,0.0,0.0,0.0,0.0,0.0,0.0,0.0,0.0,0.0,0.0,0.0,0.0,-2.1454,-2.2559,-2.2531,-2.1279,-2.0075,-1.9296,0.0,0.0,0.0,0.0,0.0,0.0,0.0,0.0,0.0,0.0,0.0,0.0,0.0,0.0,0.0,0.0,0.0,0.0,0.0,0.0,0.0,0.0,0.0,0.0,0.0,0.0,0.0,0.0,0.0,0.0,0.0,0.0,0.0,0.0,0.0,0.0,0.0,0.0,0.0,0.0,0.0,0.0,0.0,0.0,0.0,0.0,0.0,0.0,0.0,0.0,0.0,0.0,0.0,0.0,0.0,0.0,0.0,0.0,0.0,0.0,0.0,0.0,0.0,0.0,0.0,0.0,0.0,0.0,0.0,0.0,0.0,0.0,0.0,0.0,0.0,0.0,0.0,0.0,0.0,0.0,0.0,0.0,0.0,0.0,0.0,0.0,0.0,0.0,0.0,0.0,0.0,0.0,0.0,0.0,0.0,0.0,0.0,0.0,0.0,0.0,0.0,0.0,0.0,0.0,0.0,0.0,0.0,0.0,-2.1504,-2.2967,-2.4446,-2.4767,-2.3758,-2.2098,-2.099,0.0,0.0,0.0,0.0,0.0,0.0,0.0,0.0,0.0,0.0,0.0,0.0,0.0,0.0,0.0,0.0,0.0,0.0,0.0,0.0,0.0,0.0,0.0,0.0,0.0,0.0,0.0,0.0,0.0,0.0,0.0,0.0,0.0,0.0,0.0,0.0,0.0,0.0,0.0,0.0,0.0,0.0,0.0,0.0,0.0,0.0,0.0,0.0,0.0,0.0,0.0,0.0,0.0,0.0,0.0,0.0,0.0,0.0,0.0,0.0,0.0,0.0,0.0,0.0,0.0,0.0,0.0,0.0,0.0,0.0,0.0,0.0,0.0,0.0,0.0,0.0,0.0,0.0,0.0,0.0,0.0,0.0,0.0,0.0,0.0,0.0,0.0,0.0,0.0,0.0,0.0,0.0,0.0,0.0,0.0,0.0,0.0,0.0,0.0,0.0,0.0,0.0,0.0,0.0,0.0,0.0,0.0,0.0,-2.2414,-2.4272,-2.5936,-2.654,-2.5964,-2.4335,-2.2833,0.0,0.0,0.0,0.0,0.0,0.0,0.0,0.0,0.0,0.0,0.0,0.0,0.0,0.0,0.0,0.0,0.0,0.0,0.0,0.0,0.0,0.0,0.0,0.0,0.0,0.0,0.0,0.0,0.0,0.0,0.0,0.0,0.0,0.0,0.0,0.0,0.0,0.0,0.0,0.0,0.0,0.0,0.0,0.0,0.0,0.0,0.0,0.0,0.0,0.0,0.0,0.0,0.0,0.0,0.0,0.0,0.0,0.0,0.0,0.0,0.0,0.0,0.0,0.0,0.0,0.0,0.0,0.0,0.0,0.0,0.0,0.0,0.0,0.0,0.0,0.0,0.0,0.0,0.0,0.0,0.0,0.0,0.0,0.0,0.0,0.0,0.0,0.0,0.0,0.0,0.0,0.0,0.0,0.0,0.0,0.0,0.0,0.0,0.0,0.0,0.0,0.0,0.0,0.0,0.0,0.0,0.0,0.0,-2.3617,-2.5485,-2.6357,-2.675,-2.6624,-2.5022,-2.3345,0.0,0.0,0.0,0.0,0.0,0.0,0.0,0.0,0.0,0.0,0.0,0.0,0.0,0.0,0.0,0.0,0.0,0.0,0.0,0.0,0.0,0.0,0.0,0.0,0.0,0.0,0.0,0.0,0.0,0.0,0.0,0.0,0.0,0.0,0.0,0.0,0.0,0.0,0.0,0.0,0.0,0.0,0.0,0.0,0.0,0.0,0.0,0.0,-1.5359,0.0,0.0,0.0,0.0,0.0,0.0,0.0,0.0,0.0,0.0,0.0,0.0,0.0,0.0,0.0,0.0,0.0,0.0,0.0,0.0,0.0,0.0,0.0,0.0,0.0,0.0,0.0,0.0,0.0,0.0,0.0,0.0,0.0,0.0,0.0,0.0,0.0,0.0,0.0,0.0,0.0,0.0,0.0,0.0,0.0,0.0,0.0,0.0,0.0,0.0,0.0,0.0,0.0,0.0,0.0,0.0,0.0,0.0,0.0,-2.4446,-2.6273,-2.7214,-2.7565,-2.7242,-2.6252,-2.4832,0.0,0.0,0.0,0.0,0.0,0.0,0.0,0.0,0.0,0.0,0.0,0.0,0.0,0.0,0.0,0.0,0.0,0.0,0.0,0.0,0.0,0.0,0.0,0.0,0.0,0.0,0.0,0.0,0.0,0.0,0.0,0.0,0.0,0.0,0.0,0.0,0.0,0.0,0.0,0.0,0.0,0.0,0.0,0.0,0.0,0.0,0.0,0.0,0.0,0.0,0.0,0.0,0.0,0.0,0.0,0.0,0.0,0.0,0.0,0.0,0.0,0.0,0.0,0.0,0.0,0.0,0.0,0.0,0.0,0.0,0.0,0.0,0.0,0.0,0.0,0.0,0.0,0.0,0.0,0.0,0.0,0.0,0.0,0.0,0.0,0.0,0.0,0.0,0.0,0.0,0.0,0.0,0.0,0.0,0.0,0.0,0.0,0.0,0.0,0.0,0.0,0.0,0.0,0.0,0.0,0.0,0.0,-2.2981,-2.5035,-2.6891,-2.8099,-2.8466,-2.7989,-2.7584,-2.6499,-2.464,0.0,0.0,0.0,0.0,0.0,0.0,0.0,0.0,0.0,0.0,0.0,0.0,0.0,0.0,0.0,0.0,0.0,0.0,0.0,0.0,0.0,0.0,0.0,0.0,0.0,0.0,0.0,0.0,0.0,0.0,0.0,0.0,0.0,0.0,0.0,0.0,0.0,0.0,-1.3874,-1.5443,0.0,0.0,0.0,0.0,0.0,0.0,0.0,0.0,-1.6572,0.0,0.0,0.0,0.0,0.0,0.0,0.0,0.0,0.0,0.0,0.0,0.0,0.0,0.0,0.0,0.0,0.0,0.0,0.0,0.0,0.0,0.0,0.0,0.0,0.0,0.0,0.0,0.0,0.0,0.0,0.0,0.0,0.0,0.0,0.0,0.0,0.0,0.0,0.0,0.0,0.0,0.0,0.0,0.0,0.0,0.0,0.0,0.0,0.0,0.0,0.0,0.0,0.0,0.0,0.0,0.0,-2.2606,-2.3614,-2.5246,-2.758,-2.831,-2.8693,-2.8702,-2.8282,-2.7224,-2.5408,0.0,0.0,0.0,0.0,0.0,0.0,0.0,0.0,0.0,0.0,0.0,0.0,0.0,0.0,0.0,0.0,0.0,0.0,0.0,0.0,0.0,0.0,0.0,0.0,0.0,0.0,0.0,0.0,0.0,0.0,0.0,0.0,0.0,0.0,0.0,0.0,0.0,0.0,0.0,-1.733,-1.7937,0.0,0.0,0.0,0.0,0.0,0.0,0.0,0.0,-1.6814,0.0,0.0,0.0,0.0,0.0,0.0,0.0,0.0,0.0,0.0,0.0,0.0,0.0,0.0,0.0,0.0,0.0,0.0,0.0,0.0,0.0,0.0,0.0,0.0,0.0,0.0,0.0,0.0,0.0,0.0,0.0,0.0,0.0,0.0,0.0,0.0,0.0,0.0,0.0,0.0,0.0,0.0,0.0,0.0,0.0,0.0,0.0,0.0,0.0,0.0,0.0,0.0,0.0,0.0,0.0,-2.255,-2.4502,-2.6258,-2.7763,-2.8766,-2.9167,-2.8903,-2.8211,-2.7148,0.0,0.0,0.0,0.0,0.0,0.0,0.0,0.0,0.0,0.0,0.0,0.0,0.0,0.0,0.0,0.0,0.0,0.0,0.0,0.0,0.0,0.0,0.0,0.0,0.0,0.0,0.0,0.0,0.0,0.0,0.0,0.0,0.0,0.0,0.0,0.0,0.0,0.0,0.0,0.0,-1.8322,-1.8902,-1.8717,0.0,0.0,0.0,0.0,0.0,0.0,-1.8106,-1.7928,0.0,0.0,0.0,0.0,0.0,0.0,0.0,0.0,0.0,0.0,0.0,0.0,0.0,0.0,0.0,0.0,0.0,0.0,0.0,0.0,0.0,0.0,0.0,0.0,0.0,0.0,0.0,0.0,0.0,0.0,0.0,0.0,0.0,0.0,0.0,0.0,0.0,0.0,0.0,0.0,0.0,0.0,0.0,0.0,0.0,0.0,0.0,0.0,0.0,0.0,0.0,0.0,0.0,0.0,0.0,-2.2587,-2.5247,-2.7088,-2.8003,-2.9195,-2.9541,-2.9021,-2.8125,-2.6985,0.0,0.0,0.0,0.0,0.0,0.0,0.0,0.0,0.0,0.0,0.0,0.0,0.0,0.0,0.0,0.0,0.0,0.0,0.0,0.0,0.0,0.0,0.0,0.0,0.0,0.0,0.0,0.0,0.0,0.0,0.0,0.0,0.0,0.0,0.0,0.0,0.0,0.0,0.0,0.0,0.0,-1.9905,-1.9376,-1.9542,0.0,0.0,0.0,0.0,-1.9316,-1.9223,0.0,0.0,0.0,0.0,0.0,0.0,0.0,0.0,0.0,0.0,0.0,0.0,0.0,0.0,0.0,0.0,0.0,0.0,0.0,0.0,0.0,0.0,0.0,0.0,0.0,0.0,0.0,0.0,0.0,0.0,0.0,0.0,0.0,0.0,0.0,0.0,0.0,0.0,0.0,0.0,0.0,0.0,0.0,0.0,0.0,0.0,0.0,0.0,0.0,0.0,0.0,0.0,0.0,0.0,0.0,0.0,-2.3769,-2.5261,-2.6905,-2.8688,-2.9454,-2.9647,-2.9331,-2.867,-2.7229,0.0,0.0,0.0,0.0,0.0,0.0,0.0,0.0,0.0,0.0,0.0,0.0,0.0,0.0,0.0,0.0,0.0,0.0,0.0,0.0,0.0,0.0,0.0,0.0,0.0,0.0,0.0,0.0,0.0,0.0,0.0,0.0,0.0,0.0,0.0,0.0,0.0,0.0,0.0,0.0,0.0,-2.1118,-2.0118,-1.9823,-1.9935,0.0,0.0,-2.0068,-2.1424,-2.0971,0.0,0.0,0.0,0.0,0.0,0.0,0.0,0.0,0.0,0.0,0.0,0.0,0.0,0.0,0.0,0.0,0.0,0.0,0.0,0.0,0.0,0.0,0.0,0.0,0.0,0.0,0.0,0.0,0.0,0.0,0.0,0.0,0.0,0.0,0.0,0.0,0.0,0.0,0.0,0.0,0.0,0.0,0.0,0.0,0.0,0.0,0.0,0.0,0.0,0.0,0.0,0.0,0.0,0.0,0.0,-2.1216,-2.4109,-2.6167,-2.7754,-2.8889,-2.9679,-2.9873,-2.942,-2.8164,-2.6671,0.0,0.0,0.0,0.0,0.0,0.0,0.0,0.0,0.0,0.0,0.0,0.0,0.0,0.0,0.0,0.0,0.0,0.0,0.0,0.0,0.0,0.0,0.0,0.0,0.0,0.0,0.0,0.0,0.0,0.0,0.0,0.0,0.0,0.0,0.0,0.0,0.0,0.0,0.0,0.0,0.0,0.0,-2.07,-2.0995,0.0,0.0,0.0,-2.2365,-2.248,0.0,0.0,0.0,0.0,0.0,0.0,0.0,0.0,0.0,0.0,0.0,0.0,0.0,0.0,0.0,0.0,0.0,0.0,0.0,0.0,0.0,0.0,0.0,0.0,0.0,0.0,0.0,0.0,0.0,0.0,0.0,0.0,0.0,0.0,0.0,0.0,0.0,0.0,0.0,0.0,0.0,0.0,0.0,0.0,0.0,0.0,0.0,0.0,0.0,0.0,0.0,0.0,0.0,0.0,0.0,0.0,0.0,-2.4702,-2.6986,-2.8481,-2.922,-2.9947,-2.9952,-2.9233,-2.7799,0.0,0.0,0.0,0.0,0.0,0.0,0.0,0.0,0.0,0.0,0.0,0.0,0.0,0.0,0.0,0.0,0.0,0.0,0.0,0.0,0.0,0.0,0.0,0.0,0.0,0.0,0.0,-1.2848,0.0,0.0,0.0,0.0,0.0,0.0,0.0,0.0,0.0,0.0,0.0,0.0,0.0,0.0,-2.1945,-2.1545,-2.2325,-2.2869,0.0,0.0,-2.4055,-2.3266,-2.3756,-2.38,0.0,0.0,0.0,0.0,0.0,0.0,0.0,0.0,0.0,0.0,0.0,0.0,0.0,0.0,0.0,0.0,0.0,0.0,0.0,0.0,0.0,0.0,0.0,0.0,0.0,0.0,0.0,0.0,0.0,0.0,0.0,0.0,0.0,0.0,0.0,0.0,0.0,0.0,0.0,0.0,0.0,0.0,0.0,0.0,0.0,0.0,0.0,0.0,0.0,0.0,0.0,0.0,0.0,0.0,-2.2397,-2.6058,-2.7385,-2.8724,-3.0136,-3.0267,-2.9795,-2.8782,-2.8042,-2.6202,0.0,0.0,0.0,0.0,0.0,0.0,0.0,0.0,0.0,0.0,0.0,0.0,0.0,0.0,0.0,0.0,0.0,0.0,0.0,0.0,0.0,0.0,0.0,0.0,0.0,0.0,0.0,0.0,0.0,0.0,0.0,0.0,0.0,0.0,0.0,0.0,0.0,0.0,0.0,0.0,0.0,-2.3302,-2.2862,-2.3628,-2.4369,0.0,-2.4513,-2.4252,-2.3896,-2.4543,-2.442,-2.2455,0.0,0.0,0.0,0.0,0.0,0.0,0.0,0.0,0.0,0.0,0.0,0.0,0.0,0.0,0.0,0.0,0.0,0.0,0.0,0.0,0.0,0.0,0.0,0.0,0.0,0.0,0.0,0.0,0.0,0.0,0.0,0.0,0.0,0.0,0.0,0.0,0.0,0.0,0.0,0.0,0.0,0.0,0.0,0.0,0.0,0.0,0.0,0.0,0.0,0.0,0.0,0.0,0.0,-2.2655,-2.6349,-2.7736,-2.9045,-3.0224,-3.0417,-3.0073,-2.9276,-2.8232,-2.639,0.0,0.0,0.0,0.0,0.0,0.0,0.0,0.0,0.0,0.0,0.0,0.0,0.0,0.0,0.0,0.0,0.0,0.0,0.0,0.0,0.0,0.0,0.0,0.0,0.0,0.0,0.0,0.0,-1.4077,-1.4039,-1.3923,0.0,0.0,0.0,0.0,0.0,0.0,0.0,0.0,0.0,0.0,-2.339,-2.3992,-2.4445,0.0,0.0,-2.5548,-2.5626,-2.5192,-2.5002,-2.4507,-2.3229,-2.2989,0.0,0.0,0.0,0.0,0.0,0.0,0.0,0.0,0.0,0.0,0.0,0.0,0.0,0.0,0.0,0.0,0.0,0.0,0.0,0.0,0.0,0.0,0.0,0.0,0.0,0.0,0.0,0.0,0.0,0.0,0.0,0.0,0.0,0.0,0.0,0.0,0.0,0.0,0.0,0.0,0.0,0.0,0.0,0.0,0.0,0.0,0.0,0.0,0.0,0.0,0.0,0.0,-2.2704,-2.6248,-2.7843,-2.9204,-3.0358,-3.0538,-3.0307,-2.9581,-2.8362,-2.6593,0.0,0.0,0.0,0.0,0.0,0.0,0.0,0.0,0.0,0.0,0.0,0.0,0.0,0.0,0.0,0.0,0.0,0.0,0.0,0.0,0.0,0.0,0.0,0.0,0.0,0.0,0.0,0.0,-1.4891,-1.4735,-1.4285,0.0,0.0,0.0,0.0,0.0,0.0,0.0,0.0,0.0,0.0,-2.3664,-2.4911,-2.5313,-2.5604,-2.6057,-2.6527,-2.6674,-2.6115,-2.5895,-2.5413,-2.4247,0.0,0.0,0.0,0.0,0.0,0.0,0.0,0.0,0.0,0.0,0.0,0.0,0.0,0.0,0.0,0.0,0.0,0.0,0.0,0.0,0.0,0.0,0.0,0.0,0.0,0.0,0.0,-1.429,0.0,0.0,-1.4507,0.0,0.0,0.0,0.0,0.0,0.0,0.0,0.0,0.0,0.0,0.0,0.0,0.0,0.0,0.0,0.0,0.0,0.0,0.0,0.0,0.0,0.0,-2.2472,-2.5778,-2.7626,-2.9175,-3.0524,-3.0612,-3.0277,-2.9624,-2.8362,-2.6796,-2.4878,0.0,0.0,0.0,0.0,0.0,0.0,0.0,0.0,0.0,0.0,0.0,0.0,0.0,0.0,0.0,0.0,0.0,0.0,0.0,0.0,0.0,0.0,0.0,0.0,0.0,0.0,-1.4956,-1.4923,-1.4956,0.0,0.0,0.0,0.0,0.0,0.0,0.0,0.0,0.0,-2.2177,-2.3274,-2.4341,-2.5589,-2.6315,-2.6872,-2.7339,-2.743,-2.7193,-2.6412,-2.7287,-2.7434,0.0,0.0,0.0,0.0,0.0,0.0,0.0,0.0,0.0,0.0,0.0,0.0,0.0,0.0,0.0,0.0,0.0,0.0,0.0,0.0,0.0,0.0,0.0,0.0,0.0,0.0,0.0,-1.6276,-1.5991,0.0,0.0,0.0,0.0,0.0,0.0,0.0,0.0,0.0,0.0,0.0,-2.4829,-2.5488,0.0,0.0,0.0,0.0,0.0,0.0,0.0,0.0,0.0,0.0,0.0,0.0,-2.3207,-2.6358,-2.7884,-2.9262,-3.0554,-3.0612,-3.051,-3.0263,-2.9029,-2.6852,-2.3679,0.0,0.0,0.0,0.0,0.0,0.0,0.0,0.0,0.0,0.0,0.0,0.0,0.0,0.0,0.0,0.0,0.0,0.0,0.0,0.0,0.0,0.0,0.0,0.0,0.0,-1.6354,0.0,0.0,0.0,0.0,0.0,0.0,0.0,0.0,0.0,0.0,0.0,-2.1898,-2.3806,-2.4689,-2.5498,-2.6341,-2.666,-2.6884,0.0,0.0,0.0,0.0,0.0,0.0,0.0,0.0,0.0,0.0,0.0,0.0,0.0,0.0,-2.7412,-2.453,-2.3619,-2.3255,-2.3255,0.0,0.0,0.0,0.0,0.0,0.0,0.0,0.0,0.0,0.0,0.0,0.0,0.0,0.0,-1.8722,-1.8462,-1.8639,0.0,0.0,0.0,0.0,0.0,0.0,0.0,0.0,-2.5899,-2.7217,-2.7503,-2.8318,-2.8158,-2.7113,-2.653,-2.4931,0.0,0.0,0.0,0.0,0.0,0.0,0.0,0.0,-2.3804,-2.6718,-2.8245,-2.9552,-3.0554,-3.0612,-3.0612,-3.0583,-2.9131,-2.6953,-2.3998,-2.1663,-1.9822,0.0,0.0,0.0,0.0,0.0,0.0,0.0,0.0,0.0,0.0,0.0,0.0,0.0,0.0,0.0,0.0,0.0,0.0,0.0,0.0,0.0,0.0,0.0,-1.7465,0.0,0.0,0.0,0.0,0.0,0.0,0.0,0.0,0.0,-2.1238,-2.2043,-2.3368,-2.5299,-2.5701,-2.6097,-2.6997,0.0,0.0,0.0,0.0,0.0,0.0,0.0,-2.8431,-2.8602,-2.887,-2.9042,-2.9118,-3.0311,-3.0919,-2.9959,0.0,0.0,-2.6882,-2.5855,-2.559,-2.5839,-2.5889,-2.5789,-2.5574,-2.5905,-2.6104,0.0,0.0,0.0,0.0,-2.1459,0.0,0.0,0.0,-2.2168,-2.1848,0.0,-2.161,0.0,0.0,0.0,0.0,-2.228,-2.466,0.0,0.0,-2.9639,-3.0611,-3.067,-3.067,-3.0365,-2.9784,-3.0263,-2.929,-2.6837,-2.3813,0.0,0.0,0.0,0.0,0.0,0.0,-2.4259,-2.6864,-2.8652,-2.9943,-3.0583,-3.0612,-3.0598,-3.0525,-2.8753,-2.7157,-2.5821,-2.394,-2.1808,-1.9362,-1.9145,0.0,0.0,0.0,0.0,0.0,0.0,0.0,0.0,0.0,0.0,0.0,0.0,0.0,0.0,0.0,0.0,0.0,0.0,0.0,0.0,-1.7309,0.0,0.0,0.0,0.0,0.0,0.0,0.0,0.0,0.0,0.0,-2.2775,-2.3435,-2.4675,-2.6573,0.0,0.0,0.0,0.0,-2.7942,-2.8446,-2.9632,-3.0438,-3.022,-3.1443,-3.2171,-3.1583,0.0,0.0,-3.0886,-3.1802,-3.2266,-3.087,-3.1735,-3.2249,-3.0754,-2.9317,-2.8674,-2.9152,-2.8257,-2.7713,-2.826,-2.8323,-2.8392,-2.3811,0.0,0.0,0.0,0.0,-2.3842,-2.509,-2.718,-2.6635,-2.5945,-2.5215,-2.5185,0.0,0.0,0.0,0.0,0.0,0.0,-2.7868,-2.9102,-3.0582,-3.1743,-3.2661,-3.2675,-3.2573,-3.2385,-3.1598,-3.0872,-3.0103,-2.8332,-2.5415,-2.154,0.0,0.0,0.0,0.0,-2.601,-2.8057,-2.9116,-2.9929,-3.0598,-3.0612,-3.035,-2.9914,-2.8927,-2.7795,-2.6533,-2.5096,-2.3548,-2.1881,-2.0553,0.0,0.0,0.0,0.0,0.0,0.0,0.0,0.0,0.0,0.0,0.0,0.0,0.0,0.0,0.0,0.0,0.0,0.0,0.0,-1.8116,-1.8205,-1.86,0.0,0.0,0.0,0.0,0.0,0.0,0.0,0.0,0.0,-2.6946,-2.6365,-2.6329,0.0,0.0,-2.7986,-2.7942,-2.8362,-2.8805,-2.9104,-3.0083,0.0,-3.0844,-3.1417,-3.1968,-3.2288,-3.2994,-3.3491,-3.3624,-3.3557,-3.3365,-3.2911,-3.2762,-3.2531,-3.2133,-3.1338,-3.0609,-3.0257,-2.9847,-2.9665,-2.9847,-2.9914,-2.9897,-2.7236,-2.5696,-2.4487,-2.4836,-2.6191,-2.6213,-2.7485,-2.9545,-2.9017,-2.869,-2.8497,-2.8318,-2.7508,-2.6215,-2.5804,0.0,0.0,0.0,-2.9682,-3.1177,-3.1946,-3.2846,-3.3837,-3.3833,-3.3848,-3.3804,-3.2788,-3.2309,-3.228,-3.1264,-2.8797,-2.5139,0.0,-2.4849,-2.4491,-2.585,-2.7374,-2.9,-2.9682,-3.019,-3.0598,-3.0612,-3.0423,-3.0001,-2.9174,-2.8331,-2.7576,-2.6079,-2.4762,-2.3693,-2.2098,-2.0213,0.0,0.0,0.0,0.0,0.0,0.0,0.0,0.0,0.0,0.0,0.0,-1.43,-1.3399,0.0,0.0,0.0,-1.6723,-1.847,-2.0378,-2.0424,0.0,0.0,0.0,0.0,0.0,0.0,0.0,-2.6386,-2.8169,-2.9387,-2.9564,-2.9134,-2.8925,-2.9274,-2.9519,-2.9618,-2.9512,0.0,-3.0204,-3.0327,-3.1327,-3.2069,-3.2169,-3.2574,-3.3077,-3.3491,-3.3922,-3.4336,-3.4783,-3.4502,-3.4253,-3.4187,-3.3879,-3.3458,-3.3176,-3.2762,-3.2227,-3.1537,-3.1135,-3.0936,-3.0936,-3.0721,-3.0489,-2.9989,-2.9856,-2.7717,-2.731,-2.8097,-2.8823,-2.9651,-3.046,-2.9997,-3.0419,-3.1411,-3.1007,-3.0386,-2.9571,-2.8541,0.0,-3.0845,-3.083,-3.1803,-3.3576,-3.3576,-3.3881,-3.4399,-3.438,-3.438,-3.4385,-3.3852,-3.3576,-3.3547,-3.2933,-3.1712,-2.99,-2.8173,-2.7241,-2.7055,-2.7694,-2.8609,-2.9813,-3.0379,-3.0656,-3.0612,-3.0612,-3.0583,-3.0496,-2.9348,-2.868,-2.855,-2.6864,-2.5546,-2.481,-2.3627,-2.1852,-1.942,0.0,0.0,0.0,0.0,0.0,0.0,0.0,0.0,0.0,0.0,0.0,0.0,0.0,0.0,0.0,-1.9183,0.0,-2.2622,-2.3291,0.0,0.0,0.0,-2.515,-2.5315,-2.7147,-2.8489,-2.8699,0.0,0.0,-3.1022,-3.164,-3.2023,-3.2039,-3.1413,-3.1174,-3.1753,-3.1821,-3.1909,-3.1873,-3.2956,-3.377,-3.3682,-3.426,-3.4717,-3.475,-3.4899,-3.4866,-3.4883,-3.4883,-3.4883,-3.4849,-3.4883,-3.4684,-3.3988,-3.3856,-3.3696,-3.3,-3.2232,-3.1681,-3.1548,-3.1068,-3.0621,-2.9124,-2.9465,-2.9263,-2.955,-3.0075,-3.0007,-3.087,-3.2242,-3.2326,-3.2565,-3.2949,-3.2861,-3.2418,-3.1766,-3.149,-3.1888,-3.2806,-3.282,-3.3296,-3.4167,-3.4196,-3.4269,-3.438,-3.438,-3.438,-3.4399,-3.4254,-3.4196,-3.4182,-3.4022,-3.3485,-3.2603,-3.2138,-3.0932,-2.9073,-3.003,-3.0987,-3.1785,-3.1437,-3.1061,-3.0627,-3.0612,-3.0365,-2.9856,-2.9087,-2.8448,-2.7969,-2.7055,-2.601,-2.4868,-2.4094,-2.2701,-2.064,-1.8597,0.0,0.0,0.0,0.0,0.0,0.0,0.0,0.0,0.0,-1.7511,-1.5027,0.0,-1.8711,0.0,-2.0301,-2.2098,-2.4078,-2.3999,0.0,0.0,-2.6801,-2.7267,-2.8973,-2.958,-3.0112,-3.0793,-3.2165,-3.308,-3.3088,-3.3695,-3.4153,-3.4129,-3.3205,-3.2358,-3.2054,-3.2494,-3.2867,-3.2961,-3.3544,-3.4034,-3.4068,-3.4505,-3.4899,-3.4899,-3.4899,-3.4899,-3.4899,-3.4899,-3.4899,-3.4899,-3.4899,-3.4816,-3.4651,-3.4634,-3.4568,-3.4319,-3.3342,-3.2266,-3.173,-3.1449,-3.1168,-2.9605,-2.9694,-2.9954,-3.0217,-3.0496,-3.0462,-3.1363,-3.2891,-3.2759,-3.3149,-3.3891,-3.3891,-3.3688,-3.3369,-3.3354,-3.3558,-3.3877,-3.3891,-3.408,-3.4399,-3.438,-3.438,-3.438,-3.438,-3.438,-3.438,-3.438,-3.438,-3.438,-3.438,-3.4225,-3.3891,-3.3891,-3.318,-3.183,-3.1872,-3.2118,-3.2513,-3.1859,-3.1221,-3.0641,-3.0612,-3.0277,-2.961,-2.9,-2.8245,-2.7345,-2.6704,-2.5749,-2.4462,-2.3804,-2.2846,-2.1496,-1.958,-1.8332,0.0,0.0,0.0,0.0,0.0,0.0,0.0,0.0,0.0,0.0,0.0,-2.0432,-2.1126,-2.3128,-2.5044,-2.662,-2.7078,-2.7946,-2.9551,-2.9617,-3.0088,-3.1371,-3.1742,-3.2199,-3.2972,-3.3789,-3.427,-3.4286,-3.4916,-3.5379,-3.5396,-3.5067,-3.4594,-3.3942,-3.3935,-3.4057,-3.4406,-3.4454,-3.4448,-3.4472,-3.4691,-3.4899,-3.4899,-3.4899,-3.4899,-3.4899,-3.4899,-3.4899,-3.4899,-3.4899,-3.4899,-3.4899,-3.4899,-3.4899,-3.48,-3.4253,-3.3326,-3.2315,-3.183,-3.1383,-3.0434,-3.0086,-3.0097,-3.0109,-3.0217,-3.0546,-3.1487,-3.2751,-3.2461,-3.3141,-3.453,-3.4457,-3.438,-3.438,-3.438,-3.438,-3.438,-3.438,-3.438,-3.438,-3.438,-3.438,-3.438,-3.438,-3.438,-3.438,-3.438,-3.438,-3.438,-3.438,-3.438,-3.438,-3.438,-3.438,-3.4337,-3.3278,-3.2684,-3.2629,-3.1959,-3.1337,-3.0743,-3.0656,-3.0263,-2.9523,-2.8898,-2.7982,-2.6733,-2.6083,-2.5241,-2.408,-2.3548,-2.2954,-2.2251,-2.1052,-2.0262,0.0,-1.9478,0.0,0.0,0.0,0.0,0.0,0.0,0.0,0.0,-2.1876,-2.2751,-2.4133,-2.6684,-2.8555,-2.9333,-3.0614,-3.1484,-3.1649,-3.2231,-3.2688,-3.2871,-3.3449,-3.415,-3.4949,-3.5032,-3.5065,-3.5214,-3.576,-3.6141,-3.615,-3.6572,-3.667,-3.6332,-3.5621,-3.5423,-3.6075,-3.5528,-3.5083,-3.505,-3.5041,-3.5048,-3.4949,-3.5032,-3.4998,-3.4916,-3.4899,-3.4899,-3.4899,-3.4899,-3.4899,-3.4899,-3.4899,-3.4899,-3.4899,-3.4816,-3.4376,-3.3205,-3.2437,-3.1686,-2.9785,-3.0091,-3.0053,-3.029,-3.067,-3.1094,-3.1546,-3.2134,-3.3122,-3.4172,-3.514,-3.4646,-3.438,-3.438,-3.438,-3.438,-3.438,-3.438,-3.438,-3.438,-3.438,-3.438,-3.438,-3.438,-3.438,-3.438,-3.438,-3.438,-3.438,-3.438,-3.438,-3.438,-3.438,-3.438,-3.4366,0.0,0.0,0.0,-3.2643,-3.1973,-3.1351,-3.0829,-3.0045,-2.8927,-2.8231,0.0,-2.6054,-2.5876,-2.5483,-2.4762,-2.5052,0.0,0.0,0.0,0.0,0.0,0.0,0.0,0.0,0.0,0.0,0.0,-2.5363,-2.4348,-2.2491,-2.5002,-2.721,-2.8125,-2.9308,-3.0143,-3.0476,-3.0729,-3.1223,-3.1916,-3.2153,-3.2631,-3.3673,-3.3974,-3.448,-3.5645,-3.5794,-3.6025,-3.6539,-3.682,-3.6903,-3.6903,-3.7019,-3.7275,-3.7748,-3.7102,-3.6738,-3.682,-3.6241,-3.581,-3.5794,-3.5794,-3.5578,-3.5164,-3.5429,-3.5512,-3.5032,-3.4899,-3.4899,-3.4899,-3.4899,-3.4899,-3.4899,-3.4899,-3.4899,-3.4923,-3.4923,-3.4681,-3.391,-3.3633,-3.3334,-2.9951,-2.9496,-2.9792,-3.0114,0.0,-3.1012,-3.1508,-3.1981,-3.2883,-3.3967,-3.5182,-3.5299,-3.5169,-3.4878,-3.4878,-3.4704,-3.438,-3.438,-3.438,-3.438,-3.438,-3.438,-3.438,-3.438,-3.438,-3.438,-3.438,-3.438,-3.438,-3.438,-3.438,-3.438,-3.438,-3.438,-3.438,-3.438,-3.4109,-3.3503,-3.3184,-3.2513,-3.1524,-3.1206,-3.0437,-2.9189,-2.8536,0.0,0.0,0.0,0.0,0.0,0.0,0.0,0.0,0.0,0.0,-2.2483,-2.212,-2.2475,-2.3717,-2.4483,-2.5696,-2.7563,-2.8447,-2.7928,-2.5732,-2.803,-2.977,-3.0172,-3.1292,-3.1954,-3.1828,-3.2167,-3.2482,-3.2618,-3.2651,-3.3065,-3.3952,-3.4164,-3.4645,-3.5785,-3.6034,-3.6317,-3.7002,-3.745,-3.7649,-3.7682,-3.798,-3.8295,-3.8543,-3.7798,-3.7119,-3.7102,-3.6837,-3.6572,-3.6555,-3.6539,-3.629,-3.5711,-3.576,-3.5661,-3.5015,-3.4899,-3.4899,-3.4899,-3.4899,-3.4899,-3.4899,-3.4899,-3.4906,-3.497,-3.4994,-3.4981,-3.4726,-3.4347,-3.3795,-3.0403,-2.9253,-2.96,-2.9794,-2.9871,-3.0682,-3.1327,-3.1843,-3.2639,0.0,0.0,-3.5971,-3.6011,-3.5581,-3.5552,-3.5218,-3.4588,-3.4588,-3.4516,-3.438,-3.438,-3.438,-3.438,-3.438,-3.438,-3.438,-3.438,-3.438,-3.438,-3.438,-3.438,-3.438,-3.438,-3.438,-3.438,-3.438,-3.4153,-3.3692,-3.3561,-3.289,-3.1712,-3.1553,-3.0916,-2.9624,-2.9,-2.8157,-2.6997,-2.6431,-2.5647,-2.4646,-2.4675,-2.4675,-2.4573,-2.4573,-2.4762,-2.5183,-2.5172,-2.5638,-2.6765,-2.7411,-2.8286,-2.948,-3.0776,-3.0977,-2.9702,-3.0798,-3.1599,-3.1753,-3.304,-3.3596,-3.3103,-3.3537,-3.3745,-3.3292,-3.3148,-3.3376,-3.4073,-3.4227,-3.4699,-3.5872,-3.6152,-3.6448,-3.7216,-3.7742,-3.8167,-3.8408,-3.8702,-3.9191,-3.9123,-3.8295,-3.7632,-3.7615,-3.7466,-3.7284,-3.7284,-3.7119,-3.687,-3.6307,-3.6092,-3.5777,-3.5263,-3.4982,-3.4899,-3.4899,-3.4923,-3.4947,-3.4947,-3.497,-3.4994,-3.5128,-3.5135,-3.5198,-3.5356,-3.4851,-3.4191,-3.093,-3.0785,-2.9674,-2.9308,-2.9541,-3.0323,-3.0994,-3.1606,-3.3555,-3.495,-3.5878,-3.6172,-3.6257,-3.617,-3.6185,-3.5822,-3.5276,-3.5276,-3.4936,-3.4395,-3.438,-3.438,-3.438,-3.438,-3.438,-3.438,-3.438,-3.438,-3.438,-3.438,-3.438,-3.438,-3.438,-3.438,-3.438,-3.438,-3.437,-3.4269,-3.3732,-3.3122,-3.2382,-3.1785,-3.0886,-2.9653,-2.9029,-2.8347,-2.7608,-2.7478,-2.7347,-2.7188,-2.7708,-2.7752,-2.7202,-2.7115,-2.6982,-2.6562,-2.6518,-2.7225,-2.8827,-2.907,-3.0129,-3.2318,-3.2912,-3.2983,-3.2796,-3.306,-3.3571,-3.4259,-3.4554,-3.4495,-3.3964,-3.3604,-3.3434,-3.3349,-3.2917,-3.3045,-3.4137,-3.4272,-3.4812,-3.6077,-3.6258,-3.6736,-3.7748,-3.7765,-3.7959,-3.875,-3.8799,-3.8689,-3.9115,-3.9149,-3.9017,-3.8917,-3.8444,-3.8086,-3.8013,-3.75,-3.7201,-3.6986,-3.6423,-3.6025,-3.5794,-3.533,-3.5022,-3.4899,-3.5044,-3.5091,-3.5098,-3.5175,-3.5222,-3.5268,-3.5268,-3.5314,-3.5492,-3.5317,-3.5194,-3.1724,-3.0761,-3.02,-2.9739,-2.9468,-3.0238,-3.0746,-3.1168,-3.317,-3.4524,-3.546,-3.6742,-3.7157,-3.6867,-3.6852,-3.6489,-3.5865,-3.5566,-3.5247,-3.4956,-3.4574,-3.438,-3.438,-3.438,-3.438,-3.438,-3.438,-3.438,-3.438,-3.438,-3.438,-3.438,-3.438,-3.438,-3.438,-3.438,-3.438,-3.438,-3.4124,-3.3674,-3.305,-3.273,-3.1961,-3.0668,-3.0075,-2.9406,-2.8754,-2.8434,-2.8245,-2.8245,-2.8534,-2.8578,-2.8274,-2.8245,-2.8115,-2.7866,-2.781,-2.8438,-2.9792,-3.0894,-3.2111,-3.3649,-3.3989,-3.4101,-3.4085,-3.4149,-3.4352,-3.4771,-3.5199,-3.512,-3.428,-3.4249,-3.4104,-3.3483,-3.3201,-3.3427,-3.4212,-3.4394,-3.4927,-3.6103,-3.6348,-3.6726,-3.7703,-3.7576,-3.7706,-3.8579,-3.8717,-3.8969,-3.9272,-3.9315,-3.9315,-3.9282,-3.9,-3.8825,-3.8758,-3.8543,-3.8146,-3.7798,-3.7085,-3.6489,-3.6125,-3.5661,-3.5387,-3.511,-3.5347,-3.5511,-3.5315,-3.5245,-3.5331,-3.54,-3.5423,-3.5469,-3.5543,-3.5549,-3.5549,-3.2519,-3.0937,-3.0826,-3.0339,-2.9655,-3.0111,-3.0392,-3.0624,-3.2497,-3.3688,-3.456,-3.6648,-3.7348,-3.6948,-3.6919,-3.6673,-3.6216,-3.5747,-3.5493,-3.5348,-3.4849,-3.4545,-3.4428,-3.438,-3.438,-3.438,-3.438,-3.438,-3.438,-3.438,-3.438,-3.438,-3.438,-3.438,-3.438,-3.438,-3.438,-3.438,-3.438,-3.4095,-3.3532,-3.3503,-3.2951,-3.177,-3.1119,-3.0553,-3.0016,-2.945,-2.913,-2.913,-2.913,-2.9145,-2.913,-2.913,-2.913,-2.9145,-2.913,-2.9609,-3.076,-3.246,-3.3746,-3.4284,-3.4472,-3.457,-3.4562,-3.457,-3.4636,-3.4816,-3.5358,-3.54,-3.4862,-3.4976,-3.4964,-3.4182,-3.3985,-3.4149,-3.464,-3.4728,-3.5067,-3.6025,-3.6196,-3.6477,-3.7161,-3.7251,-3.7472,-3.821,-3.8871,-3.9272,-3.9315,-3.9315,-3.9315,-3.9315,-3.9315,-3.9265,-3.9299,-3.9083,-3.8808,-3.8427,-3.7665,-3.7052,-3.6589,-3.6365,-3.5916,-3.5514,-3.5692,-3.5739,-3.5431,-3.536,-3.5429,-3.5498,-3.552,-3.5543,-3.5577,-3.56,-3.5481,-3.3013,-3.2467,-3.1563,-3.0768,-3.0124,-2.9704,-2.9685,-3.0108,-3.1927,-3.2804,-3.312,-3.4967,-3.5828,-3.5747,-3.5813,-3.5878,-3.6066,-3.5982,-3.573,-3.5444,-3.5348,-3.5,-3.4409,-3.438,-3.438,-3.438,-3.438,-3.438,-3.438,-3.438,-3.438,-3.438,-3.438,-3.438,-3.438,-3.438,-3.438,-3.438,-3.438,-3.4109,-3.3547,-3.3503,-3.3169,-3.244,-3.1787,-3.1379,-3.1277,-3.0727,-3.0423,-3.0438,-3.0394,-3.0409,-3.0394,-3.0409,-3.0423,-3.0409,-3.0409,-3.0939,-3.2127,-3.3569,-3.4374,-3.4456,-3.4275,-3.4192,-3.419,-3.4228,-3.4457,-3.489,-3.5062,-3.5382,-3.5819,-3.555,-3.5505,-3.5794,-3.5397,-3.5278,-3.5351,-3.5415,-3.5477,-3.5554,-3.5651,-3.6037,-3.6966,-3.6906,-3.7071,-3.8165,-3.8871,-3.9315,-3.9315,-3.9315,-3.9315,-3.9315,-3.9315,-3.9315,-3.9249,-3.8709,-3.8692,-3.8924,-3.8013,-3.7483,-3.7459,-3.6937,-3.613,-3.6043,-3.581,-3.5675,-3.5576,-3.5543,-3.5571,-3.5571,-3.5594,-3.5616,-3.56,-3.5616,-3.5397,-3.3571,-3.2602,-3.2155,-3.1338,-3.031,-2.9871,-2.9836,-3.0161,-3.1248,-3.182,-3.2081,-3.3491,-3.4677,-3.5588,-3.5628,-3.5931,-3.6504,-3.614,-3.5983,-3.5874,-3.5595,-3.5024,-3.4457,-3.438,-3.438,-3.438,-3.438,-3.438,-3.438,-3.438,-3.438,-3.438,-3.438,-3.438,-3.438,-3.438,-3.438,-3.438,-3.438,-3.4283,-3.4066,-3.4022,-3.3717,-3.3137,-3.2803,-3.2483,-3.206,-3.1482,-3.1134,-3.1105,-3.0801,-3.0612,-3.0612,-3.0612,-3.0612,-3.0642,-3.1277,-3.1851,-3.2382,-3.3713,-3.4333,-3.405,-3.4075,-3.4111,-3.4149,-3.4169,-3.4463,-3.5106,-3.553,-3.58,-3.5684,-3.5798,-3.6069,-3.6227,-3.5845,-3.5607,-3.6008,-3.5716,-3.5489,-3.5489,-3.5489,-3.5651,-3.6227,-3.6692,-3.7324,-3.8193,-3.8871,-3.9272,-3.9315,-3.9315,-3.9315,-3.9315,-3.9315,-3.9315,-3.9282,-3.91,-3.9007,-3.905,-3.8444,-3.798,-3.805,-3.7544,-3.6778,-3.6513,-3.6229,-3.5919,-3.5616,-3.5588,-3.5616,-3.5616,-3.5616,-3.5616,-3.5616,-3.5616,-3.5278,-3.4006,-3.2743,-3.225,-3.1528,-3.0585,-3.0204,-3.0065,-3.023,-3.0914,-3.1261,-3.143,-3.2494,-3.367,-3.4774,-3.491,-3.5507,-3.6383,-3.6111,-3.6165,-3.6469,-3.6098,-3.5473,-3.4733,-3.4675,-3.4574,-3.4395,-3.438,-3.438,-3.438,-3.438,-3.438,-3.438,-3.438,-3.438,-3.438,-3.438,-3.438,-3.438,-3.438,-3.438,-3.4366,-3.438,-3.4196,-3.3794,-3.359,-3.3285,-3.2803,-3.2118,-3.17,-3.1526,-3.1076,-3.0772,-3.0612,-3.0612,-3.0612,-3.0687,-3.1752,-3.2398,-3.241,-3.3713,-3.4275,-3.3787,-3.3967,-3.4079,-3.4062,-3.4176,-3.4498,-3.5018,-3.569,-3.5858,-3.5783,-3.6076,-3.6384,-3.6368,-3.5973,-3.591,-3.6068,-3.5733,-3.5489,-3.5504,-3.5683,-3.5925,-3.6352,-3.7251,-3.8169,-3.859,-3.9023,-3.9315,-3.9315,-3.9315,-3.9272,-3.9077,-3.9023,-3.9121,-3.9245,-3.9265,-3.9315,-3.9232,-3.8758,-3.8546,-3.8609,-3.8069,-3.7469,-3.7179,-3.6865,-3.6363,-3.5757,-3.5616,-3.5616,-3.5616,-3.5616,-3.5616,-3.5616,-3.5616,-3.5397,-3.421,-3.308,-3.1589,-3.1105,-3.1119,-3.0585,-3.0187,-3.0024,-3.1023,-3.1334,-3.1257,-3.2256,-3.2884,-3.3326,-3.3441,-3.4163,-3.5534,-3.5681,-3.6217,-3.7105,-3.7157,-3.6519,-3.5407,-3.5363,-3.5029,-3.4443,-3.438,-3.438,-3.438,-3.438,-3.438,-3.438,-3.438,-3.438,-3.438,-3.438,-3.438,-3.438,-3.438,-3.438,-3.438,-3.438,-3.4399,-3.4283,-3.3823,-3.3518,-3.3402,-3.2817,-3.2176,-3.1538,-3.1495,-3.1221,-3.0714,-3.0627,-3.0612,-3.0717,-3.1724,-3.2428,-3.2566,-3.3706,-3.4289,-3.3822,-3.4005,-3.3999,-3.3715,-3.4136,-3.4512,-3.4581,-3.5247,-3.574,-3.6136,-3.6198,-3.6352,-3.6399,-3.6337,-3.6053,-3.5651,-3.5619,-3.5489,-3.5587,-3.5926,-3.6662,-3.7879,-3.8788,-3.9013,-3.9148,-3.9272,-3.9272,-3.9218,-3.9245,-3.8996,-3.8535,-3.8379,-3.8546,-3.9121,-3.9148,-3.9191,-3.9265,-3.9226,-3.9219,-3.9142,-3.8955,-3.8338,-3.7706,-3.7111,-3.6523,-3.5887,-3.5616,-3.5616,-3.5616,-3.5616,-3.5616,-3.5616,-3.5616,-3.5481,-3.4222,-3.3188,-3.1958,-3.1472,-3.1455,-3.0948,-3.0501,-3.0272,-3.0589,-3.0854,-3.1038,-3.1794,-3.2431,-3.2896,-3.3598,-3.4524,-3.5548,-3.5628,-3.6198,-3.7199,-3.7302,-3.6606,-3.5494,-3.5392,-3.5072,-3.4486,-3.438,-3.438,-3.438,-3.438,-3.438,-3.438,-3.438,-3.438,-3.438,-3.438,-3.438,-3.438,-3.438,-3.438,-3.438,-3.438,-3.438,-3.4399,-3.4196,-3.408,-3.408,-3.347,-3.3006,-3.2806,-3.2382,-3.1828,-3.1235,-3.0785,-3.0612,-3.0701,-3.1737,-3.24,-3.2575,-3.3793,-3.4404,-3.3934,-3.4105,-3.4227,-3.4167,-3.4359,-3.4651,-3.507,-3.531,-3.5619,-3.5733,-3.5814,-3.6005,-3.629,-3.6085,-3.5941,-3.5958,-3.5765,-3.5489,-3.5587,-3.6022,-3.6906,-3.7994,-3.8518,-3.8827,-3.9218,-3.9315,-3.9121,-3.8745,-3.8689,-3.8451,-3.7924,-3.7735,-3.7793,-3.7998,-3.8451,-3.8745,-3.9158,-3.9319,-3.9435,-3.9423,-3.9151,-3.8572,-3.7862,-3.7273,-3.6603,-3.5938,-3.5616,-3.5616,-3.5616,-3.5616,-3.5616,-3.5616,-3.5616,-3.5616,-3.4066,-3.3212,-3.231,-3.1874,-3.1669,-3.132,-3.0929,-3.0622,-3.0719,-3.0876,-3.1075,-3.1631,-3.2204,-3.276,-3.3501,-3.4524,-3.5574,-3.5895,-3.6581,-3.7548,-3.7593,-3.7027,-3.6177,-3.6017,-3.5648,-3.5067,-3.4791,-3.4632,-3.4428,-3.438,-3.438,-3.438,-3.438,-3.438,-3.438,-3.438,-3.438,-3.438,-3.438,-3.438,-3.438,-3.438,-3.438,-3.438,-3.438,-3.438,-3.438,-3.3993,-3.3692,-3.3474,-3.3035,-3.2527,-3.1874,-3.1438,-3.1192,-3.1327,-3.2182,-3.2736,-3.2871,-3.396,-3.4471,-3.4,-3.4347,-3.4607,-3.4553,-3.4713,-3.504,-3.5385,-3.5489,-3.5489,-3.5489,-3.5489,-3.5765,-3.6227,-3.6022,-3.6068,-3.66,-3.6368,-3.629,-3.6492,-3.6829,-3.7531,-3.8351,-3.859,-3.8871,-3.9245,-3.9148,-3.8772,-3.8407,-3.808,-3.7764,-3.7205,-3.7071,-3.7055,-3.7161,-3.7442,-3.808,-3.8562,-3.9228,-3.9415,-3.9463,-3.9167,-3.879,-3.8087,-3.7358,-3.6648,-3.6107,-3.5718,-3.5616,-3.5616,-3.5616,-3.5616,-3.5616,-3.5616,-3.5616,-3.3765,-3.3284,-3.2719,-3.2166,-3.1801,-3.1669,-3.1368,-3.0983,-3.1356,-3.1342,-3.1186,-3.1709,-3.2166,-3.2667,-3.297,-3.3843,-3.5494,-3.6281,-3.7088,-3.7913,-3.8003,-3.767,-3.7033,-3.7063,-3.6751,-3.6098,-3.5654,-3.5058,-3.453,-3.4457,-3.438,-3.438,-3.438,-3.438,-3.438,-3.438,-3.438,-3.438,-3.438,-3.438,-3.438,-3.438,-3.438,-3.438,-3.438,-3.438,-3.438,-3.4337,-3.4095,-3.3634,-3.3532,-3.3166,-3.2629,-3.2396,-3.244,-3.2416,-3.2992,-3.3317,-3.344,-3.4164,-3.4496,-3.4243,-3.479,-3.5033,-3.4778,-3.5085,-3.5429,-3.5474,-3.5489,-3.5489,-3.5489,-3.5489,-3.5701,-3.6258,-3.6258,-3.6569,-3.7071,-3.734,-3.7605,-3.7966,-3.808,-3.8551,-3.9067,-3.9191,-3.9202,-3.905,-3.8745,-3.8278,-3.8023,-3.7618,-3.7131,-3.66,-3.6399,-3.643,-3.6384,-3.6477,-3.7235,-3.7966,-3.8717,-3.9212,-3.9249,-3.9082,-3.8815,-3.8211,-3.7554,-3.685,-3.5938,-3.5616,-3.5616,-3.5616,-3.5616,-3.56,-3.5616,-3.5616,-3.5616,-3.3898,-3.3693,-3.2863,-3.2418,-3.219,-3.1874,-3.1404,-3.0946,-3.1115,-3.1098,-3.1045,-3.1338,-3.1822,-3.2562,-3.3232,-3.4319,-3.5588,-3.5949,-3.6478,-3.7169,-3.7299,-3.7011,-3.6641,-3.703,-3.6968,-3.6301,-3.5697,-3.5305,-3.5043,-3.4632,-3.438,-3.438,-3.438,-3.438,-3.438,-3.438,-3.438,-3.438,-3.438,-3.438,-3.438,-3.438,-3.438,-3.438,-3.438,-3.438,-3.438,-3.438,-3.4327,-3.4109,-3.4124,-3.3833,-3.3285,-3.2759,-3.2527,-3.2571,-3.3127,-3.351,-3.3697,-3.4341,-3.482,-3.4861,-3.52,-3.5353,-3.5222,-3.537,-3.5489,-3.5489,-3.5489,-3.5489,-3.5489,-3.5489,-3.5619,-3.5765,-3.6148,-3.6554,-3.692,-3.7221,-3.7663,-3.8165,-3.8306,-3.859,-3.9121,-3.9315,-3.9121,-3.8701,-3.8407,-3.8051,-3.7205,-3.692,-3.6461,-3.591,-3.5846,-3.5878,-3.5926,-3.6101,-3.6615,-3.7294,-3.8039,-3.8717,-3.8838,-3.8972,-3.8731,-3.8321,-3.7663,-3.6969,-3.6056,-3.5554,-3.5509,-3.5532,-3.5487,-3.5532,-3.5577,-3.5554,-3.5487,-3.4174,-3.3898,-3.3152,-3.2683,-3.2454,-3.1946,-3.1524,-3.1235,-3.1211,-3.1211,-3.1267,-3.1342,-3.1685,-3.2326,-3.3074,-3.3998,-3.4938,-3.4787,-3.5128,-3.5936,-3.632,-3.6334,-3.6427,-3.7221,-3.7302,-3.6736,-3.6286,-3.5857,-3.5378,-3.4965,-3.4646,-3.4457,-3.438,-3.438,-3.438,-3.438,-3.438,-3.438,-3.438,-3.438,-3.438,-3.438,-3.438,-3.438,-3.438,-3.438,-3.438,-3.438,-3.438,-3.438,-3.438,-3.4211,-3.3819,-3.3456,-3.3191,-3.3296,-3.359,-3.3918,-3.4113,-3.4589,-3.4983,-3.518,-3.5392,-3.5489,-3.5489,-3.5489,-3.5489,-3.5489,-3.5489,-3.5489,-3.5489,-3.5489,-3.5587,-3.5829,-3.6445,-3.6966,-3.734,-3.7838,-3.8226,-3.8634,-3.8717,-3.8898,-3.9175,-3.9272,-3.9023,-3.8463,-3.8096,-3.7663,-3.6662,-3.6227,-3.5846,-3.5587,-3.5619,-3.5619,-3.5554,-3.5782,-3.607,-3.6662,-3.731,-3.7895,-3.8282,-3.8557,-3.8537,-3.8127,-3.7533,-3.7081,-3.6248,-3.5501,-3.5201,-3.5247,-3.5291,-3.5085,-3.5015,-3.5178,-3.5201,-3.4486,-3.3994,-3.3537,-3.3044,-3.2551,-3.1997,-3.1753,-3.1669,-3.1669,-3.1657,-3.1669,-3.1633,-3.1801,-3.2025,-3.2419,-3.3104,-3.3746,-3.3458,-3.3768,-3.4538,-3.5115,-3.5681,-3.6785,-3.7529,-3.761,-3.7389,-3.723,-3.6577,-3.5595,-3.5378,-3.5053,-3.4438,-3.438,-3.438,-3.438,-3.438,-3.438,-3.438,-3.438,-3.438,-3.438,-3.438,-3.438,-3.438,-3.438,-3.438,-3.438,-3.438,-3.438,-3.438,-3.438,-3.4351,-3.4351,-3.4399,-3.4283,-3.424,-3.4385,-3.4491,-3.4654,-3.4839,-3.5034,-3.5228,-3.5392,-3.5489,-3.5489,-3.5489,-3.5489,-3.5489,-3.5489,-3.5489,-3.5489,-3.5489,-3.5733,-3.6337,-3.686,-3.7751,-3.9013,-3.9121,-3.8996,-3.9148,-3.9288,-3.9315,-3.9315,-3.9315,-3.8942,-3.8294,-3.7751,-3.7191,-3.643,-3.5894,-3.5587,-3.5489,-3.5489,-3.5489,-3.5489,-3.5621,-3.5911,-3.6258,-3.6753,-3.7147,-3.765,-3.7966,-3.8207,-3.7794,-3.7511,-3.7028,-3.6414,-3.5616,-3.5092,-3.5035,-3.4864,-3.453,-3.4504,-3.4761,-3.5021,-3.4691,-3.4559,-3.4018,-3.3549,-3.3032,-3.2503,-3.2022,-3.1741,-3.1717,-3.1705,-3.1705,-3.1705,-3.1793,-3.1994,-3.2081,-3.2729,-3.3305,-3.2957,-3.3116,-3.3885,-3.3615,-3.4869,-3.6531,-3.713,-3.752,-3.7786,-3.7483,-3.6867,-3.6069,-3.5654,-3.5067,-3.4395,-3.438,-3.438,-3.438,-3.438,-3.438,-3.438,-3.438,-3.438,-3.438,-3.438,-3.438,-3.438,-3.438,-3.438,-3.438,-3.438,-3.438,-3.438,-3.438,-3.438,-3.438,-3.438,-3.438,-3.4414,-3.4563,-3.4698,-3.4835,-3.5001,-3.518,-3.5407,-3.5457,-3.5489,-3.5489,-3.5489,-3.5489,-3.5489,-3.5489,-3.5489,-3.5489,-3.5537,-3.5829,-3.6337,-3.6951,-3.7809,-3.8805,-3.8871,-3.8717,-3.9175,-3.9245,-3.9218,-3.9245,-3.9148,-3.8788,-3.7895,-3.7399,-3.6996,-3.6133,-3.5718,-3.5489,-3.5489,-3.5489,-3.5489,-3.5522,-3.5589,-3.5767,-3.6005,-3.6274,-3.6476,-3.6921,-3.7266,-3.7441,-3.7378,-3.7392,-3.7048,-3.6319,-3.5554,-3.5268,-3.4913,-3.4512,-3.4234,-3.4301,-3.448,-3.4769,-3.4775,-3.4775,-3.421,-3.3826,-3.3513,-3.2827,-3.2298,-3.1997,-3.1801,-3.1705,-3.1705,-3.1705,-3.1761,-3.1862,-3.1981,-3.232,-3.2846,-3.2581,-3.2754,-3.3116,-3.2957,-3.394,-3.5575,-3.6427,-3.7169,-3.7615,-3.7653,-3.7172,-3.6402,-3.5923,-3.5299,-3.4574,-3.438,-3.438,-3.438,-3.438,-3.438,-3.438,-3.438,-3.438,-3.438,-3.438,-3.438,-3.438,-3.438,-3.438,-3.438,-3.438,-3.438,-3.438,-3.438,-3.438,-3.438,-3.438,-3.438,-3.4414,-3.4597,-3.4765,-3.4902,-3.5067,-3.5294,-3.5439,-3.5489,-3.5489,-3.5489,-3.5489,-3.5489,-3.5489,-3.5489,-3.5489,-3.5569,-3.5716,-3.6022,-3.6368,-3.6753,-3.7399,-3.8411,-3.8153,-3.8238,-3.8606,-3.8662,-3.8634,-3.8816,-3.8706,-3.8026,-3.7296,-3.6951,-3.6399,-3.5765,-3.5587,-3.5489,-3.5489,-3.5522,-3.5522,-3.5572,-3.5671,-3.5863,-3.6068,-3.6195,-3.6274,-3.6492,-3.6846,-3.7107,-3.7265,-3.7247,-3.7019,-3.6405,-3.5744,-3.5185,-3.4799,-3.4334,-3.4101,-3.4152,-3.4431,-3.4673,-3.4775,-3.4739,-3.427,-3.4006,-3.3801,-3.2971,-3.2491,-3.2286,-3.1865,-3.1705,-3.1705,-3.1705,-3.1705,-3.1705,-3.1849,-3.1994,-3.2038,-3.2201,-3.23,-3.2519,-3.2593,-3.333,-3.4259,-3.5709,-3.6545,-3.7,-3.7668,-3.7183,-3.6418,-3.6171,-3.5505,-3.4636,-3.438,-3.438,-3.438,-3.438,-3.438,-3.438,-3.438,-3.438,-3.438,-3.438,-3.438,-3.438,-3.438,-3.438,-3.438,-3.438,-3.438,-3.438,-3.438,-3.438,-3.438,-3.438,-3.438,-3.4448,-3.4631,-3.4783,-3.4902,-3.5115,-3.5294,-3.5457,-3.5489,-3.5489,-3.5489,-3.5489,-3.5489,-3.5489,-3.5489,-3.5489,-3.5569,-3.5973,-3.6148,-3.6211,-3.629,-3.66,-3.7041,-3.7251,-3.7576,-3.8153,-3.7809,-3.7764,-3.7937,-3.7764,-3.7207,-3.6875,-3.6569,-3.6227,-3.5765,-3.5554,-3.5489,-3.5489,-3.5522,-3.5539,-3.5653,-3.572,-3.5958,-3.6195,-3.6336,-3.646,-3.6523,-3.6785,-3.7074,-3.7184,-3.6988,-3.694,-3.6816,-3.6146,-3.5316,-3.4768,-3.4332,-3.4108,-3.4036,-3.4456,-3.4793,-3.4775,-3.4811,-3.4655,-3.4186,-3.3489,-3.32,-3.2635,-3.1922,-3.1777,-3.1705,-3.1705,-3.1705,-3.1705,-3.1705,-3.1761,-3.1749,-3.1761,-3.1893,-3.1937,-3.2125,-3.2344,-3.2562,-3.3154,-3.433,-3.5629,-3.6373,-3.6306,-3.621,-3.6055,-3.551,-3.4968,-3.4437,-3.423,-3.438,-3.4332,-3.438,-3.438,-3.438,-3.438,-3.438,-3.438,-3.438,-3.438,-3.438,-3.438,-3.438,-3.438,-3.438,-3.438,-3.438,-3.438,-3.438,-3.438,-3.438,-3.438,-3.4448,-3.4683,-3.4868,-3.4935,-3.518,-3.5424,-3.5472,-3.5489,-3.5489,-3.5489,-3.5489,-3.5489,-3.5489,-3.5489,-3.5489,-3.5537,-3.5619,-3.5733,-3.5765,-3.5765,-3.5797,-3.5973,-3.6337,-3.7041,-3.778,-3.7722,-3.7605,-3.8108,-3.7605,-3.7057,-3.6554,-3.6258,-3.607,-3.5814,-3.5522,-3.5489,-3.5489,-3.5489,-3.5539,-3.5735,-3.5879,-3.6116,-3.6258,-3.6383,-3.6492,-3.6554,-3.6554,-3.6785,-3.68,-3.6662,-3.6657,-3.6766,-3.6067,-3.5138,-3.4745,-3.4463,-3.4304,-3.4325,-3.465,-3.4809,-3.4775,-3.4775,-3.4775,-3.4318,-3.3669,-3.338,-3.2815,-3.2151,-3.1813,-3.1705,-3.1705,-3.1705,-3.1705,-3.1705,-3.1705,-3.1705,-3.1705,-3.1705,-3.1761,-3.1893,-3.2081,-3.2213,-3.2344,-3.3056,-3.415,-3.5264,-3.5548,-3.5395,-3.4964,-3.465,-3.4085,-3.3459,-3.3624,-3.3776,-3.3962,-3.4196,-3.438,-3.438,-3.438,-3.438,-3.438,-3.438,-3.438,-3.438,-3.438,-3.438,-3.438,-3.438,-3.438,-3.438,-3.438,-3.438,-3.438,-3.438,-3.438,-3.4448,-3.465,-3.4835,-3.4935,-3.5195,-3.5407,-3.5504,-3.5489,-3.5489,-3.5489,-3.5489,-3.5489,-3.5489,-3.5489,-3.5489,-3.5489,-3.5489,-3.5489,-3.5489,-3.5489,-3.5489,-3.5569,-3.5797,-3.6321,-3.7041,-3.6814,-3.6875,-3.6951,-3.6966,-3.6616,-3.5973,-3.591,-3.575,-3.5718,-3.5489,-3.5489,-3.5489,-3.5489,-3.5572,-3.5831,-3.6053,-3.6289,-3.6352,-3.6352,-3.6429,-3.6492,-3.646,-3.6414,-3.6476,-3.6538,-3.6538,-3.6474,-3.5711,-3.5487,-3.5502,-3.5305,-3.4812,-3.4676,-3.5018,-3.4991,-3.4775,-3.4763,-3.4691,-3.4366,-3.3838,-3.3368,-3.2815,-3.2298,-3.1877,-3.1705,-3.1705,-3.1705,-3.1705,-3.1705,-3.1705,-3.1705,-3.1705,-3.1705,-3.1717,-3.1761,-3.1906,-3.195,-3.2081,-3.2376,-3.2742,-3.3462,-3.4207,-3.4165,-3.384,-3.3528,-3.3165,-3.2423,-3.272,-3.3157,-3.3381,-3.3825,-3.423,-3.4346,-3.438,-3.438,-3.438,-3.438,-3.438,-3.438,-3.438,-3.438,-3.438,-3.438,-3.438,-3.438,-3.438,-3.438,-3.438,-3.438,-3.438,-3.4414,-3.4616,-3.4817,-3.4935,-3.5148,-3.5359,-3.5489,-3.5489,-3.5489,-3.5489,-3.5489,-3.5489,-3.5489,-3.5489,-3.5489,-3.5489,-3.5489,-3.5489,-3.5489,-3.5489,-3.5489,-3.5489,-3.5489,-3.5878,-3.6274,-3.6258,-3.6196,-3.6227,-3.6242,-3.5829,-3.5489,-3.5489,-3.5489,-3.5489,-3.5489,-3.5489,-3.5489,-3.5489,-3.5539,-3.5767,-3.6053,-3.632,-3.632,-3.6289,-3.6352,-3.6429,-3.6445,-3.6414,-3.646,-3.6492,-3.6523,-3.6584,-3.6378,-3.6262,-3.6362,-3.6095,-3.5572,-3.5431,-3.545,-3.5234,-3.4775,-3.4739,-3.4306,-3.3826,-3.3368,-3.2863,-3.2346,-3.1886,-3.1765,-3.1705,-3.1705,-3.1705,-3.1705,-3.1705,-3.1705,-3.1705,-3.1705,-3.1705,-3.1705,-3.1705,-3.1761,-3.1761,-3.1805,-3.1849,-3.2013,-3.2101,-3.2735,-3.3085,-3.3093,-3.283,-3.2302,-3.2135,-3.2182,-3.2506,-3.3017,-3.3416,-3.3859,-3.4346,-3.438,-3.438,-3.438,-3.438,-3.438,-3.438,-3.438,-3.438,-3.438,-3.438,-3.438,-3.438,-3.438,-3.438,-3.438,-3.438,-3.438,-3.4448,-3.4683,-3.4835,-3.4935,-3.5228,-3.5439,-3.5504,-3.5489,-3.5489,-3.5489,-3.5489,-3.5489,-3.5489,-3.5489,-3.5489,-3.5489,-3.5489,-3.5489,-3.5489,-3.5489,-3.5489,-3.5489,-3.5522,-3.5716,-3.6101,-3.5846,-3.5619,-3.5797,-3.5846,-3.5636,-3.5489,-3.5489,-3.5489,-3.5489,-3.5489,-3.5489,-3.5489,-3.5489,-3.5572,-3.5703,-3.5975,-3.6211,-3.6195,-3.6195,-3.6258,-3.632,-3.6414,-3.6445,-3.6492,-3.6569,-3.6631,-3.6702,-3.6785,-3.6962,-3.6999,-3.6677,-3.6267,-3.6088,-3.5897,-3.5543,-3.4619,-3.4354,-3.4102,-3.3585,-3.2911,-3.2611,-3.2178,-3.1753,-3.1705,-3.1705,-3.1705,-3.1705,-3.1705,-3.1705,-3.1705,-3.1705,-3.1705,-3.1705,-3.1705,-3.1705,-3.1705,-3.1705,-3.1705,-3.1705,-3.1705,-3.1805,-3.1977,-3.2012,-3.2017,-3.182,-3.142,-3.1069,-3.1244,-3.1856,-3.2577,-3.3052,-3.3589,-3.4196,-3.438,-3.438,-3.438,-3.438,-3.438,-3.438,-3.438,-3.438,-3.438,-3.438,-3.438,-3.438,-3.438,-3.438,-3.438,-3.438,-3.438,-3.4433,-3.4635,-3.4835,-3.4935,-3.5195,-3.5374,-3.5504,-3.5489,-3.5489,-3.5489,-3.5489,-3.5489,-3.5489,-3.5489,-3.5489,-3.5489,-3.5489,-3.5489,-3.5489,-3.5489,-3.5489,-3.5489,-3.5489,-3.5701,-3.5926,-3.5701,-3.5587,-3.5668,-3.5668,-3.5554,-3.5489,-3.5489,-3.5489,-3.5489,-3.5489,-3.5489,-3.5522,-3.5522,-3.5589,-3.5703,-3.5894,-3.607,-3.6053,-3.61,-3.6163,-3.6289,-3.6383,-3.6445,-3.6476,-3.6569,-3.6662,-3.6799,-3.685,-3.7214,-3.7536,-3.7096,-3.6712,-3.6528,-3.6299,-3.5926,-3.4474,-3.3982,-3.3886,-3.3356,-3.2575,-3.237,-3.2082,-3.1765,-3.1705,-3.1705,-3.1705,-3.1705,-3.1705,-3.1705,-3.1705,-3.1705,-3.1705,-3.1705,-3.1705,-3.1705,-3.1705,-3.1705,-3.1705,-3.1705,-3.1705,-3.1717,-3.1749,-3.1355,-3.1038,-3.103,-3.0543,-3.0276,-3.052,-3.1193,-3.2074,-3.2648,-3.3451,-3.4147,-3.438,-3.438,-3.438,-3.438,-3.438,-3.438,-3.438,-3.438,-3.438,-3.438,-3.438,-3.438,-3.438,-3.438,-3.438,-3.438,-3.438,-3.4414,-3.4631,-3.4783,-3.4916,-3.5148,-3.5407,-3.5504,-3.5489,-3.5489,-3.5489,-3.5489,-3.5489,-3.5489,-3.5489,-3.5489,-3.5489,-3.5489,-3.5489,-3.5489,-3.5489,-3.5489,-3.5489,-3.5489,-3.5489,-3.5587,-3.5489,-3.5522,-3.5604,-3.5604,-3.5489,-3.5489,-3.5489,-3.5489,-3.5489,-3.5489,-3.5489,-3.5522,-3.5572,-3.5606,-3.5703,-3.5767,-3.5926,-3.5943,-3.6022,-3.61,-3.6226,-3.6352,-3.6414,-3.6507,-3.6492,-3.66,-3.6754,-3.7133,-3.7721,-3.7878,-3.7456,-3.7228,-3.7117,-3.6654,-3.6113,-3.4474,-3.3946,-3.3549,-3.3032,-3.2454,-3.203,-3.1801,-3.1729,-3.1705,-3.1705,-3.1705,-3.1705,-3.1705,-3.1705,-3.1705,-3.1705,-3.1705,-3.1705,-3.1705,-3.1705,-3.1705,-3.1705,-3.1705,-3.1705,-3.1705,-3.1705,-3.1705,-3.1307,-3.0898,-3.0802,-3.0468,-3.0043,-3.0151,-3.0659,-3.2001,-3.2398,-3.2995,-3.4128,-3.438,-3.438,-3.438,-3.438,-3.438,-3.438,-3.438,-3.438,-3.438,-3.438,-3.438,-3.438,-3.438,-3.438,-3.438,-3.438,-3.438,-3.4467,-3.4668,-3.4868,-3.4935,-3.5195,-3.5407,-3.5472,-3.5504,-3.5504,-3.5489,-3.5489,-3.5489,-3.5489,-3.5489,-3.5489,-3.5489,-3.5489,-3.5489,-3.5489,-3.5489,-3.5489,-3.5489,-3.5489,-3.5489,-3.5489,-3.5489,-3.5489,-3.5522,-3.5522,-3.5489,-3.5489,-3.5489,-3.5489,-3.5489,-3.5489,-3.5489,-3.5522,-3.5554,-3.5589,-3.5621,-3.5686,-3.5814,-3.5847,-3.5958,-3.61,-3.6399,-3.6585,-3.6523,-3.6585,-3.6585,-3.6754,-3.7074,-3.7592,-3.8258,-3.8341,-3.7998,-3.787,-3.7802,-3.7131,-3.6315,-3.3645,-3.3106,-3.2935,-3.2527,-3.2066,-3.1801,-3.1705,-3.1705,-3.1705,-3.1705,-3.1705,-3.1705,-3.1705,-3.1705,-3.1705,-3.1705,-3.1705,-3.1705,-3.1705,-3.1705,-3.1705,-3.1705,-3.1705,-3.1705,-3.1705,-3.1705,-3.1645,-3.1499,-3.1077,-3.0798,-3.0514,-3.0344,-3.0407,-3.0996,-3.2114,-3.2519,-3.3346,-3.4113,-3.438,-3.438,-3.438,-3.438,-3.438,-3.438,-3.438,-3.438,-3.438,-3.438,-3.438,-3.438,-3.438,-3.438,-3.438,-3.438,-3.438,-3.4414,-3.4616,-3.475,-3.4802,-3.5162,-3.5294,-3.5359,-3.5424,-3.5489,-3.5489,-3.5489,-3.5489,-3.5489,-3.5489,-3.5489,-3.5489,-3.5489,-3.5489,-3.5489,-3.5489,-3.5489,-3.5489,-3.5489,-3.5489,-3.5489,-3.5489,-3.5489,-3.5489,-3.5489,-3.5489,-3.5489,-3.5489,-3.5489,-3.5489,-3.5489,-3.5489,-3.5489,-3.5522,-3.5539,-3.5554,-3.5602,-3.5765,-3.5846,-3.5973,-3.6195,-3.6708,-3.6861,-3.6816,-3.6938,-3.7074,-3.7238,-3.7476,-3.7679,-3.8092,-3.8363,-3.8593,-3.8346,-3.8048,-3.7273,-3.6485,-3.2647,-3.231,-3.2442,-3.2178,-3.1717,-3.1705,-3.1705,-3.1705,-3.1705,-3.1705,-3.1705,-3.1705,-3.1705,-3.1705,-3.1705,-3.1705,-3.1705,-3.1705,-3.1705,-3.1705,-3.1705,-3.1705,-3.1705,-3.1705,-3.1705,-3.1705,-3.1705,-3.1576,-3.1374,-3.1088,-3.0823,-3.0743,-3.0753,-3.1439,-3.225,-3.2852,-3.3555,-3.4298,-3.438,-3.438,-3.438,-3.438,-3.438,-3.438,-3.438,-3.438,-3.438,-3.438,-3.438,-3.438,-3.438,-3.438,-3.438,-3.438,-3.438,-3.4414,-3.4549,-3.4582,-3.4716,-3.4964,-3.518,-3.5279,-3.5359,-3.5489,-3.5489,-3.5489,-3.5489,-3.5489,-3.5489,-3.5489,-3.5489,-3.5489,-3.5489,-3.5489,-3.5489,-3.5489,-3.5489,-3.5489,-3.5489,-3.5489,-3.5489,-3.5489,-3.5489,-3.5489,-3.5489,-3.5489,-3.5489,-3.5489,-3.5489,-3.5489,-3.5489,-3.5489,-3.5489,-3.5522,-3.5522,-3.5569,-3.5748,-3.5957,-3.6052,-3.6399,-3.6997,-3.7178,-3.7148,-3.7298,-3.7578,-3.7883,-3.8169,-3.8026,-3.7895,-3.8466,-3.8811,-3.8538,-3.8101,-3.7361,-3.6603,-3.1801,-3.1813,-3.2262,-3.2154,-3.1705,-3.1705,-3.1705,-3.1705,-3.1705,-3.1705,-3.1705,-3.1705,-3.1705,-3.1705,-3.1705,-3.1705,-3.1705,-3.1705,-3.1705,-3.1705,-3.1705,-3.1705,-3.1705,-3.1705,-3.1705,-3.1705,-3.1705,-3.1769,-3.1731,-3.1296,-3.1129,-3.1066,-3.0997,-3.1759,-3.2504,-3.3113,-3.3687,-3.4264,-3.438,-3.438,-3.438,-3.438,-3.438,-3.438,-3.438,-3.438,-3.438,-3.438,-3.438,-3.438,-3.438,-3.438,-3.438,-3.438,-3.438,-3.4414,-3.4414,-3.4481,-3.4582,-3.4883,-3.5228,-3.5407,-3.5504,-3.5489,-3.5489,-3.5489,-3.5489,-3.5489,-3.5489,-3.5489,-3.5489,-3.5489,-3.5489,-3.5489,-3.5489,-3.5489,-3.5489,-3.5489,-3.5489,-3.5489,-3.5489,-3.5489,-3.5489,-3.5489,-3.5489,-3.5489,-3.5489,-3.5489,-3.5489,-3.5489,-3.5489,-3.5489,-3.5489,-3.5489,-3.5489,-3.5651,-3.591,-3.6211,-3.6414,-3.686,-3.7431,-3.749,-3.7549,-3.7883,-3.8181,-3.8518,-3.8783,-3.8518,-3.8518,-3.892,-3.9089,-3.8933,-3.8377,-3.7554,-3.6755,-3.0922,-3.1247,-3.142,-3.1609,-3.1705,-3.1705,-3.1705,-3.1705,-3.1705,-3.1705,-3.1705,-3.1705,-3.1705,-3.1705,-3.1705,-3.1705,-3.1705,-3.1705,-3.1705,-3.1705,-3.1705,-3.1705,-3.1705,-3.1705,-3.1705,-3.1705,-3.1705,-3.1705,-3.1721,-3.1452,-3.1351,-3.127,-3.1172,-3.1657,-3.2386,-3.3375,-3.402,-3.423,-3.438,-3.438,-3.438,-3.438,-3.438,-3.438,-3.438,-3.438,-3.438,-3.438,-3.438,-3.438,-3.438,-3.438,-3.438,-3.438,-3.438,-3.438,-3.438,-3.4448,-3.4549,-3.485,-3.5148,-3.5424,-3.5489,-3.5489,-3.5489,-3.5489,-3.5489,-3.5489,-3.5489,-3.5489,-3.5489,-3.5489,-3.5489,-3.5489,-3.5489,-3.5489,-3.5489,-3.5489,-3.5489,-3.5489,-3.5489,-3.5489,-3.5489,-3.5489,-3.5489,-3.5489,-3.5489,-3.5489,-3.5489,-3.5489,-3.5489,-3.5489,-3.5489,-3.5489,-3.5489,-3.5782,-3.6133,-3.6461,-3.6753,-3.7399,-3.7953,-3.7982,-3.8124,-3.8446,-3.864,-3.8821,-3.8947,-3.8947,-3.9109,-3.947,-3.9553,-3.948,-3.8753,-3.7821,-3.706,-3.0266,-3.0831,-3.0754,-3.1048,-3.1669,-3.1705,-3.1705,-3.1705,-3.1705,-3.1705,-3.1705,-3.1705,-3.1705,-3.1705,-3.1705,-3.1705,-3.1705,-3.1705,-3.1705,-3.1705,-3.1705,-3.1705,-3.1705,-3.1705,-3.1705,-3.1705,-3.1705,-3.1705,-3.1737,-3.1506,-3.1321,-3.1264,-3.1372,-3.1694,-3.2591,-3.3605,-3.438,-3.438,-3.438,-3.438,-3.438,-3.438,-3.438,-3.438,-3.438,-3.438,-3.438,-3.438,-3.438,-3.438,-3.438,-3.438,-3.438,-3.438,-3.438,-3.438,-3.4414,-3.4481,-3.4616,-3.4883,-3.5115,-3.5326,-3.5472,-3.5472,-3.5489,-3.5489,-3.5489,-3.5489,-3.5489,-3.5489,-3.5489,-3.5489,-3.5489,-3.5489,-3.5489,-3.5489,-3.5489,-3.5489,-3.5489,-3.5489,-3.5489,-3.5489,-3.5489,-3.5489,-3.5489,-3.5489,-3.5489,-3.5489,-3.5489,-3.5489,-3.5489,-3.5489,-3.5489,-3.5489,-3.5522,-3.5958,-3.6384,-3.6738,-3.7175,-3.8035,-3.8474,-3.853,-3.8767,-3.9199,-3.9322,-3.9162,-3.9242,-3.9401,-3.9696,-3.9969,-3.9944,-3.98,-3.9158,-3.8278,-3.7574,-2.9941,-3.0814,-3.035,-3.079,-3.1669,-3.1705,-3.1705,-3.1705,-3.1705,-3.1705,-3.1705,-3.1705,-3.1705,-3.1705,-3.1705,-3.1705,-3.1705,-3.1705,-3.1705,-3.1705,-3.1705,-3.1705,-3.1705,-3.1705,-3.1705,-3.1705,-3.1633,-3.1585,-3.1705,-3.1651,-3.1394,-3.1112,-3.1244,-3.1733,-3.2861,-3.3888,-3.4361,-3.438,-3.438,-3.438,-3.438,-3.4298,-3.423,-3.438,-3.423,-3.4147,-3.438,-3.438,-3.438,-3.438,-3.438,-3.438,-3.438,-3.438,-3.438,-3.438,-3.438,-3.4414,-3.4481,-3.4916,-3.5148,-3.5294,-3.5439,-3.5489,-3.5489,-3.5489,-3.5489,-3.5489,-3.5489,-3.5489,-3.5489,-3.5489,-3.5489,-3.5489,-3.5489,-3.5489,-3.5489,-3.5489,-3.5489,-3.5489,-3.5489,-3.5489,-3.5489,-3.5489,-3.5489,-3.5489,-3.5489,-3.5489,-3.5489,-3.5489,-3.5489,-3.5489,-3.5489,-3.5489,-3.5604,-3.6212,-3.6661,-3.7025,-3.7544,-3.8346,-3.8903,-3.9011,-3.9391,-3.9876,-3.985,-3.9575,-3.9773,-3.9978,-3.9901,-3.9799,-4.0045,-3.9884,-3.9309,-3.8785,-3.8132,-2.9917,-3.0855,-3.0675,-3.1055,-3.1669,-3.1705,-3.1705,-3.1705,-3.1705,-3.1705,-3.1705,-3.1705,-3.1705,-3.1705,-3.1705,-3.1705,-3.1705,-3.1705,-3.1705,-3.1705,-3.1705,-3.1705,-3.1705,-3.1705,-3.1705,-3.1609,-3.1464,-3.1476,-3.1705,-3.1603,-3.1235,-3.0939,-3.1369,-3.192,-3.2627,-3.3556,-3.438,-3.438,-3.438,-3.438,-3.4346,-3.3928,-3.3825,-3.4264,-3.3859,-3.3894,-3.4298,-3.4298,-3.438,-3.438,-3.438,-3.438,-3.438,-3.438,-3.438,-3.438,-3.4414,-3.4481,-3.4582,-3.4868,-3.51,-3.5279,-3.5424,-3.5504,-3.5489,-3.5489,-3.5489,-3.5489,-3.5489,-3.5489,-3.5489,-3.5489,-3.5489,-3.5489,-3.5489,-3.5489,-3.5489,-3.5489,-3.5489,-3.5489,-3.5489,-3.5489,-3.5489,-3.5489,-3.5489,-3.5489,-3.5489,-3.5489,-3.5489,-3.5489,-3.5489,-3.5489,-3.5489,-3.5489,-3.5701,-3.6243,-3.6569,-3.6798,-3.7602,-3.8601,-3.9028,-3.9269,-3.9575,-3.985,-3.9944,-3.9995,-3.9722,-3.9497,-3.9497,-3.9523,-3.9653,-3.9944,-3.9774,-3.9317,-3.8785,-3.0074,-3.0898,-3.0922,-3.1223,-3.1669,-3.1705,-3.1705,-3.1705,-3.1705,-3.1705,-3.1705,-3.1705,-3.1705,-3.1705,-3.1705,-3.1705,-3.1705,-3.1705,-3.1705,-3.1705,-3.1705,-3.1705,-3.1705,-3.1705,-3.1705,-3.1585,-3.1416,-3.138,-3.138,-3.1283,-3.1164,-3.1225,-3.167,-3.2168,-3.2797,-3.3722,-3.4196,-3.4045,-3.3894,-3.3707,-3.3465,-3.3171,-3.3066,-3.3311,-3.3381,-3.3437,-3.3894,-3.4196,-3.438,-3.438,-3.438,-3.438,-3.438,-3.438,-3.438,-3.438,-3.4414,-3.4515,-3.465,-3.4802,-3.5067,-3.5311,-3.5439,-3.5504,-3.5489,-3.5489,-3.5489,-3.5489,-3.5489,-3.5489,-3.5489,-3.5489,-3.5489,-3.5489,-3.5489,-3.5489,-3.5489,-3.5489,-3.5489,-3.5489,-3.5489,-3.5489,-3.5489,-3.5489,-3.5489,-3.5489,-3.5489,-3.5489,-3.5489,-3.5489,-3.5489,-3.5489,-3.5489,-3.5489,-3.5718,-3.6212,-3.6492,-3.6615,-3.7528,-3.8585,-3.893,-3.9146,-3.948,-3.9653,-3.9401,-3.9189,-3.9028,-3.8892,-3.8892,-3.8957,-3.9065,-3.9454,-3.9969,-3.9682,-3.9126,-3.0465,-3.091,-3.0934,-3.1247,-3.1657,-3.1705,-3.1705,-3.1705,-3.1705,-3.1705,-3.1705,-3.1705,-3.1705,-3.1705,-3.1705,-3.1705,-3.1705,-3.1705,-3.1705,-3.1705,-3.1705,-3.1705,-3.1681,-3.1633,-3.1548,-3.1573,-3.1368,-3.0862,-3.0874,-3.0822,-3.0927,-3.1461,-3.1737,-3.2286,-3.3087,-3.3624,-3.3811,-3.3555,-3.3416,-3.3122,-3.2698,-3.2232,-3.2254,-3.247,-3.2648,-3.2861,-3.3297,-3.3742,-3.4113,-3.4264,-3.4332,-3.438,-3.438,-3.438,-3.438,-3.438,-3.438,-3.4515,-3.4698,-3.485,-3.5001,-3.5246,-3.5392,-3.5457,-3.5489,-3.5489,-3.5489,-3.5489,-3.5489,-3.5489,-3.5489,-3.5489,-3.5489,-3.5489,-3.5489,-3.5489,-3.5489,-3.5489,-3.5489,-3.5489,-3.5489,-3.5489,-3.5489,-3.5489,-3.5489,-3.5489,-3.5489,-3.5489,-3.5489,-3.5489,-3.5489,-3.5489,-3.5489,-3.5489,-3.5782,-3.6086,-3.618,-3.6212,-3.7395,-3.8402,-3.8707,-3.8832,-3.9065,-3.9011,-3.8601,-3.8351,-3.8311,-3.8282,-3.8294,-3.8379,-3.8502,-3.8876,-3.9375,-3.9558,-3.9181,-3.0951,-3.1476,-3.1476,-3.1573,-3.1693,-3.1705,-3.1705,-3.1705,-3.1705,-3.1705,-3.1705,-3.1705,-3.1705,-3.1705,-3.1705,-3.1705,-3.1705,-3.1705,-3.1705,-3.1705,-3.1705,-3.1705,-3.1573,-3.1368,-3.118,-3.0855,-3.0543,-3.029,-3.0278,-3.0264,-3.1025,-3.2024,-3.1718,-3.2309,-3.2897,-3.3437,-3.3297,-3.3108,-3.3003,-3.2506,-3.1965,-3.1502,-3.1599,-3.1819,-3.1769,-3.2024,-3.247,-3.3192,-3.3555,-3.3624,-3.4147,-3.438,-3.438,-3.438,-3.438,-3.438,-3.4414,-3.4481,-3.4664,-3.4817,-3.4968,-3.518,-3.5359,-3.5457,-3.5489,-3.5489,-3.5489,-3.5489,-3.5489,-3.5489,-3.5489,-3.5489,-3.5489,-3.5489,-3.5489,-3.5489,-3.5489,-3.5489,-3.5489,-3.5489,-3.5489,-3.5489,-3.5489,-3.5489,-3.5489,-3.5489,-3.5489,-3.5489,-3.5489,-3.5489,-3.5489,-3.5489,-3.5489,-3.5489,-3.5554,-3.5799,-3.5799,-3.5991,-3.71,-3.779,-3.7716,-3.7905,-3.8362,-3.8351,-3.7879,-3.7722,-3.7666,-3.7666,-3.7679,-3.7854,-3.801,-3.8379,-3.8712,-3.8887,-3.8924,-3.1416,-3.1693,-3.1705,-3.1705,-3.1705,-3.1705,-3.1705,-3.1705,-3.1705,-3.1705,-3.1705,-3.1705,-3.1705,-3.1705,-3.1705,-3.1705,-3.1705,-3.1705,-3.1705,-3.1705,-3.1681,-3.1524,-3.132,-3.1055,-3.0838,-3.0374,-3.0037,-2.9845,-2.9706,-2.9525,-3.0075,-3.1365,-3.1299,-3.1896,-3.2434,-3.272,-3.2506,-3.2349,-3.2132,-3.1819,-3.1318,-3.0771,-3.0921,-3.1071,-3.0833,-3.1267,-3.1709,-3.2541,-3.3108,-3.3297,-3.3962,-3.438,-3.438,-3.438,-3.438,-3.438,-3.4414,-3.4448,-3.4582,-3.4817,-3.4949,-3.5115,-3.5326,-3.5457,-3.5489,-3.5489,-3.5489,-3.5489,-3.5489,-3.5489,-3.5489,-3.5489,-3.5489,-3.5489,-3.5489,-3.5489,-3.5489,-3.5489,-3.5489,-3.5489,-3.5489,-3.5489,-3.5489,-3.5489,-3.5489,-3.5489,-3.5489,-3.5489,-3.5489,-3.5489,-3.5489,-3.5489,-3.5489,-3.5489,-3.5554,-3.5572,-3.5604,-3.5782,-3.6415,-3.6905,-3.6768,-3.695,-3.7442,-3.7399,-3.7147,-3.7103,-3.7148,-3.7074,-3.7088,-3.7298,-3.7371,-3.7504,-3.7838,-3.8266,-3.825,-3.1705,-3.1705,-3.1705,-3.1705,-3.1705,-3.1705,-3.1705,-3.1705,-3.1705,-3.1705,-3.1705,-3.1705,-3.1705,-3.1705,-3.1705,-3.1705,-3.1705,-3.1705,-3.1609,-3.1645,-3.1536,-3.132,-3.0934,-3.0711,-3.0302,-3.0098,-2.9821,-2.9376,-2.9188,-2.9208,-2.9621,-3.033,-3.0595,-3.1267,-3.2146,-3.2024,-3.1709,-3.1132,-3.0983,-3.0746,-3.0216,-2.9856,-2.9818,-2.9998,-3.0381,-3.0833,-3.1193,-3.2024,-3.3108,-3.3367,-3.3859,-3.4332,-3.438,-3.438,-3.438,-3.438,-3.438,-3.4414,-3.4515,-3.4716,-3.485,-3.5016,-3.5228,-3.5359,-3.5392,-3.5472,-3.5504,-3.5489,-3.5489,-3.5489,-3.5489,-3.5489,-3.5489,-3.5489,-3.5489,-3.5489,-3.5489,-3.5489,-3.5489,-3.5489,-3.5489,-3.5489,-3.5489,-3.5489,-3.5489,-3.5489,-3.5489,-3.5489,-3.5489,-3.5489,-3.5489,-3.5489,-3.5489,-3.5489,-3.5489,-3.5522,-3.5522,-3.5765,-3.6164,-3.629,-3.629,-3.6384,-3.6523,-3.6616,-3.6708,-3.6646,-3.6631,-3.6662,-3.6693,-3.6723,-3.6785,-3.66,-3.6922,-3.7533,-3.7562,-3.1705,-3.1705,-3.1705,-3.1705,-3.1705,-3.1705,-3.1693,-3.1705,-3.1705,-3.1669,-3.1705,-3.1693,-3.1705,-3.1705,-3.1705,-3.1705,-3.1705,-3.1597,-3.144,-3.1247,-3.1139,-3.0814,-3.0278,-2.9989,-2.9677,-2.94,-2.9136,-2.8931,-2.8843,-2.9192,-2.9922,-3.0994,-3.1007,-3.1244,-3.1856,-3.1563,-3.0846,-3.0241,-3.0165,-3.0101,-2.9856,-2.9779,-2.9818,-2.9818,-3.0101,-3.0203,-3.0671,-3.1539,-3.2182,-3.2506,-3.3742,-3.4264,-3.438,-3.438,-3.438,-3.438,-3.438,-3.438,-3.4448,-3.4616,-3.475,-3.4817,-3.4964,-3.5129,-3.5261,-3.5407,-3.5504,-3.5504,-3.5489,-3.5489,-3.5489,-3.5489,-3.5489,-3.5489,-3.5489,-3.5489,-3.5489,-3.5489,-3.5489,-3.5489,-3.5489,-3.5489,-3.5489,-3.5489,-3.5489,-3.5489,-3.5489,-3.5489,-3.5489,-3.5489,-3.5489,-3.5489,-3.5489,-3.5489,-3.5489,-3.5489,-3.5489,-3.5651,-3.599,-3.599,-3.5863,-3.6101,-3.6321,-3.6336,-3.6367,-3.6429,-3.6492,-3.6523,-3.6523,-3.6492,-3.6492,-3.6492,-3.6492,-3.6952,-3.6861,-3.1427,-3.1048,-3.1003,-3.1327,-3.1613,-3.1464,-3.1356,-3.132,-3.1115,-3.0963,-3.1127,-3.1452,-3.1705,-3.1705,-3.1705,-3.1681,-3.1633,-3.1428,-3.1223,-3.0958,-3.0585,-3.0194,-2.9773,-2.94,-2.9184,-2.8931,-2.8715,-2.8586,-2.8578,-2.8882,-2.9653,-3.0732,-3.0833,-3.0871,-3.1341,-3.0846,-3.0241,-2.9818,-2.9779,-2.9779,-2.9779,-2.9779,-2.9779,-2.9779,-2.9818,-2.9921,-3.0595,-3.1502,-3.2123,-3.2733,-3.3825,-3.4264,-3.438,-3.438,-3.438,-3.438,-3.438,-3.438,-3.4448,-3.4549,-3.4664,-3.4731,-3.4817,-3.5016,-3.5195,-3.5326,-3.5424,-3.5424,-3.5489,-3.5489,-3.5489,-3.5489,-3.5489,-3.5489,-3.5489,-3.5489,-3.5489,-3.5489,-3.5489,-3.5489,-3.5489,-3.5489,-3.5489,-3.5489,-3.5489,-3.5489,-3.5489,-3.5489,-3.5489,-3.5489,-3.5489,-3.5489,-3.5489,-3.5489,-3.5489,-3.5489,-3.5489,-3.5668,-3.5846,-3.5814,-3.5767,-3.599,-3.6148,-3.6242,-3.6352,-3.646,-3.6492,-3.6492,-3.6492,-3.6492,-3.6492,-3.6492,-3.6492,-3.6492,-3.6554,-3.0912,-3.0256,-3.0042,-3.0568,-3.1352,-3.1019,-3.0814,-3.0711,-3.0344,-3.0134,-3.0266,-3.1103,-3.1476,-3.1609,-3.1609,-3.1609,-3.1488,-3.1199,-3.097,-3.047,-3.0158,-2.9689,-2.9376,-2.9124,-2.8883,-2.8703,-2.8546,-2.851,-2.851,-2.8922,-2.9406,-2.9986,-2.9986,-2.9819,-3.0355,-3.0266,-2.9779,-2.9779,-2.9779,-2.9779,-2.9779,-2.9779,-2.9779,-2.9779,-2.9856,-3.0203,-3.0908,-3.1659,-3.2434,-3.3157,-3.3894,-3.423,-3.438,-3.438,-3.438,-3.438,-3.438,-3.438,-3.4414,-3.4515,-3.4582,-3.4698,-3.4802,-3.4935,-3.5115,-3.5213,-3.5311,-3.5392,-3.5457,-3.5489,-3.5489,-3.5489,-3.5489,-3.5489,-3.5489,-3.5489,-3.5489,-3.5489,-3.5489,-3.5489,-3.5489,-3.5489,-3.5489,-3.5489,-3.5489,-3.5489,-3.5489,-3.5489,-3.5489,-3.5489,-3.5489,-3.5489,-3.5489,-3.5489,-3.5489,-3.5489,-3.5489,-3.5522,-3.5668,-3.5653,-3.5703,-3.5958,-3.6148,-3.6211,-3.6352,-3.646,-3.6492,-3.6492,-3.6492,-3.6492,-3.6492,-3.6492,-3.6492,-3.6492,-3.6492,-3.0143,-3.0065,-2.9311,-2.9539,-3.0344,-3.0278,-3.0242,-3.0218,-3.0122,-3.0086,-3.0062,-3.0218,-3.0633,-3.1055,-3.1067,-3.1067,-3.0987,-3.0814,-3.0194,-2.9629,-2.9556,-2.9148,-2.8859,-2.8811,-2.8631,-2.8546,-2.851,-2.851,-2.855,-2.9079,-2.9716,-3.0292,-3.0203,-3.0241,-3.0607,-3.0266,-2.9779,-2.9779,-2.9779,-2.9779,-2.9779,-2.9779,-2.9779,-2.9779,-2.9779,-3.0266,-3.0871,-3.1659,-3.2434,-3.3192,-3.3928,-3.4264,-3.438,-3.438,-3.438,-3.438,-3.438,-3.438,-3.4448,-3.4448,-3.4515,-3.4515,-3.465,-3.4817,-3.4983,-3.51,-3.5246,-3.5392,-3.5457,-3.5457,-3.5457,-3.5489,-3.5489,-3.5489,-3.5489,-3.5489,-3.5489,-3.5489,-3.5489,-3.5489,-3.5489,-3.5489,-3.5489,-3.5489,-3.5489,-3.5489,-3.5489,-3.5489,-3.5489,-3.5489,-3.5489,-3.5489,-3.5489,-3.5489,-3.5489,-3.5489,-3.5489,-3.5489,-3.5554,-3.5668,-3.5799,-3.6006,-3.6164,-3.6274,-3.6383,-3.6492,-3.6492,-3.6492,-3.6492,-3.6492,-3.6492,-3.6492,-3.6492,-3.6492,-3.6492]}]]